[[{"header":{"parameterUnit":"m.s-1","parameterCategory":1,"la1":30.6,"la2":29.2853,"lo1":-89.7004,"lo2":-87.6739,"dy":0.0162,"dx":0.0183,"nx":112,"ny":82,"refTime":"2023-09-29T00:00:00:Z","depth":0,"parameterNumber":2,"parameterNumberName":"U-component_of_WINDS"},"data":[0.0,0.0,0.0,0.0,0.0,0.0,0.0,0.0,0.0,0.0,0.0,0.0,0.0,0.0,0.0,0.0,0.0,0.0,0.0,0.0,0.0,0.0,0.0,0.0,0.0,0.0,0.0,0.0,0.0,0.0,0.0,0.0,0.0,0.0,0.0,0.0,0.0,0.0,0.0,0.0,0.0,0.0,0.0,0.0,0.0,0.0,0.0,0.0,0.0,0.0,0.0,0.0,0.0,0.0,0.0,0.0,0.0,0.0,0.0,0.0,0.0,0.0,0.0,0.0,0.0,0.0,0.0,0.0,0.0,0.0,0.0,0.0,0.0,0.0,0.0,0.0,0.0,0.0,0.0,0.0,0.0,0.0,0.0,0.0,0.0,0.0,0.0,0.0,0.0,0.0,1.0597,1.2459,1.4946,1.6451,1.6396,1.5279,1.4047,1.2772,0.0,0.0,0.0,0.0,0.0,0.0,0.0,0.0,0.0,0.0,0.0,0.0,0.0,0.0,0.0,0.0,0.0,0.0,0.0,0.0,0.0,0.0,0.0,0.0,0.0,0.0,0.0,0.0,0.0,0.0,0.0,0.0,0.0,0.0,0.0,0.0,0.0,0.0,0.0,0.0,0.0,0.0,0.0,0.0,0.0,0.0,0.0,0.0,0.0,0.0,0.0,0.0,0.0,0.0,0.0,0.0,0.0,0.0,0.0,0.0,0.0,0.0,0.0,0.0,0.0,0.0,0.0,0.0,0.0,0.0,0.0,0.0,0.0,0.0,0.0,0.0,0.0,0.0,0.0,0.0,0.0,0.0,0.0,0.0,0.0,0.0,0.0,0.0,0.0,0.0,0.0,0.0,0.0,0.0,0.0,0.0,0.0,0.0,0.0,0.0,0.0,0.0,0.0,0.0,1.1549,1.4811,1.645,1.7183,1.6853,1.5698,1.4356,1.2803,0.0,0.0,0.0,0.0,0.0,0.0,0.0,0.0,0.0,0.0,0.0,0.0,0.0,0.0,0.0,0.0,0.0,0.0,0.0,0.0,0.0,0.0,0.0,0.0,0.0,0.0,0.0,0.0,0.0,0.0,0.0,0.0,0.0,0.0,0.0,0.0,0.0,0.0,0.0,0.0,0.0,0.0,0.0,0.0,0.0,0.0,0.0,0.0,0.0,0.0,0.0,0.0,0.0,0.0,0.0,0.0,0.0,0.0,0.0,0.0,0.0,0.0,0.0,0.0,0.0,0.0,0.0,0.0,0.0,0.0,0.0,0.0,0.0,0.0,0.0,0.0,0.0,0.0,0.0,0.0,0.0,0.0,0.0,0.0,0.0,0.0,0.0,0.0,0.0,0.0,0.0,0.0,0.0,0.0,0.0,0.0,0.0,0.0,0.0,0.0,0.0,0.0,0.0,1.132,1.3166,1.5457,1.6578,1.7018,1.6598,1.5478,1.4176,1.2803,1.0761,0.0,0.0,0.0,0.0,0.0,0.0,0.0,0.0,0.0,0.0,0.0,0.0,0.0,0.0,0.0,0.0,0.0,0.0,0.0,0.0,0.0,0.0,0.0,0.0,0.0,0.0,0.0,0.0,0.0,0.0,0.0,0.0,0.0,0.0,0.0,0.0,0.0,0.0,0.0,0.0,0.0,0.0,0.0,0.0,0.0,0.0,0.0,0.0,0.0,0.0,0.0,0.0,0.0,0.0,0.0,0.0,0.0,0.0,0.0,0.0,0.0,0.0,0.0,0.0,0.0,0.0,0.0,0.0,0.0,0.0,0.0,0.0,0.0,0.0,0.0,0.0,0.0,0.0,0.0,0.0,0.0,0.0,0.0,0.0,0.0,0.0,0.0,0.0,0.0,0.0,0.0,0.0,0.0,0.0,0.0,0.0,0.0,0.0,0.0,0.0,0.0,0.0,1.2669,1.4227,1.5439,1.6193,1.6451,1.6048,1.4986,1.3827,1.2625,1.075,0.0,0.0,0.0,0.0,0.0,0.0,0.0,0.0,0.0,0.0,0.0,0.0,0.0,0.0,0.0,0.0,0.0,0.0,0.0,0.0,0.0,0.0,0.0,0.0,0.0,0.0,0.0,0.0,0.0,0.0,0.0,0.0,0.0,0.0,0.0,0.0,0.0,0.0,0.0,0.0,0.0,0.0,0.0,0.0,0.0,0.0,0.0,0.0,0.0,0.0,0.0,0.0,0.0,0.0,0.0,0.0,0.0,0.0,0.0,0.0,0.0,0.0,0.0,0.0,0.0,0.0,0.0,0.0,0.0,0.0,0.0,0.0,0.0,0.0,0.0,0.0,0.0,0.0,0.0,0.0,0.0,0.0,0.0,0.0,0.0,0.0,0.0,0.0,0.0,0.0,0.0,0.0,0.0,0.0,0.0,0.0,0.0,0.0,0.0,0.0,0.0,0.0,1.2595,1.3791,1.5001,1.5515,1.5606,1.5221,1.4429,1.3419,1.222,1.0603,0.0,0.0,0.0,0.0,0.0,0.0,0.0,0.0,0.0,0.0,0.0,0.0,0.0,0.0,0.0,0.0,0.0,0.0,0.0,0.0,0.0,0.0,0.0,0.0,0.0,0.0,0.0,0.0,0.0,0.0,0.0,0.0,0.0,0.0,0.0,0.0,0.0,0.0,0.0,0.0,0.0,0.0,0.0,0.0,0.0,0.0,0.0,0.0,0.0,0.0,0.0,0.0,0.0,0.0,0.0,0.0,0.0,0.0,0.0,0.0,0.0,0.0,0.0,0.0,0.0,0.0,0.0,0.0,0.0,0.0,0.0,0.0,0.0,0.0,0.0,0.0,0.0,0.0,0.0,0.0,0.0,0.0,0.0,0.0,0.0,0.0,0.0,0.0,0.0,0.0,0.0,0.0,0.0,0.0,0.0,0.0,0.0,0.0,0.0,0.0,0.0,0.0,1.279,1.4043,1.5001,1.546,1.5441,1.4766,1.3992,1.3015,1.1804,0.0,0.0,0.0,0.0,0.0,0.0,0.0,0.0,0.0,0.0,0.0,0.0,0.0,0.0,0.0,0.0,0.0,0.0,0.0,0.0,0.0,0.0,0.0,0.0,0.0,0.0,0.0,0.0,0.0,0.0,0.0,0.0,0.0,0.0,0.0,0.0,0.0,0.0,0.0,0.0,0.0,0.0,0.0,0.0,0.0,0.0,0.0,0.0,0.0,0.0,0.0,0.0,0.0,0.0,0.0,0.0,0.0,0.0,0.0,0.0,0.0,0.0,0.0,0.0,0.0,0.0,0.0,0.0,0.0,0.0,0.0,0.0,0.0,0.0,0.0,0.0,0.0,0.0,0.0,0.0,0.0,0.0,0.0,0.0,0.0,0.0,0.0,0.0,0.0,0.0,0.0,0.0,0.0,0.0,0.0,0.0,0.0,0.0,0.0,0.0,0.0,0.0,1.1565,1.2869,1.4025,1.4836,1.5148,1.5038,1.4378,1.3571,1.2648,1.1565,0.0,0.0,0.0,0.0,0.0,0.0,0.0,0.0,0.0,0.0,0.0,0.0,0.0,0.0,0.0,0.0,0.0,0.0,0.0,0.0,0.0,0.0,0.0,0.0,0.0,0.0,0.0,0.0,0.0,0.0,0.0,0.0,0.0,0.0,0.0,0.0,0.0,0.0,0.0,0.0,0.0,0.0,0.0,0.0,0.0,0.0,0.0,0.0,0.0,0.0,0.0,0.0,0.0,0.0,0.0,0.0,0.0,0.0,0.0,0.0,0.0,0.0,0.0,0.0,0.0,0.0,0.0,0.0,0.0,0.0,0.0,0.0,0.0,0.0,0.0,0.0,0.0,0.0,0.0,0.0,0.0,0.0,0.0,0.0,0.0,0.0,0.0,0.0,0.0,0.0,0.0,0.0,0.0,0.0,0.0,0.0,0.0,0.0,0.0,0.0,0.0,0.0,1.1945,1.2814,1.3607,1.4418,1.4491,1.4326,1.3933,1.3157,1.2349,0.0,0.0,0.0,0.0,0.0,0.0,0.0,0.0,0.0,0.0,0.0,0.0,0.0,0.0,0.0,0.0,0.0,0.0,0.0,0.0,0.0,0.0,0.0,0.0,0.0,0.0,0.0,0.0,0.0,0.0,0.0,0.0,0.0,0.0,0.0,0.0,0.0,0.0,0.0,0.0,0.0,0.0,0.0,0.0,0.0,0.0,0.0,0.0,0.0,0.0,0.0,0.0,0.0,0.0,0.0,0.0,0.0,0.0,0.0,0.0,0.0,0.0,0.0,0.0,0.0,0.0,0.0,0.0,0.0,0.0,0.0,0.0,0.0,0.0,0.0,0.0,0.0,0.0,0.0,0.0,0.0,0.0,0.0,0.0,0.0,0.0,0.0,0.0,0.0,0.0,0.0,0.0,0.0,0.0,0.0,0.0,0.0,0.0,0.0,0.0,0.0,0.0,0.0,1.238,1.2979,1.3607,1.4418,1.4491,1.4187,1.3391,1.2846,1.2045,1.0873,0.0,0.0,0.0,0.0,0.0,0.0,0.0,0.0,0.0,0.0,0.0,0.0,0.0,0.0,0.0,0.0,0.0,0.0,0.0,0.0,0.0,0.0,0.0,0.0,0.0,0.0,0.0,0.0,0.0,0.0,0.0,0.0,0.0,0.0,0.0,0.0,0.0,0.0,0.0,0.0,0.0,0.0,0.0,0.0,0.0,0.0,0.0,0.0,0.0,0.0,0.0,0.0,0.0,0.0,0.0,0.0,0.0,0.0,0.0,0.0,0.0,0.0,0.0,0.0,0.0,0.0,0.0,0.0,0.0,0.0,0.0,0.0,0.0,0.0,0.0,0.0,0.0,0.0,0.0,0.0,0.0,0.0,0.0,0.0,0.0,0.0,0.0,0.0,0.0,0.0,0.0,0.0,0.0,0.0,0.0,0.0,0.0,0.0,0.0,0.0,0.0,0.0,1.2533,1.3052,1.3607,1.4418,1.4491,1.4118,1.319,1.2738,1.1928,1.0581,0.0,0.0,0.0,0.0,0.0,0.0,0.0,0.0,0.0,0.0,0.0,0.0,0.0,0.0,0.0,0.0,0.0,0.0,0.0,0.0,0.0,0.0,0.0,0.0,0.0,0.0,0.0,0.0,0.0,0.0,0.0,0.0,0.0,0.0,0.0,0.0,0.0,0.0,0.0,0.0,0.0,0.0,0.0,0.0,0.0,0.0,0.0,0.0,0.0,0.0,0.0,0.0,0.0,0.0,0.0,0.0,0.0,0.0,0.0,0.0,0.0,0.0,0.0,0.0,0.0,0.0,0.0,0.0,0.0,0.0,0.0,0.0,0.0,0.0,0.0,0.0,0.0,0.0,0.0,0.0,0.0,0.0,0.0,0.0,0.0,0.0,0.0,0.0,0.0,0.0,0.0,0.0,0.0,0.0,0.0,0.0,0.0,0.0,0.0,0.0,0.0,0.0,1.2593,1.3067,1.3602,1.4373,1.4446,1.4074,1.3117,1.2707,1.1907,1.0543,0.0,0.0,0.0,0.0,0.0,0.0,0.0,0.0,0.0,0.0,0.0,0.0,0.0,0.0,0.0,0.0,0.0,0.0,0.0,0.0,0.0,0.0,0.0,0.0,0.0,0.0,0.0,0.0,0.0,0.0,0.0,0.0,0.0,0.0,0.0,0.0,0.0,0.0,0.0,0.0,0.0,0.0,0.0,0.0,0.0,0.0,0.0,0.0,0.0,0.0,0.0,0.0,0.0,0.0,0.0,0.0,0.0,0.0,0.0,0.0,1.2309,1.0893,0.0,0.0,0.0,0.0,0.0,0.0,0.0,0.0,0.0,0.0,0.0,0.0,0.0,0.0,0.0,0.0,0.0,0.0,0.0,0.0,0.0,0.0,0.0,0.0,0.0,0.0,0.0,0.0,0.0,0.0,0.0,0.0,0.0,0.0,0.0,0.0,0.0,0.0,0.0,0.0,1.282,1.321,1.3568,1.4046,1.41,1.3676,1.2647,1.2463,1.1781,1.028,0.9867,0.0,0.0,0.0,0.0,0.0,0.0,0.0,0.0,0.0,0.0,0.0,0.0,0.0,0.0,0.0,0.0,0.0,0.0,0.0,0.0,0.0,0.0,0.0,0.0,0.0,0.0,0.0,0.0,0.0,0.0,0.0,0.0,0.0,0.0,0.0,0.0,0.0,0.0,0.0,0.0,0.0,0.0,0.0,0.0,0.0,0.0,0.0,0.0,0.0,0.0,0.0,0.0,0.0,0.0,0.0,0.0,0.0,0.0,0.0,1.4275,1.2888,0.0,0.0,0.0,0.0,0.0,0.0,0.0,0.0,0.0,0.0,0.0,0.0,0.0,0.0,0.0,0.0,0.0,0.0,0.0,0.0,0.0,0.0,0.0,0.0,0.0,0.0,0.0,0.0,0.0,0.0,0.0,0.0,0.0,0.0,0.0,0.0,0.0,0.0,0.0,0.0,1.2719,1.3007,1.3293,1.3627,1.3586,1.3182,1.2364,1.2147,1.1542,1.032,0.9935,0.0,0.0,0.0,0.0,0.0,0.0,0.0,0.0,0.0,0.0,0.0,0.0,0.0,0.0,0.0,0.0,0.0,0.0,0.0,0.0,0.0,0.0,0.0,0.0,0.0,0.0,0.0,0.0,0.0,0.0,0.0,0.0,0.0,0.0,0.0,0.0,0.0,0.0,0.0,0.0,0.0,0.0,0.0,0.0,0.0,0.0,0.0,0.0,0.0,0.0,0.0,0.0,0.0,1.7513,1.7949,1.824,1.8169,1.8688,1.945,1.6828,1.5684,1.5476,1.3491,0.0,0.0,0.0,0.0,0.0,0.0,0.0,0.0,0.0,0.0,0.0,0.0,0.0,0.0,0.0,0.0,0.0,0.0,0.0,0.0,0.0,0.0,1.37,1.402,1.4305,1.4296,1.3566,0.0,0.0,0.0,0.0,0.0,0.0,0.0,0.0,0.0,0.0,0.0,1.2467,1.2697,1.2858,1.3053,1.2917,1.2604,1.2087,1.1751,1.119,1.0361,0.9941,0.9486,0.0,0.0,0.0,0.0,0.0,0.0,0.0,0.0,0.0,0.0,0.0,0.0,0.0,0.0,0.0,0.0,0.0,0.0,0.0,0.0,0.0,0.0,0.0,0.0,0.0,0.0,0.0,0.0,0.0,0.0,0.0,0.0,1.4778,1.3557,0.0,0.0,0.0,0.0,0.0,0.0,0.0,0.0,0.0,0.0,0.0,0.0,0.0,1.7324,1.972,1.9917,2.0566,2.1688,2.1803,2.2025,2.2314,2.2314,2.218,2.1902,2.1143,0.0,1.7301,1.6472,0.0,0.0,0.0,0.0,0.0,0.0,0.0,0.0,0.0,0.0,0.0,0.0,0.0,0.0,0.0,0.0,0.0,0.0,0.0,0.0,0.0,0.0,1.6809,1.6862,1.6915,1.681,1.6369,1.4834,1.361,1.3795,1.3493,1.3163,0.0,0.0,0.0,0.0,0.0,0.0,1.2282,1.2341,1.2335,1.2197,1.2151,1.1936,1.145,1.1118,1.0658,1.0013,0.9378,0.8944,0.8741,0.8511,0.0,0.0,0.0,0.0,0.0,0.0,0.0,0.0,0.0,0.0,0.0,0.0,0.0,0.0,0.0,0.0,0.0,0.0,0.0,0.0,0.0,0.0,0.0,0.0,0.0,0.0,0.0,0.0,0.0,1.415,1.5433,1.5495,1.4504,1.3149,0.0,0.0,0.0,0.0,0.0,0.0,0.0,0.0,0.0,1.802,1.8471,1.9552,2.1369,2.1764,2.2224,2.2828,2.295,2.3184,2.3556,2.3556,2.3558,2.3562,2.3146,2.2177,2.0668,1.8463,1.6566,1.5028,0.0,0.0,0.0,0.0,1.4268,1.4374,1.5962,1.6334,1.6193,1.6879,0.0,0.0,0.0,0.0,0.0,0.0,0.0,1.5791,1.6224,1.7211,1.804,1.788,1.8031,1.8114,1.7865,1.6589,1.5325,1.4691,1.4008,1.351,1.3406,1.2884,0.0,0.0,0.0,1.2193,1.2055,1.2088,1.2047,1.1855,1.176,1.1565,1.1216,1.0884,1.0566,1.0307,0.984,0.9506,0.9384,0.9081,0.8878,0.0,0.0,0.0,0.0,0.0,0.0,0.0,0.0,0.0,0.0,0.0,0.0,0.0,0.0,0.0,0.0,0.0,0.0,0.0,0.0,0.0,0.0,0.0,0.0,0.0,0.0,0.0,0.0,1.486,1.6444,1.7491,1.6591,1.5205,0.0,0.0,0.0,0.0,0.0,0.0,1.8404,1.7957,1.8396,1.9982,2.0548,2.1374,2.2475,2.2965,2.3381,2.3666,2.3817,2.4129,2.4553,2.4448,2.4526,2.4699,2.4226,2.3817,2.3227,2.0311,1.8589,1.7668,1.6563,1.5701,1.518,1.6,1.6347,1.6604,1.8143,1.8469,1.8386,1.9272,1.9099,1.8444,1.7852,0.0,0.0,0.0,0.0,1.7573,1.766,1.8473,1.9213,1.9033,1.9057,1.9068,1.8814,1.7924,1.6852,1.5687,1.4668,1.3922,1.3695,1.2997,0.0,1.2073,1.1979,1.192,1.183,1.1837,1.1798,1.1635,1.1481,1.1293,1.1088,1.0698,1.0476,1.0476,1.0171,0.9948,0.9846,0.9601,0.9436,0.9324,0.0,0.0,0.0,0.0,0.0,0.0,0.0,0.0,0.0,0.0,0.0,0.0,0.0,0.0,0.0,0.0,0.0,0.0,0.0,0.0,0.0,0.0,0.0,0.0,0.0,0.0,0.0,0.0,0.0,1.9234,1.8554,0.0,0.0,0.0,0.0,1.6695,1.69,1.8483,2.1782,2.0907,2.0989,2.2456,2.2545,2.2976,2.3817,2.3827,2.4411,2.5465,2.5482,2.575,2.626,2.5933,2.5632,2.5326,2.4658,2.418,2.3778,2.244,2.0995,1.9523,1.9059,1.8116,1.7071,1.7954,1.8376,1.8727,2.0012,2.0478,2.0461,2.0511,1.9563,1.8402,1.8347,1.7779,0.0,0.0,1.8545,1.8967,1.9665,2.0447,2.1073,2.1048,2.0565,1.9934,1.9312,1.8386,1.7414,1.6597,1.5517,1.4478,1.365,0.0,1.3191,1.2476,1.2222,1.1967,1.1659,1.1516,1.1444,1.1413,1.1172,1.1015,1.1002,1.0463,1.0129,1.0129,0.9876,0.9715,0.9715,0.9702,0.9674,0.9674,0.9647,0.0,0.0,0.0,0.0,0.0,0.0,0.0,0.0,0.0,0.0,0.0,0.0,0.0,0.0,0.0,0.0,0.0,0.0,0.0,0.0,0.0,0.0,0.0,0.0,0.0,0.0,0.0,0.0,1.8753,1.9202,0.0,1.8318,1.8508,1.8728,1.8856,1.9448,2.06,2.2407,2.2366,2.2755,2.3749,2.3783,2.4046,2.4608,2.4608,2.4811,2.52,2.52,2.5307,2.549,2.5373,2.5257,2.514,2.4891,2.4701,2.456,2.3854,2.2543,2.0978,2.0836,2.0312,1.9735,2.0298,2.0566,2.0726,2.1419,2.1493,2.1312,2.1312,2.0942,2.053,2.053,2.0166,1.982,2.0127,2.0305,2.0518,2.0774,2.1081,2.1238,2.0887,2.0466,1.9917,1.9114,1.8316,1.7521,1.6724,1.5847,1.5108,1.4623,1.3708,1.2904,1.2473,1.1855,1.149,1.1537,1.1422,1.1334,1.1334,1.1244,1.1114,1.0899,1.0676,1.0483,1.0303,1.02,1.0074,0.9893,0.9741,0.9697,0.9817,0.953,0.9424,0.0,0.0,0.0,0.0,0.0,0.0,0.0,0.0,0.0,0.0,0.0,0.0,0.0,0.0,0.0,0.0,0.0,0.0,0.0,0.0,0.0,0.0,0.0,0.0,0.0,1.7815,1.9447,1.9683,2.082,2.1239,2.0367,2.0606,2.0942,2.126,2.2051,2.2848,2.3579,2.399,2.4429,2.4906,2.4837,2.4915,2.5175,2.506,2.506,2.5175,2.5175,2.5241,2.5357,2.5255,2.512,2.503,2.4911,2.4757,2.451,2.4239,2.3376,2.2172,2.2215,2.2008,2.1709,2.1745,2.1771,2.1812,2.1958,2.1851,2.1659,2.1531,2.1499,2.1472,2.1368,2.117,2.0971,2.0851,2.0865,2.0891,2.0891,2.0917,2.0838,2.041,1.9997,1.9497,1.8694,1.8041,1.741,1.6754,1.6037,1.5369,1.494,1.4027,1.3226,1.2909,1.2157,1.1668,1.1846,1.1556,1.1361,1.1433,1.1344,1.1217,1.0991,1.0872,1.0729,1.0539,1.0527,1.0451,1.029,1.01,1.0063,1.0203,0.9884,0.978,0.9873,0.0,0.0,0.0,0.0,0.0,0.0,0.0,0.0,0.0,0.0,0.0,0.0,0.0,0.0,0.0,0.0,0.0,0.0,0.0,0.0,0.0,0.0,0.0,1.7405,1.9512,2.1401,2.228,2.353,2.4175,2.3732,2.3678,2.3701,2.3842,2.4519,2.5061,2.5406,2.5797,2.6011,2.6011,2.5696,2.5498,2.5498,2.5166,2.5136,2.5452,2.5482,2.5646,2.6036,2.5686,2.5365,2.5011,2.4703,2.4163,2.3581,2.3581,2.3368,2.3121,2.3251,2.3091,2.2796,2.2116,2.1923,2.1945,2.1668,2.16,2.1539,2.1203,2.1097,2.1042,2.0689,2.0607,2.0525,2.017,2.0088,2.0088,2.0088,2.0088,1.9991,1.973,1.9244,1.871,1.8104,1.7569,1.708,1.6749,1.6063,1.5282,1.4572,1.443,1.4269,1.3884,1.3136,0.0,1.2626,1.1954,1.1521,1.1708,1.1504,1.1339,1.1339,1.105,1.0863,1.085,1.085,1.085,1.0838,1.0838,1.0838,1.082,1.0838,1.082,1.0803,0.0,0.0,0.0,0.0,0.0,0.0,0.0,0.0,0.0,0.0,0.0,0.0,0.0,0.0,0.0,0.0,0.0,0.0,0.0,0.0,0.0,1.7789,1.9523,1.954,2.1384,2.3074,2.3955,2.4839,2.5389,2.5335,2.5173,2.5177,2.5444,2.5441,2.5575,2.5943,2.6086,2.6151,2.6151,2.5771,2.5565,2.5565,2.5,2.4781,2.4828,2.461,2.4548,2.4626,2.4286,2.4115,2.3976,2.3666,2.3404,2.3253,2.3253,2.3177,2.3091,2.2883,2.2601,2.2257,2.1836,2.1559,2.1411,2.1326,2.1298,2.1283,2.1194,2.1164,2.1108,2.0769,2.0557,2.0302,1.999,1.9691,1.952,1.952,1.937,1.915,1.8827,1.8502,1.8068,1.7489,1.7081,1.6744,1.6473,1.6059,1.5718,1.5507,1.501,1.4508,1.4206,1.3636,1.3175,1.2993,1.2775,1.2577,1.2433,1.2367,1.2319,1.2319,1.2237,1.2083,1.19,1.1888,1.1802,1.1607,1.1595,1.1518,1.1306,1.146,1.1364,0.0,0.0,0.0,0.0,0.0,0.0,0.0,0.0,0.0,0.0,0.0,0.0,0.0,0.0,0.0,0.0,0.0,0.0,0.0,0.0,0.0,0.0,2.0117,2.1978,2.2468,2.3534,2.4606,2.5575,2.613,2.6471,2.6691,2.6408,2.6263,2.6359,2.613,2.6077,2.6157,2.6042,2.5944,2.5944,2.543,2.5126,2.5126,2.46,2.4338,2.4338,2.4144,2.4054,2.4054,2.3558,2.3279,2.3107,2.2663,2.2386,2.2261,2.2261,2.2261,2.2281,0.0,0.0,0.0,0.0,2.0723,2.0554,2.0442,2.0485,2.0554,2.0442,2.0386,2.0342,2.0055,1.9837,1.9635,1.9316,1.9084,1.8926,1.8926,1.8821,1.8617,1.8317,1.8042,1.7697,1.7218,1.6897,1.6658,1.6508,1.6332,0.0,1.6086,1.5591,1.5149,1.4992,1.4425,1.3943,1.3786,1.3473,1.3208,1.3061,1.293,1.288,1.288,1.275,0.0,0.0,0.0,1.2346,1.2079,1.1964,0.0,0.0,0.0,1.1468,1.0959,1.0783,0.0,0.0,1.0629,1.0613,0.0,0.0,0.0,0.0,0.0,0.0,0.0,0.0,0.0,0.0,0.0,0.0,0.0,0.0,0.0,0.0,2.257,2.4352,2.536,2.5481,2.5836,2.692,2.7133,2.7275,2.753,2.7259,2.6898,2.6623,2.6534,2.636,2.6038,2.5689,0.0,0.0,0.0,2.438,2.438,2.4028,2.3836,2.3822,2.3793,2.3779,2.3732,2.3121,2.2626,2.2295,2.1701,2.1294,2.0982,2.0982,2.0951,2.0987,2.1644,2.1673,2.1234,2.007,1.9632,1.9622,1.9333,0.0,0.0,1.928,1.9216,1.9158,1.8881,1.8794,1.8735,1.8386,1.8298,1.8298,1.8298,1.8298,1.824,1.7989,1.7774,1.7502,1.7215,1.6923,1.6742,1.6742,1.6718,1.6622,1.6396,1.6115,1.5922,1.5897,1.5294,1.481,1.4786,1.4183,1.3702,1.3678,0.0,0.0,1.328,1.3027,1.288,1.288,1.2848,1.2697,1.2405,1.2143,1.1903,1.1663,1.1598,1.1302,1.0798,1.0556,1.0417,1.0366,1.0355,1.0393,0.0,0.0,0.0,0.0,0.0,0.0,0.0,0.0,0.0,0.0,0.0,0.0,0.0,0.0,0.0,2.1644,2.3464,2.4892,2.542,2.567,2.6046,2.663,2.6941,2.7035,2.6766,2.6653,2.6444,2.6056,2.5845,2.5677,2.5619,2.5047,2.4699,2.4699,2.3998,2.3616,2.3616,2.301,2.2692,2.2692,2.2448,0.0,2.2293,2.1878,2.1568,2.1278,2.087,2.0535,2.0297,2.0297,2.0125,1.9928,2.0383,2.0371,1.9991,1.9476,1.9287,1.9279,1.8997,1.8932,1.8932,1.865,1.8561,1.8532,1.8252,1.8165,0.0,1.7784,1.7655,1.7655,1.7655,1.7655,1.7655,1.7596,1.756,1.7494,1.7436,1.7201,1.702,1.702,1.6839,1.6682,1.6634,1.6404,1.6151,1.5922,1.5765,1.5584,1.5378,1.5209,1.5028,1.4823,1.4545,1.4389,1.4389,1.4147,1.399,1.399,1.3791,1.3461,1.2964,1.2751,1.2395,1.1932,1.1503,1.112,1.0809,1.0337,1.0083,1.0071,1.0138,1.0129,0.0,0.0,0.0,0.0,0.0,0.0,0.0,0.0,0.0,0.0,0.0,1.753,1.9067,0.0,2.1775,2.3278,2.4526,2.5437,2.5746,2.589,2.6106,2.6443,2.6643,2.6665,2.6471,2.6271,2.5855,2.5137,2.4792,2.4477,2.4204,2.3694,2.3406,2.3406,2.2893,2.2585,2.2585,2.2269,2.2102,2.2102,2.1911,2.1846,2.1846,2.1334,2.0951,2.0684,2.0218,1.9844,1.9596,1.9596,1.9488,1.938,1.9562,1.9468,1.9175,1.9026,1.8933,1.8896,1.8636,1.8624,1.8673,1.8282,1.8146,1.8104,1.7821,1.7755,1.7696,1.7537,1.7508,1.7508,1.7508,1.7508,1.7508,1.7508,1.7508,1.7508,1.7508,1.7382,1.7286,1.7286,1.7177,1.7044,1.6923,1.6791,1.6561,1.6151,1.5997,1.5837,1.5716,1.5692,1.5644,1.5511,1.527,1.505,1.4898,1.4405,1.4034,1.3912,1.3432,1.2905,1.237,1.2005,1.1565,1.1002,1.0732,1.0413,0.9994,0.9723,0.9524,0.9353,0.9379,0.9534,0.0,0.0,0.0,0.0,0.0,0.0,0.0,1.6464,1.7318,1.8255,1.8914,1.9741,2.1254,2.2053,2.2968,2.4501,2.5123,2.5528,2.5717,2.5666,2.5643,2.5809,2.5984,2.6098,2.5941,2.5639,2.5052,2.4111,2.3696,2.3254,2.2807,2.2336,2.2104,2.2104,2.176,2.16,2.16,2.16,2.16,2.16,2.16,2.16,2.1553,2.0962,2.0512,2.0242,1.9636,1.9281,1.9104,1.9104,1.9104,1.9104,1.9104,1.8983,1.879,1.879,1.879,1.8753,1.8456,1.8505,1.8633,1.8149,1.7943,1.7859,1.7653,1.7556,1.7508,1.7508,1.7508,1.7508,1.7508,1.7556,1.7593,1.7593,1.7629,1.7677,1.7677,1.7599,1.7593,1.7593,1.7544,1.7448,1.7201,1.7088,1.6867,1.6441,1.6139,1.597,1.5916,1.5841,1.5817,1.5725,1.5498,1.5189,1.487,1.4143,1.3604,1.3329,1.2649,1.2028,1.1485,1.094,1.0452,0.9954,0.9829,0.958,0.9137,0.908,0.8921,0.8669,0.8697,0.8929,1.483,1.5205,1.5844,1.6133,1.6415,1.6779,0.0,1.8997,2.0581,2.107,2.2233,2.3246,2.3442,2.371,2.4018,2.4473,2.4469,2.4496,2.4599,2.4299,2.3957,2.3772,2.4587,2.4914,2.4317,2.4216,2.3901,2.3188,2.286,2.2579,2.2281,2.1657,2.1311,2.1311,2.1012,2.0804,2.0804,2.0804,2.0804,2.0804,2.0804,2.0804,2.0804,2.0399,2.0037,1.9765,1.9191,1.9022,1.9104,1.9104,1.9104,1.9104,1.9104,1.9092,1.9068,1.9068,1.9068,1.9032,1.8766,1.8662,1.8638,1.8348,1.8082,1.7895,1.7871,1.7702,1.7508,1.7508,1.7508,1.7508,1.7508,1.7689,1.7859,1.7859,1.8052,1.8203,1.8203,1.801,1.7859,1.7859,1.7677,1.7508,1.7472,1.7006,1.667,1.6666,1.6416,1.6166,1.5932,1.5704,1.5428,1.5122,1.4866,1.4495,1.3997,1.3382,1.2915,1.271,1.2116,1.1541,1.1,1.0457,1.0043,0.974,0.9272,0.8993,0.8941,0.8699,0.8569,0.8511,0.8647,0.8667,1.5943,1.6561,1.7385,1.8306,1.8966,1.9624,2.0452,2.158,2.2487,2.2853,2.3352,2.3802,2.4,2.3868,2.3881,2.4302,2.4086,2.3959,2.42,2.3741,2.3251,2.2831,2.3005,2.3189,2.3149,2.2984,2.2623,2.1952,2.1793,2.1682,2.1558,2.1307,2.1213,2.1384,2.1243,2.1172,2.1172,2.0768,2.0579,2.0579,2.0215,2.0063,2.004,1.9901,1.9658,1.9392,1.885,1.8757,1.8965,1.8855,1.8924,1.9104,1.9104,1.9201,1.9322,1.9165,1.9104,1.9092,1.8983,1.8947,1.8899,1.8601,1.8475,1.8354,1.8197,1.8046,1.798,1.798,1.798,1.798,1.798,1.8064,1.8118,1.8118,1.8203,1.83,1.83,1.8203,1.8118,1.8118,1.7751,1.7452,1.7452,1.6814,1.6314,1.6356,1.6113,1.5858,1.5579,1.5363,1.4957,1.4315,1.3869,1.3454,1.3022,1.248,1.1956,1.1572,1.1072,1.0516,1.0004,0.9612,0.9272,0.901,0.8774,0.8669,0.8669,0.8564,0.8526,0.8621,0.8743,0.8852,1.6694,1.7599,1.8722,2.0047,2.1053,2.1954,2.2888,2.346,2.3851,2.4097,2.391,2.3747,2.3839,2.3507,2.3321,2.3669,2.3539,2.3458,2.3694,2.3227,2.2671,2.2139,2.1788,2.1655,2.1869,2.1918,2.1699,2.1147,2.1172,2.1172,2.1099,2.1172,2.1305,2.1474,2.1402,2.133,2.133,2.0662,2.032,2.032,1.9842,1.9611,1.9611,1.9471,1.93,1.9016,1.8552,1.849,1.876,1.8547,1.8591,1.8816,1.8912,1.9144,1.9336,1.9169,1.9152,1.9201,1.9128,1.9104,1.908,1.8886,1.8778,1.865,1.8456,1.8348,1.83,1.83,1.83,1.83,1.83,1.8348,1.8396,1.8396,1.8395,1.8392,1.8392,1.8239,1.8118,1.8118,1.7629,1.7199,1.7199,1.6436,1.5804,1.5744,1.537,1.507,1.5027,1.4593,1.402,1.3295,1.2827,1.2413,1.2128,1.1611,1.1109,1.0681,1.0185,0.9724,0.9333,0.9041,0.8801,0.8608,0.8675,0.8696,0.8696,0.8736,0.8784,0.8899,0.898,0.9137,1.6944,1.8291,1.9933,2.1068,2.2153,2.3111,2.3719,2.436,2.4834,2.4687,2.417,2.358,2.3124,2.2763,2.2472,2.2384,2.2576,2.2745,2.2745,2.249,2.2127,2.1595,2.1063,2.064,2.0386,2.1063,2.1401,2.1111,2.1341,2.1377,2.1111,2.1353,2.151,2.151,2.1138,2.0909,2.0909,2.0269,1.9929,1.9929,1.9702,1.9611,1.9576,1.9192,1.886,1.8616,1.8338,1.8295,1.8377,1.8115,1.8033,1.8066,1.8474,1.88,1.9021,1.9072,1.9261,1.9455,1.9201,1.9104,1.9104,1.9092,1.8923,1.8686,1.8674,1.8493,1.83,1.83,1.83,1.83,1.83,1.8481,1.8705,1.8705,1.8645,1.8579,1.8579,1.8094,1.7625,1.7625,1.7139,1.6713,1.6713,1.5897,1.5111,1.48,1.4059,1.3756,1.4269,1.3289,1.2441,1.2089,1.1802,1.1554,1.1341,1.0835,1.0456,1.0312,0.9754,0.9423,0.9388,0.9092,0.8899,0.8899,0.909,0.9187,0.9187,0.9308,0.9383,0.939,0.9396,0.9449,1.7939,1.9349,2.0753,2.1786,2.2983,2.3922,2.4133,2.4482,2.451,2.3614,2.2584,2.1615,2.095,2.0471,2.0218,2.0309,2.0813,2.1221,2.1347,2.1009,2.0732,2.0592,2.0151,1.9967,2.0267,2.0521,2.0749,2.0833,2.1087,2.1353,2.1619,2.1473,2.1458,2.1624,2.1254,2.1031,2.1031,2.0374,1.9832,1.9412,1.851,1.8072,1.8082,1.7942,1.783,1.7746,1.7747,1.7819,1.795,1.7939,1.8067,1.8263,1.8405,1.889,1.944,1.9303,1.9465,1.9709,1.9261,1.9104,1.9104,1.9104,1.9044,1.9007,1.9189,1.9177,1.914,1.9301,1.935,1.9314,1.9152,1.9165,1.9173,1.8915,1.8824,1.8687,1.8231,1.7772,1.7358,1.6947,1.6212,1.5582,1.5329,1.4509,1.3609,1.2823,1.2795,1.2804,1.2704,1.1992,1.1412,1.1146,1.0907,1.0624,1.0333,1.0133,0.9939,0.9717,0.9517,0.9403,0.9403,0.9289,0.9232,0.9232,0.9308,0.9335,0.9335,0.9383,0.941,0.941,0.9483,0.9557,1.882,2.011,2.1289,2.2383,2.337,2.4058,2.3913,2.3919,2.3633,2.2504,2.0973,1.9695,1.9071,1.8534,1.827,1.8586,1.9393,2.0092,2.04,2.0171,1.9944,1.9924,1.9665,1.9647,2.0063,2.0158,2.0383,2.0821,2.0946,2.1258,2.176,2.1413,2.1356,2.1601,2.1143,2.0797,2.0646,1.999,1.9327,1.8606,1.7811,1.7379,1.7308,1.7308,1.7308,1.7298,1.7319,1.7375,1.7457,1.7459,1.7663,1.7973,1.8095,1.8609,1.9323,1.9294,1.9527,1.9786,1.9378,1.9189,1.9104,1.9104,1.9165,1.9285,1.9443,1.9576,1.9684,1.9833,1.9814,1.9633,1.9453,1.9352,1.9154,1.8757,1.8448,1.8084,1.7386,1.6813,1.628,1.5735,1.4985,1.4401,1.4166,1.3328,1.2426,1.1573,1.1633,1.1705,1.1536,1.1179,1.0838,1.0576,1.0331,1.0095,0.9832,0.9754,0.964,0.9417,0.941,0.941,0.941,0.941,0.941,0.941,0.9435,0.9462,0.9462,0.951,0.9537,0.9544,0.9639,0.9686,1.9605,2.0578,2.1583,2.2741,2.334,2.3554,2.3207,2.2811,2.2216,2.1336,1.9374,1.7755,1.744,1.6903,1.6667,1.7196,1.8271,1.9187,1.9745,1.9824,1.9744,1.9575,1.9623,1.9701,1.9724,1.9946,2.0379,2.1041,2.0959,2.1107,2.1574,2.1271,2.1148,2.1349,2.0758,2.0221,1.973,1.9132,1.8428,1.759,1.757,1.7449,1.7258,1.7238,1.7238,1.7228,1.7061,1.696,1.694,1.6718,1.6865,1.7248,1.7575,1.8054,1.8685,1.9127,1.9455,1.9697,1.9522,1.9338,1.9152,1.9152,1.9322,1.9527,1.9507,1.97,1.9872,1.9896,1.9582,1.9291,1.9279,1.9011,1.862,1.8216,1.7565,1.6844,1.6099,1.5259,1.4517,1.4089,1.3568,1.3177,1.3177,1.2396,1.156,1.1048,1.0695,1.0575,1.0742,1.0753,1.0658,1.034,1.0116,0.9974,0.9825,0.9713,0.9571,0.9422,0.9437,0.943,0.943,0.943,0.943,0.943,0.9544,0.9618,0.9618,0.9724,0.9792,0.9792,0.9792,0.9792,2.0227,2.1004,2.1641,2.2157,2.2506,2.2587,2.2075,2.1437,2.061,1.9341,1.7245,1.5418,1.4729,1.4004,1.3711,1.4337,1.5532,1.6592,1.7223,1.7943,1.8498,1.8679,1.8927,1.9353,2.0011,2.0138,2.0472,2.1265,2.1121,2.1115,2.1437,2.1067,2.0757,2.0495,1.9848,1.9315,1.8909,1.8308,1.7877,1.7657,1.7068,1.674,1.6683,1.6538,1.6461,1.6497,1.6685,1.6708,1.656,1.6821,1.71,1.7444,1.7512,1.8097,1.8928,1.9035,1.9347,1.9642,1.9366,1.9458,1.9709,1.9709,1.9724,1.9787,1.9677,1.9683,1.9743,1.9679,1.9393,1.9037,1.8822,1.8289,1.7741,1.732,1.6668,1.5945,1.5185,1.4423,1.3684,1.3039,1.2281,1.1736,1.1736,1.1314,1.0935,1.0802,1.0696,1.0601,1.0438,1.0435,1.0372,1.0315,1.0243,1.0209,1.0168,0.9994,0.9893,0.9852,0.9744,0.9707,0.9707,0.9707,0.9707,0.9707,0.9747,0.9737,0.9737,0.9771,0.9792,0.9792,0.9792,0.9792,2.12,2.1531,2.1586,2.1934,2.1751,2.1258,2.0389,1.9452,1.836,1.6944,1.4885,1.3154,1.2482,1.2041,1.2028,1.2781,1.4227,1.5562,1.6536,1.7295,1.7942,1.8403,1.8832,1.9434,2.025,2.0396,2.0601,2.0974,2.0949,2.0998,2.1151,2.0686,2.0206,1.9807,1.9319,1.881,1.8339,1.7842,1.75,1.7441,1.6893,1.6575,1.6471,1.6273,1.6178,1.6214,1.6391,1.6429,1.6323,1.6568,1.6847,1.7151,1.6977,1.7477,1.8258,1.8247,1.8511,1.8886,1.8852,1.8935,1.9027,1.9114,1.9215,1.9264,1.9027,1.9038,1.9093,1.8914,1.8563,1.8145,1.767,1.7106,1.6514,1.598,1.5394,1.4762,1.4032,1.3369,1.2711,1.2069,1.1545,1.1163,1.1067,1.0919,1.0765,1.0698,1.0684,1.0663,1.0493,1.0473,1.0473,1.0473,1.0412,1.0403,1.0403,1.0236,1.0116,1.0116,1.0073,0.9992,0.9893,0.9893,0.9859,0.9792,0.9792,0.9792,0.9792,0.9792,0.9792,0.9792,0.9859,0.9893,2.2109,2.1811,2.1388,2.174,2.0985,1.979,1.8559,1.733,1.6006,1.447,1.2598,1.1081,1.0639,1.0647,1.1004,1.1841,1.3495,1.5113,1.6399,1.7072,1.7698,1.8341,1.8943,1.9618,2.0293,2.0561,2.0587,2.0433,2.0613,2.0706,2.0729,2.0164,1.9645,1.9222,1.8922,1.8491,1.795,1.7588,1.7293,1.7142,1.6944,1.6745,1.6556,1.6358,1.6264,1.6264,1.6235,1.6226,1.6216,1.6153,1.6275,1.6523,1.6178,1.6426,1.6981,1.7007,1.7288,1.7685,1.7886,1.7816,1.7728,1.8051,1.8267,1.8328,1.7903,1.7938,1.8026,1.765,1.7218,1.6785,1.6124,1.5629,1.5141,1.4493,1.4003,1.3511,1.286,1.2314,1.1776,1.1323,1.1213,1.1124,1.0961,1.0941,1.0894,1.0738,1.0718,1.0711,1.0691,1.0684,1.0684,1.0684,1.0602,1.0521,1.0521,1.0392,1.0342,1.0342,1.0322,1.0222,1.0055,1.0049,0.9988,0.9852,0.9852,0.9852,0.9852,0.9852,0.9852,0.9852,0.9988,1.0049,2.1661,2.1219,2.0748,2.0515,1.984,1.8842,1.7403,1.6033,1.4548,1.2784,1.0996,0.9686,0.9439,0.9382,0.9557,1.0223,1.1737,1.3174,1.4152,1.5665,1.699,1.7751,1.8527,1.92,1.9698,1.978,1.9893,2.0078,2.0138,2.0066,1.9844,1.9723,1.9373,1.8838,1.8222,1.7864,1.7749,1.7511,1.7369,1.7369,1.7152,1.7029,1.6991,1.6783,1.6698,1.6689,1.6509,1.647,1.6415,1.5925,1.5744,1.5744,1.5354,1.5274,1.5381,1.5416,1.5877,1.6407,1.5806,1.5983,1.6644,1.7627,1.7767,1.7403,1.6736,1.6554,1.6442,1.57,1.5239,1.4955,1.4848,1.4244,1.3682,1.3539,1.2975,1.2445,1.2338,1.1888,1.1488,1.139,1.1281,1.1193,1.1166,1.1159,1.1077,1.0894,1.0874,1.0826,1.0704,1.0684,1.0684,1.0684,1.0697,1.0677,1.0677,1.0541,1.0453,1.0453,1.0344,1.027,1.0243,1.0243,1.0229,1.0202,1.0202,1.0202,1.0202,1.0202,1.0202,1.0202,1.0229,1.0243,2.1658,2.113,2.0568,2.0344,1.933,1.7828,1.5882,1.4194,1.25,1.0615,0.9235,0.83,0.8102,0.849,0.8999,0.9497,1.0986,1.2494,1.3693,1.5117,1.6442,1.7558,1.8345,1.8995,1.9564,1.9745,1.9765,1.9632,1.9642,1.9592,1.9453,1.9133,1.8825,1.8569,1.8081,1.7803,1.769,1.7595,1.7491,1.7388,1.7209,1.7105,1.7095,1.6897,1.6802,1.6765,1.647,1.6241,1.5967,1.5371,1.4897,1.4449,1.4036,1.3817,1.3781,1.3603,1.3888,1.4315,1.3923,1.3923,1.4208,1.4769,1.5195,1.5407,1.46,1.4386,1.4315,1.3959,1.3745,1.3567,1.3361,1.3011,1.2653,1.2474,1.2151,1.1907,1.1907,1.1708,1.1511,1.1511,1.145,1.1375,1.1329,1.1315,1.1268,1.1084,1.1056,1.1029,1.0962,1.0948,1.0894,1.0738,1.0684,1.0684,1.0684,1.0656,1.0609,1.0609,1.0548,1.0473,1.0424,1.0392,1.0358,1.0315,1.0315,1.0315,1.0315,1.0315,1.0315,1.0315,1.0358,1.0392,2.1402,2.0848,2.0272,2.0162,1.8796,1.6851,1.4579,1.267,1.0847,0.8824,0.7793,0.7205,0.7013,0.7814,0.8604,0.8931,1.0357,1.1917,1.3343,1.4477,1.5748,1.7272,1.8067,1.871,1.9294,1.9553,1.9561,1.9194,1.9153,1.9153,1.9153,1.8715,1.8458,1.8458,1.8182,1.7914,1.7704,1.7573,1.7413,1.7224,1.7086,1.7058,1.7011,1.6973,1.686,1.6786,1.6333,1.5861,1.5317,1.461,1.3865,1.3078,1.2597,1.2359,1.2209,1.1922,1.2029,1.2323,1.2244,1.2101,1.1929,1.1749,1.2495,1.3274,1.2567,1.2352,1.2323,1.2323,1.2359,1.233,1.2015,1.2015,1.1979,1.1691,1.1584,1.1584,1.1584,1.1584,1.1584,1.1584,1.1584,1.1579,1.1463,1.1443,1.1389,1.1268,1.1247,1.1234,1.12,1.12,1.1097,1.0765,1.0738,1.0725,1.0691,1.0684,1.0684,1.0684,1.0684,1.0663,1.0548,1.0541,1.0487,1.0378,1.0378,1.0378,1.0378,1.0378,1.0378,1.0378,1.0487,1.0541,2.0281,1.9936,1.9498,1.9065,1.7765,1.6087,1.403,1.232,1.0511,0.8255,0.729,0.6802,0.6587,0.7274,0.7887,0.7927,0.9197,1.0588,1.1841,1.3079,1.4557,1.6401,1.7294,1.7996,1.8474,1.8713,1.8796,1.8755,1.8755,1.8755,1.8755,1.8695,1.8686,1.8686,1.8258,1.7887,1.7694,1.7146,1.6762,1.6575,1.6764,1.6817,1.6855,1.7188,1.7141,1.678,1.6184,1.5457,1.4597,1.3567,1.267,1.1889,1.1372,1.0995,1.0707,1.0671,1.0887,1.1096,1.0815,1.0887,1.0989,1.0347,1.0881,1.1743,1.1276,1.1168,1.1103,1.0815,1.093,1.1152,1.1116,1.1368,1.1655,1.1619,1.1584,1.1584,1.1584,1.1584,1.1584,1.1584,1.1584,1.1613,1.1563,1.1563,1.1545,1.1396,1.1369,1.1356,1.1213,1.12,1.1138,1.0914,1.0894,1.084,1.0698,1.0684,1.0684,1.0684,1.0684,1.0677,1.0664,1.0664,1.0697,1.0644,1.0644,1.0644,1.0644,1.0644,1.0644,1.0644,1.0697,1.0664,1.8763,1.8705,1.83,1.7832,1.6765,1.5227,1.293,1.1222,0.9593,0.772,0.6861,0.642,0.6337,0.6927,0.7441,0.7441,0.8543,0.9828,1.1085,1.2342,1.3856,1.574,1.666,1.7435,1.8106,1.8402,1.8582,1.8705,1.8714,1.8714,1.8714,1.8714,1.8551,1.8296,1.7864,1.7378,1.6818,1.6258,1.5875,1.5615,1.5923,1.608,1.608,1.6233,1.6242,1.6042,1.5001,1.4244,1.3617,1.2634,1.172,1.0996,1.0638,1.0294,1.0005,1.0005,1.0064,1.0067,0.9958,0.9942,0.9915,0.9627,0.9843,1.0203,1.0023,0.9987,0.9987,1.0095,1.0419,1.075,1.0936,1.1296,1.1604,1.1692,1.1712,1.1739,1.1864,1.1884,1.1884,1.1884,1.1884,1.1884,1.1884,1.1809,1.1692,1.1667,1.1586,1.1504,1.1443,1.1436,1.1382,1.1233,1.1022,1.0853,1.0698,1.0684,1.0684,1.0684,1.0684,1.0684,1.0684,1.0684,1.0684,1.0684,1.0684,1.0684,1.0684,1.0684,1.0684,1.0684,1.0684,1.0684,1.7107,1.7219,1.6906,1.6685,1.559,1.4035,1.1964,1.031,0.8793,0.7323,0.6572,0.62,0.62,0.6691,0.7084,0.7084,0.8118,0.926,1.0291,1.164,1.3098,1.467,1.5863,1.6831,1.7567,1.8144,1.8553,1.8705,1.8551,1.8428,1.8305,1.8183,1.801,1.7846,1.7159,1.6476,1.5705,1.5098,1.4649,1.4346,1.483,1.5045,1.5045,1.516,1.516,1.4968,1.3845,1.3035,1.2488,1.1689,1.094,1.0281,1.0124,0.9891,0.9709,0.9709,0.9654,0.9578,0.9578,0.9459,0.9356,0.9356,0.9334,0.9302,0.9302,0.9302,0.9385,0.9708,1.0184,1.0723,1.1203,1.153,1.1775,1.1877,1.1898,1.1932,1.2077,1.2098,1.2098,1.2098,1.2098,1.2098,1.2098,1.1972,1.1884,1.18,1.1712,1.1631,1.1626,1.1584,1.1558,1.1409,1.1206,1.0982,1.0867,1.0853,1.0853,1.0853,1.0779,1.0752,1.0752,1.0711,1.0684,1.0684,1.0684,1.0684,1.0684,1.0684,1.0684,1.0684,1.0684,1.0684,1.5422,1.5533,1.531,1.5714,1.4209,1.2348,1.1257,0.9717,0.8188,0.7042,0.6481,0.62,0.62,0.6534,0.6806,0.6806,0.7883,0.8855,0.926,1.0749,1.2143,1.3022,1.4765,1.6157,1.6755,1.7946,1.8714,1.8714,1.8255,1.7846,1.7445,1.6985,1.6944,1.7404,1.6174,1.5185,1.4541,1.3576,1.3028,1.283,1.3416,1.3722,1.3722,1.4145,1.4107,1.3683,1.2842,1.2076,1.1289,1.0732,1.0222,0.9786,0.9715,0.9709,0.9709,0.9709,0.9703,0.9703,0.9703,0.9627,0.9487,0.9487,0.94,0.9302,0.9302,0.9302,0.9329,0.9449,1.0162,1.1083,1.1874,1.2091,1.2098,1.2098,1.2098,1.2098,1.2098,1.2098,1.2098,1.2098,1.2098,1.2098,1.2098,1.2098,1.2043,1.182,1.1793,1.1739,1.164,1.1584,1.1558,1.1409,1.1389,1.1321,1.1206,1.1193,1.1193,1.1193,1.1023,1.0914,1.0914,1.0765,1.0684,1.0684,1.0684,1.0684,1.0684,1.0684,1.0684,1.0684,1.0684,1.0684,1.2429,1.2741,1.2683,1.2663,1.1845,1.076,0.9677,0.8603,0.7584,0.6754,0.6383,0.62,0.62,0.6426,0.6746,0.7195,0.7966,0.8789,0.9651,1.0697,1.1813,1.2965,1.5134,1.6812,1.7539,1.8276,1.8551,1.8255,1.7846,1.7232,1.6484,1.5744,1.5414,1.5538,1.4822,1.3952,1.301,1.2338,1.192,1.1791,1.225,1.2456,1.2456,1.261,1.2572,1.2417,1.1572,1.1068,1.0791,1.0324,1.0075,0.9921,0.9921,0.9911,0.9911,0.9911,0.9856,0.9786,0.9786,0.9709,0.9633,0.9514,0.9459,0.9427,0.9427,0.9427,0.9564,1.0242,1.0685,1.1089,1.1874,1.2098,1.2125,1.2196,1.2254,1.2244,1.2338,1.2366,1.2366,1.2366,1.2366,1.2366,1.2366,1.2284,1.2241,1.2155,1.2054,1.1972,1.1962,1.1925,1.1941,1.1894,1.1887,1.1696,1.1234,1.12,1.12,1.12,1.1152,1.1097,1.1097,1.0921,1.084,1.084,1.0738,1.0684,1.0684,1.0684,1.0684,1.0684,1.0684,1.0684,1.0002,1.042,1.0461,1.048,0.9904,0.9177,0.8524,0.7728,0.6974,0.6483,0.6417,0.6374,0.6238,0.6572,0.6984,0.7337,0.8212,0.9044,0.9556,1.066,1.2011,1.358,1.5422,1.6991,1.8059,1.8313,1.8265,1.7805,1.7067,1.6246,1.5324,1.4407,1.3761,1.3384,1.32,1.2648,1.1785,1.1221,1.0878,1.0796,1.1223,1.1417,1.1417,1.1417,1.1417,1.1378,1.068,1.0369,0.0,1.0097,0.998,0.998,0.998,0.998,0.998,0.998,0.9932,0.9867,0.9867,0.9829,0.972,0.9644,0.959,0.9563,0.9606,0.9617,0.9783,1.0538,1.0899,1.1207,1.1851,1.2154,1.225,1.2345,1.2372,1.2413,1.2556,1.2589,1.2589,1.2589,1.2589,1.2569,1.2515,1.2427,1.2352,1.2298,1.2247,1.2166,1.2104,1.2098,1.2098,1.2098,1.2098,1.1948,1.1567,1.1485,1.1389,1.1341,1.1315,1.1281,1.1281,1.1104,1.0968,1.0914,1.0819,1.0745,1.0684,1.0684,1.0684,1.0684,1.0684,1.0684,0.0,0.8496,0.8637,0.9005,0.8401,0.7709,0.7709,0.7063,0.0,0.6238,0.6515,0.6684,0.6294,0.6923,0.7457,0.728,0.859,0.9475,0.9118,1.0693,1.2635,1.4682,1.5715,1.6829,1.8231,1.8126,1.7764,1.7322,1.604,1.4927,1.4011,1.3042,1.2065,1.1155,1.1432,1.1346,1.0877,1.0275,0.998,0.998,1.0369,1.0563,1.0563,1.0563,1.0563,1.0525,1.0175,0.998,0.998,0.998,0.998,0.998,0.998,0.998,0.998,0.998,0.998,0.998,0.998,0.9905,0.9813,0.9802,0.9764,0.9699,0.9769,0.9796,0.9916,1.038,1.0895,1.1378,1.1817,1.2205,1.2522,1.2528,1.2535,1.2576,1.2679,1.2706,1.2706,1.2706,1.2699,1.2645,1.2542,1.2508,1.2461,1.2325,1.2305,1.225,1.2145,1.2132,1.2132,1.2132,1.2132,1.2125,1.2118,1.1938,1.1753,1.1611,1.1504,1.1416,1.1409,1.1295,1.1118,1.0948,1.0934,1.086,1.0751,1.0751,1.0751,1.0751,1.0751,1.0751,0.5736,0.0,0.7038,0.7132,0.6972,0.6808,0.0,0.652,0.6257,0.621,0.6515,0.6731,0.6483,0.7018,0.7584,0.7849,0.8845,0.9646,0.9745,1.1516,1.3372,1.4936,1.6178,1.7209,1.8001,1.7769,1.7191,1.6402,1.5126,1.3887,1.265,1.1893,1.1248,1.0589,1.0547,1.0509,1.0363,1.0118,0.998,0.998,1.0097,1.0136,1.0136,1.0136,1.0136,1.0136,1.0058,0.998,0.998,0.998,0.998,0.998,0.998,0.998,0.998,0.998,0.998,0.998,0.998,0.9964,0.9921,0.9829,0.978,0.9764,0.9791,0.9796,0.9895,1.0412,1.0928,1.1403,1.19,1.2364,1.2705,1.2867,1.2894,1.2901,1.2941,1.2948,1.2948,1.2948,1.2813,1.2679,1.2645,1.2576,1.2488,1.2461,1.2454,1.244,1.2406,1.24,1.24,1.24,1.24,1.2352,1.2244,1.2132,1.1945,1.1753,1.1712,1.1644,1.1572,1.1416,1.1321,1.1287,1.1172,1.1097,1.1091,1.1091,1.1091,1.1091,1.1091,1.1091,0.5121,0.5528,0.5969,0.6073,0.6153,0.6247,0.6341,0.6285,0.62,0.62,0.6619,0.6883,0.6558,0.7191,0.7849,0.806,0.9034,1.0092,1.103,1.2183,1.3438,1.4724,1.5632,1.6455,1.7295,1.6835,1.6227,1.544,1.4176,1.2949,1.1729,1.1155,1.0664,1.0307,1.0182,1.0117,1.0117,1.0052,0.998,0.998,0.998,0.998,0.998,0.998,0.998,0.998,0.998,0.998,0.998,0.998,0.998,0.998,0.998,0.998,0.998,0.998,0.998,0.998,0.998,0.998,0.997,0.9905,0.9921,0.9964,0.9964,1.0047,1.0118,1.0264,1.0796,1.1358,1.1666,1.2155,1.2664,1.282,1.2854,1.2895,1.3071,1.3098,1.3098,1.3098,1.2935,1.2813,1.2706,1.2603,1.2501,1.2501,1.2501,1.2501,1.2501,1.2501,1.2501,1.2501,1.2501,1.2467,1.2393,1.2311,1.2169,1.1952,1.1938,1.187,1.1685,1.164,1.1531,1.1396,1.1274,1.12,1.12,1.12,1.12,1.12,1.12,1.12,0.5285,0.5323,0.5396,0.5629,0.5818,0.5997,0.62,0.6247,0.6247,0.6247,0.6776,0.7128,0.6723,0.7466,0.8192,0.8315,0.9429,1.0835,1.2443,1.2834,1.3319,1.4345,1.4809,1.5434,1.6372,1.5758,1.5062,1.4526,1.3266,1.209,1.1178,1.0652,1.0329,1.021,1.0085,0.998,0.998,0.998,0.998,0.998,0.998,0.998,0.998,0.998,0.998,0.998,0.998,0.998,0.998,0.998,0.998,0.998,0.998,0.998,0.998,0.998,0.998,0.998,0.998,0.998,0.9986,1.0002,1.0117,1.0204,1.0226,1.0302,1.034,1.0134,1.0699,1.1362,1.1362,1.1986,1.2603,1.2732,1.2766,1.284,1.3112,1.3214,1.322,1.3241,1.3111,1.2962,1.2786,1.2637,1.2535,1.2535,1.2556,1.2569,1.2569,1.2569,1.2562,1.2535,1.2535,1.2528,1.2501,1.2501,1.2393,1.2179,1.2145,1.2026,1.1834,1.1807,1.1678,1.1463,1.1342,1.1268,1.1268,1.1268,1.1281,1.1302,1.1274,1.1281,0.5176,0.5424,0.5639,0.6012,0.6134,0.621,0.6407,0.6454,0.6454,0.6454,0.6993,0.7441,0.7365,0.7899,0.8581,0.9249,1.0634,1.2017,1.3163,1.3514,1.3812,1.4281,1.4971,1.5541,1.5827,1.4909,1.4119,1.3631,1.2353,1.1346,1.0727,1.053,1.0329,1.021,1.0085,0.998,0.998,0.998,0.998,0.998,0.998,0.998,0.998,0.998,0.998,0.998,0.998,0.998,0.998,0.998,0.998,0.998,0.998,0.998,0.998,0.998,0.998,0.998,0.998,0.998,1.0036,1.0139,1.0188,1.0221,1.0329,1.0373,1.0378,1.034,1.097,1.165,1.165,1.229,1.2935,1.2962,1.2969,1.3009,1.318,1.3214,1.3214,1.3342,1.3186,1.2996,1.2969,1.28,1.2659,1.2659,1.2807,1.2928,1.2928,1.2928,1.284,1.2712,1.2659,1.2605,1.2515,1.2501,1.2481,1.2433,1.2325,1.2189,1.207,1.1898,1.1773,1.1726,1.1626,1.1552,1.1552,1.1552,1.1613,1.1728,1.1606,1.1613,0.5224,0.5443,0.5724,0.6238,0.637,0.6417,0.6609,0.678,0.6885,0.6885,0.7302,0.769,0.7811,0.8496,0.9452,1.0637,1.1612,1.2354,1.28,1.2842,1.2869,1.297,1.3358,1.3721,1.4,1.3391,1.2855,1.2598,1.1728,1.094,1.0413,1.0318,1.0231,1.0106,1.0013,0.998,0.998,0.998,0.998,0.998,0.998,0.998,0.998,0.998,0.998,0.998,0.998,0.998,0.998,0.998,0.998,0.998,0.998,0.998,0.998,0.998,0.998,0.998,0.998,0.998,0.9991,1.0085,1.0193,1.0313,1.0367,1.0476,1.0574,1.0574,1.1091,1.1653,1.158,1.2198,1.2834,1.2834,1.2834,1.2901,1.3166,1.3214,1.3261,1.337,1.3227,1.3118,1.3118,1.2956,1.2854,1.2854,1.2955,1.3003,1.3003,1.3003,1.2975,1.2861,1.2854,1.2827,1.2799,1.2792,1.2678,1.2515,1.2366,1.2257,1.2227,1.204,1.1952,1.1952,1.1891,1.1857,1.1857,1.1857,1.1891,1.1952,1.1891,1.1891,0.5262,0.5443,0.5742,0.6351,0.6539,0.6661,0.6972,0.7229,0.7432,0.7536,0.7794,0.8088,0.8344,0.9264,1.0431,1.1702,1.2238,1.2442,1.2259,1.2037,1.1875,1.1766,1.1837,1.2029,1.2344,1.2028,1.1758,1.1684,1.1161,1.0655,1.021,1.0204,1.0144,0.9986,0.998,0.998,0.998,0.998,0.998,0.998,0.998,0.998,0.998,0.998,0.998,0.998,0.998,0.998,0.998,0.998,0.998,0.998,0.998,0.998,0.998,0.998,0.998,0.998,0.998,0.998,1.0025,1.0052,1.021,1.0394,1.0457,1.0574,1.0737,1.082,1.1306,1.1726,1.1516,1.2107,1.2766,1.2652,1.2665,1.276,1.3105,1.3193,1.3261,1.337,1.3275,1.3214,1.3214,1.3125,1.305,1.305,1.3077,1.3105,1.3105,1.3105,1.3091,1.3057,1.305,1.3037,1.3003,1.3003,1.2901,1.2623,1.2474,1.2379,1.2338,1.2234,1.2152,1.2152,1.2118,1.2098,1.2098,1.2098,1.2118,1.2152,1.2118,1.2118,0.5201,0.5443,0.5742,0.6351,0.6637,0.6938,0.7579,0.7889,0.8145,0.8514,0.8618,0.876,0.9137,1.0278,1.1352,1.1827,1.2281,1.2456,1.2073,1.1797,1.1568,1.1368,1.145,1.1598,1.1767,1.1338,1.1062,1.108,1.0671,1.0369,1.021,1.0204,1.0144,0.9986,0.998,0.998,0.998,0.998,0.998,0.998,0.998,0.998,0.998,0.998,0.998,0.998,0.998,0.998,0.998,0.998,0.998,0.998,0.998,0.998,0.998,0.998,0.998,0.998,0.998,0.998,1.0041,1.0155,1.028,1.0405,1.0555,1.0634,1.0779,1.1237,1.1683,1.1983,1.1686,1.2261,1.2914,1.2589,1.2623,1.2773,1.2982,1.3118,1.3261,1.337,1.3275,1.3214,1.3214,1.3207,1.32,1.32,1.3275,1.337,1.337,1.337,1.3315,1.3214,1.32,1.3146,1.3009,1.3003,1.2989,1.2969,1.2786,1.2637,1.2494,1.2352,1.2277,1.2277,1.2173,1.2098,1.2098,1.2098,1.2173,1.2271,1.2166,1.2173,0.5218,0.5443,0.5742,0.6351,0.6968,0.7626,0.8382,0.8931,0.9461,1.0112,1.0149,1.0149,1.0433,1.1075,1.1651,1.1911,1.2102,1.2002,1.1367,1.1168,1.0978,1.0639,1.0719,1.0856,1.0901,1.0679,1.0508,1.0508,1.0283,1.0106,0.9943,0.9937,0.9921,0.9807,0.9802,0.9802,0.9802,0.9802,0.9802,0.9802,0.9873,0.9867,0.9802,0.9873,0.9867,0.9872,0.9948,0.998,0.998,0.998,0.998,0.998,0.998,0.998,0.998,0.998,0.998,0.998,0.998,0.998,1.0025,1.0074,1.0226,1.0394,1.0478,1.0585,1.082,1.1278,1.1736,1.2109,1.2162,1.2646,1.3077,1.2873,1.2834,1.2915,1.3105,1.3173,1.3261,1.337,1.3356,1.3315,1.3315,1.3315,1.3315,1.3315,1.3363,1.3403,1.3403,1.3403,1.3376,1.3322,1.3315,1.3295,1.3241,1.3234,1.3193,1.3139,1.2868,1.2665,1.2644,1.2501,1.242,1.242,1.2366,1.2332,1.2332,1.2332,1.2366,1.242,1.2366,1.2366,0.5247,0.549,0.5837,0.6445,0.7258,0.8202,0.9346,0.9963,1.055,1.1516,1.1658,1.1542,1.135,1.1567,1.1753,1.1768,1.1655,1.1365,1.071,1.0526,1.0358,1.0124,1.0128,1.02,1.02,1.0117,1.0074,1.0036,0.9987,0.9872,0.9791,0.9786,0.9748,0.9709,0.9709,0.9709,0.9709,0.9709,0.9687,0.9649,0.9688,0.9709,0.9709,0.9748,0.9786,0.9791,0.9872,0.9926,0.9926,0.9964,0.998,0.998,0.998,0.998,0.998,0.998,0.998,0.998,0.998,0.998,0.998,0.998,1.0161,1.0329,1.0329,1.0574,1.0967,1.1422,1.1914,1.2341,1.2528,1.288,1.318,1.3037,1.3037,1.3098,1.3193,1.3214,1.3288,1.3444,1.3437,1.3417,1.3464,1.3431,1.3403,1.3403,1.3403,1.3403,1.3403,1.3403,1.3403,1.3403,1.3403,1.3403,1.3403,1.3403,1.3356,1.3254,1.301,1.2827,1.2693,1.2591,1.2549,1.2501,1.2501,1.2501,1.2501,1.2501,1.2528,1.2576,1.2576,1.2576,0.5247,0.5594,0.6063,0.6665,0.7468,0.8609,1.048,1.0905,1.1264,1.2549,1.2965,1.2805,1.1783,1.1755,1.1736,1.1283,1.0921,1.0579,1.0245,0.9953,0.9796,0.9796,0.9737,0.9709,0.9709,0.9769,0.9791,0.9714,0.9775,0.9786,0.9709,0.9703,0.9703,0.9703,0.9703,0.9703,0.9703,0.9703,0.9643,0.9487,0.9487,0.9583,0.9703,0.9703,0.9703,0.9709,0.9786,0.9796,0.9807,0.9932,0.998,0.998,0.998,0.998,0.998,0.998,0.998,0.998,0.998,0.998,0.998,0.998,1.0101,1.0204,1.0204,1.0649,1.1289,1.1738,1.2288,1.2692,1.2692,1.2959,1.318,1.3037,1.3111,1.3214,1.3214,1.3295,1.3444,1.3558,1.3505,1.3451,1.3565,1.3505,1.3403,1.3403,1.3403,1.3403,1.3403,1.3403,1.3403,1.3403,1.3403,1.3403,1.3403,1.3403,1.3403,1.3403,1.3302,1.3044,1.2706,1.2693,1.2625,1.2508,1.2508,1.2508,1.2508,1.2508,1.2583,1.2693,1.2693,1.2693,0.5453,0.6146,0.6952,0.756,0.8439,0.9618,1.1353,1.1749,1.2136,1.357,1.384,1.3487,1.2437,1.1811,1.1297,1.0726,1.0316,0.9969,0.9735,0.9719,0.972,0.972,0.9731,0.9709,0.9709,0.9699,0.9704,0.9709,0.9699,0.9666,0.9546,0.9541,0.9503,0.9416,0.941,0.941,0.941,0.941,0.9394,0.9356,0.9356,0.9378,0.9416,0.9503,0.9541,0.9583,0.9666,0.972,0.9726,0.9807,0.9905,0.998,0.998,0.998,0.998,0.998,0.998,0.998,0.998,0.998,0.998,0.998,1.0101,1.0204,1.0204,1.0393,1.0738,1.1265,1.1523,1.1741,1.2169,1.237,1.2415,1.2377,1.2602,1.2834,1.2834,1.3163,1.3444,1.3558,1.3551,1.3565,1.3707,1.3612,1.3559,1.3559,1.3471,1.3403,1.3403,1.3403,1.3403,1.3403,1.3403,1.3403,1.3403,1.3403,1.3403,1.3403,1.3356,1.3247,1.3051,1.2949,1.2868,1.2867,1.2867,1.2867,1.2867,1.2867,1.2887,1.2895,1.2895,1.2895,0.5993,0.6738,0.7579,0.8115,0.8959,1.0012,1.1478,1.2614,1.353,1.4203,1.4335,1.394,1.2603,1.1793,1.1129,1.044,0.9993,0.9651,0.9538,0.9589,0.9633,0.9633,0.9589,0.9525,0.9525,0.9605,0.9616,0.953,0.9605,0.9578,0.9421,0.9416,0.9378,0.9307,0.9302,0.9302,0.9302,0.9302,0.928,0.9237,0.928,0.928,0.9242,0.9362,0.9416,0.9421,0.9546,0.966,0.9714,0.9742,0.984,0.991,0.991,0.9937,0.998,0.998,0.998,0.998,0.998,0.998,0.998,0.998,1.0029,1.0128,1.0128,1.0334,1.0661,1.1022,1.1295,1.1529,1.1742,1.1819,1.1861,1.2069,1.2401,1.2704,1.2811,1.3158,1.3553,1.3763,1.3714,1.372,1.3905,1.381,1.3673,1.3673,1.3587,1.3492,1.3492,1.3437,1.3403,1.3403,1.3403,1.3403,1.3403,1.3403,1.3403,1.3403,1.3403,1.3356,1.3268,1.3166,1.3057,1.3003,1.3003,1.3003,1.3003,1.3003,1.303,1.3084,1.3084,1.3084,0.6722,0.7339,0.7992,0.8452,0.9226,1.0121,1.1162,1.3233,1.4815,1.4418,1.4427,1.4025,1.2409,1.1675,1.1084,1.0306,0.9818,0.9542,0.9474,0.947,0.947,0.947,0.9372,0.9302,0.9302,0.9405,0.9421,0.9313,0.9405,0.9416,0.9296,0.9291,0.928,0.9269,0.9269,0.9269,0.9269,0.9269,0.9184,0.9082,0.9231,0.9237,0.9103,0.9253,0.9302,0.9307,0.941,0.953,0.9693,0.9693,0.9726,0.9796,0.9796,0.9872,0.998,0.998,0.998,0.998,0.998,0.998,0.998,0.998,0.998,0.998,0.998,1.037,1.0849,1.0907,1.1352,1.1716,1.141,1.132,1.1445,1.1902,1.2372,1.2708,1.2884,1.3303,1.3687,1.4057,1.396,1.3869,1.4068,1.3966,1.3815,1.3802,1.3687,1.3605,1.3605,1.3526,1.3444,1.3444,1.3444,1.3437,1.3424,1.3424,1.3417,1.3403,1.3403,1.3403,1.3403,1.3268,1.3173,1.3043,1.3043,1.3043,1.3043,1.3043,1.3105,1.3234,1.3234,1.3234,0.6952,0.7754,0.8547,0.9017,1.0083,1.1082,1.1274,1.2165,1.308,1.3632,1.3485,1.2983,1.2312,1.1366,1.0524,1.0042,0.9623,0.9357,0.9334,0.9345,0.9345,0.9345,0.9318,0.9302,0.9302,0.9329,0.9334,0.9307,0.9329,0.9291,0.9141,0.9136,0.9092,0.8995,0.8995,0.8995,0.8995,0.8995,0.8979,0.8957,0.9076,0.9125,0.9103,0.9253,0.9302,0.9302,0.9201,0.9329,0.9525,0.9525,0.965,0.9796,0.9796,0.9872,0.998,0.998,0.998,0.998,0.998,0.998,0.998,0.998,0.998,0.998,0.998,1.008,1.0224,1.0484,1.0607,1.0755,1.0848,1.0862,1.0987,1.1445,1.1987,1.2408,1.2439,1.3121,1.3851,1.4078,1.4091,1.4068,1.4224,1.4122,1.398,1.3815,1.3774,1.3754,1.3754,1.3727,1.37,1.37,1.37,1.366,1.3587,1.358,1.3532,1.341,1.3403,1.3403,1.3403,1.337,1.3336,1.3308,1.3308,1.3308,1.3308,1.3308,1.3322,1.3349,1.3349,1.3349,0.7562,0.8113,0.8699,0.9242,0.9986,1.0535,1.0376,1.0812,1.1407,1.1909,1.2137,1.2036,1.1498,1.0743,1.0095,0.9663,0.9446,0.9302,0.9302,0.9302,0.9285,0.9231,0.919,0.9163,0.9103,0.9098,0.9125,0.9184,0.913,0.9098,0.9098,0.9044,0.8984,0.8919,0.8919,0.8919,0.8919,0.8919,0.8887,0.8867,0.8952,0.9011,0.9017,0.913,0.919,0.9179,0.9065,0.9114,0.9318,0.9318,0.9459,0.9677,0.9731,0.9829,0.9899,0.9959,0.998,0.998,0.998,0.998,0.998,0.998,0.998,0.998,0.998,0.998,1.0068,1.0318,1.0384,1.0443,1.0636,1.0695,1.0837,1.1358,1.1927,1.2379,1.2654,1.3373,1.3994,1.415,1.4183,1.4204,1.4285,1.4231,1.4156,1.4075,1.4,1.3953,1.3953,1.3842,1.3795,1.3795,1.3795,1.3768,1.3693,1.3687,1.3653,1.362,1.3546,1.3512,1.3512,1.3437,1.3403,1.3403,1.3403,1.3403,1.3403,1.3403,1.3403,1.3403,1.3403,1.3403,0.7985,0.8256,0.8588,0.9158,0.9387,0.9424,0.9236,0.9534,0.9896,1.0023,1.0702,1.1139,1.0527,1.0042,0.967,0.9311,0.9258,0.9242,0.9242,0.9242,0.9174,0.9076,0.9071,0.9027,0.8924,0.8919,0.8957,0.906,0.8973,0.8952,0.9033,0.8941,0.8876,0.8854,0.8854,0.8854,0.8854,0.8854,0.8805,0.8776,0.8861,0.8897,0.8919,0.9,0.9049,0.906,0.8935,0.8968,0.9098,0.9098,0.9275,0.9497,0.966,0.9737,0.9813,0.9937,0.998,0.998,0.998,0.998,0.998,0.998,0.998,0.998,0.998,0.998,1.0068,1.0318,1.0384,1.0443,1.0636,1.0779,1.0979,1.1565,1.2083,1.2599,1.3122,1.3697,1.415,1.4278,1.4299,1.4299,1.4299,1.4299,1.4299,1.4299,1.419,1.4109,1.4109,1.4,1.3876,1.3876,1.3876,1.3869,1.3842,1.3835,1.3829,1.3802,1.3666,1.3585,1.3585,1.3485,1.3403,1.3403,1.3403,1.3403,1.3403,1.3403,1.3403,1.3403,1.3403,1.3403,0.738,0.7864,0.8292,0.8498,0.8575,0.8596,0.8672,0.8756,0.8867,0.9031,0.9646,1.0095,0.9987,0.9542,0.919,0.9119,0.9033,0.8962,0.8962,0.8962,0.8957,0.8941,0.8941,0.8935,0.8919,0.8919,0.8924,0.8941,0.8924,0.8876,0.8858,0.8836,0.8747,0.8638,0.8638,0.8638,0.8638,0.8638,0.8628,0.8611,0.877,0.8851,0.8914,0.8861,0.8878,0.8935,0.8845,0.8927,0.9098,0.9098,0.9275,0.9497,0.966,0.9737,0.9813,0.9937,0.998,0.998,0.998,0.998,0.998,0.998,0.998,0.998,0.998,0.998,1.0068,1.0318,1.0384,1.0443,1.0636,1.0987,1.148,1.2071,1.266,1.3122,1.3313,1.3856,1.4278,1.4299,1.4299,1.4299,1.4299,1.4299,1.4299,1.4299,1.4285,1.4272,1.4272,1.4251,1.4238,1.4238,1.4238,1.4183,1.4055,1.4041,1.398,1.3808,1.3666,1.3585,1.3585,1.3485,1.3403,1.3403,1.3403,1.3403,1.3403,1.3403,1.3403,1.3403,1.3403,1.3403,0.6759,0.7401,0.7955,0.7871,0.7933,0.8033,0.8185,0.8426,0.8617,0.8725,0.9042,0.9353,0.9353,0.9133,0.8995,0.8995,0.8952,0.8919,0.8919,0.8919,0.8892,0.8856,0.8851,0.8823,0.8753,0.8747,0.8774,0.8845,0.8785,0.8753,0.8803,0.8738,0.8677,0.859,0.859,0.859,0.859,0.859,0.859,0.859,0.8677,0.8693,0.8747,0.8693,0.8736,0.8845,0.872,0.8807,0.8995,0.8995,0.9136,0.9394,0.9519,0.9639,0.9758,0.9834,0.9921,0.998,0.998,0.998,0.998,0.998,0.998,0.998,0.998,0.998,1.0068,1.0318,1.0384,1.0524,1.0967,1.1237,1.1622,1.2586,1.3022,1.3346,1.3799,1.4119,1.4299,1.4299,1.4299,1.4299,1.4299,1.4299,1.4299,1.4299,1.4299,1.4299,1.4299,1.4299,1.4299,1.4299,1.4299,1.4272,1.4204,1.4197,1.417,1.4102,1.3835,1.3707,1.3707,1.3526,1.3403,1.3403,1.3403,1.3403,1.3403,1.3403,1.3403,1.3403,1.3403,1.3403,0.6198,0.6766,0.723,0.705,0.7187,0.7404,0.7676,0.8035,0.835,0.8475,0.861,0.8735,0.8735,0.8811,0.887,0.887,0.8843,0.8827,0.8827,0.8827,0.8789,0.877,0.8759,0.8721,0.8595,0.859,0.8628,0.8748,0.8672,0.8661,0.8754,0.8672,0.859,0.859,0.859,0.859,0.859,0.859,0.859,0.859,0.859,0.859,0.859,0.859,0.8672,0.8754,0.8628,0.8709,0.8876,0.8903,0.9038,0.9275,0.9427,0.9541,0.9676,0.9753,0.9834,0.9937,0.9937,0.9953,0.998,0.998,0.998,0.998,0.998,1.0002,1.0112,1.0324,1.0405,1.0598,1.1221,1.1486,1.1837,1.2915,1.3229,1.3492,1.418,1.4299,1.4299,1.4299,1.4299,1.4299,1.4299,1.4299,1.4299,1.4299,1.4299,1.4299,1.4299,1.4299,1.4299,1.4299,1.4299,1.4299,1.4299,1.4299,1.4299,1.4299,1.4048,1.3899,1.3899,1.3614,1.3478,1.3512,1.3478,1.3437,1.3403,1.3403,1.3403,1.3403,1.3403,1.3403,0.5723,0.5874,0.5845,0.594,0.6178,0.6549,0.7181,0.7441,0.7674,0.8128,0.8231,0.8242,0.8242,0.8552,0.8814,0.8814,0.8716,0.8606,0.8606,0.8606,0.8606,0.8595,0.8595,0.8595,0.859,0.859,0.859,0.8595,0.859,0.859,0.8595,0.859,0.859,0.859,0.859,0.859,0.859,0.859,0.859,0.859,0.859,0.859,0.859,0.859,0.859,0.8595,0.859,0.8694,0.8825,0.887,0.8995,0.913,0.9394,0.9492,0.9508,0.9671,0.9748,0.9807,0.9807,0.9883,0.998,0.998,0.998,0.998,0.998,1.0101,1.0221,1.0351,1.0506,1.0697,1.1244,1.1736,1.223,1.2842,1.3303,1.372,1.4204,1.4299,1.4299,1.4299,1.4299,1.4299,1.4299,1.4299,1.4299,1.4299,1.4299,1.4299,1.4299,1.4299,1.4299,1.4299,1.4299,1.4299,1.4299,1.4299,1.4299,1.4299,1.415,1.4061,1.4061,1.3777,1.3639,1.3774,1.3646,1.3546,1.3403,1.3403,1.3403,1.3403,1.3403,1.3403,0.4866,0.5222,0.5574,0.5571,0.5823,0.6143,0.6556,0.6861,0.7149,0.7475,0.7606,0.7695,0.7959,0.8236,0.8426,0.8426,0.8388,0.8329,0.8329,0.8329,0.8388,0.847,0.8481,0.8508,0.8579,0.859,0.859,0.859,0.859,0.859,0.859,0.859,0.859,0.859,0.859,0.859,0.859,0.859,0.859,0.859,0.859,0.859,0.859,0.859,0.859,0.859,0.859,0.8688,0.8808,0.8818,0.8954,0.9109,0.919,0.9351,0.9492,0.9536,0.9671,0.9796,0.9796,0.9878,0.998,0.998,0.998,0.998,0.998,1.0106,1.0226,1.0351,1.0668,1.1118,1.17,1.2152,1.2647,1.3257,1.3568,1.3795,1.4095,1.4231,1.4299,1.4299,1.4299,1.4299,1.4299,1.4299,1.4299,1.4299,1.4299,1.4299,1.4299,1.4299,1.4299,1.4299,1.4299,1.4299,1.4299,1.4299,1.4299,1.4299,1.4156,1.4119,1.4119,1.3871,1.3747,1.3795,1.3747,1.3693,1.3639,1.3639,1.3639,1.3639,1.3587,1.3551,0.4367,0.4695,0.5092,0.5098,0.5299,0.5599,0.5947,0.6241,0.6545,0.6926,0.7138,0.7361,0.7638,0.7921,0.8107,0.8188,0.8204,0.8215,0.8258,0.8264,0.8307,0.8459,0.8475,0.8503,0.8579,0.859,0.859,0.859,0.859,0.859,0.859,0.859,0.859,0.859,0.859,0.859,0.859,0.859,0.859,0.859,0.859,0.859,0.859,0.859,0.859,0.859,0.859,0.8667,0.8748,0.8787,0.8889,0.9044,0.9082,0.9217,0.9427,0.9427,0.9579,0.978,0.978,0.9883,0.998,0.998,0.998,0.998,0.998,1.0134,1.028,1.0362,1.0824,1.1417,1.1961,1.2526,1.305,1.3442,1.3619,1.3768,1.396,1.4116,1.4238,1.4292,1.4299,1.4299,1.4299,1.4299,1.4299,1.4299,1.4299,1.4299,1.4299,1.4299,1.4299,1.4299,1.4299,1.4299,1.4299,1.4299,1.4299,1.4299,1.4204,1.415,1.415,1.4,1.3939,1.395,1.3903,1.3903,1.395,1.3849,1.3795,1.3795,1.37,1.3707,0.0,0.0,0.0,0.4453,0.4591,0.4838,0.5351,0.5583,0.5865,0.6455,0.6915,0.7204,0.7278,0.7616,0.7932,0.8145,0.8188,0.8231,0.835,0.8399,0.8443,0.8562,0.8579,0.8579,0.859,0.859,0.859,0.859,0.859,0.859,0.859,0.8584,0.8579,0.8579,0.8579,0.8584,0.8584,0.8584,0.859,0.859,0.859,0.859,0.859,0.859,0.859,0.859,0.859,0.859,0.8595,0.8748,0.884,0.8924,0.9044,0.9163,0.9302,0.9302,0.9459,0.9703,0.9703,0.9824,0.9975,0.998,0.998,0.998,0.998,1.0193,1.0384,1.0384,1.0885,1.1528,1.2027,1.2775,1.3403,1.3403,1.3512,1.3619,1.3768,1.396,1.4109,1.4272,1.4299,1.4299,1.4299,1.4299,1.4299,1.4299,1.4299,1.4299,1.4299,1.4299,1.4299,1.4299,1.4299,1.4299,1.4299,1.4299,1.4299,1.4299,1.4299,1.4299,1.4299,1.42,1.415,1.4299,1.4156,1.415,1.4299,1.3957,1.3808,1.3808,1.3808,1.3808,0.4306,0.0,0.0,0.0,0.0,0.0,0.4933,0.5237,0.5638,0.6127,0.6453,0.6731,0.7166,0.7313,0.7493,0.7796,0.7915,0.7981,0.8019,0.8055,0.81,0.8275,0.8302,0.8399,0.8568,0.859,0.859,0.859,0.859,0.859,0.859,0.8508,0.8421,0.8302,0.8416,0.8465,0.8465,0.8546,0.859,0.859,0.859,0.859,0.859,0.859,0.859,0.859,0.859,0.859,0.859,0.8622,0.8709,0.8834,0.8919,0.9038,0.9157,0.9275,0.94,0.9589,0.9676,0.9764,0.9861,0.9953,0.998,0.998,0.998,1.0193,1.0384,1.0384,1.1131,1.2069,1.2858,1.3238,1.3403,1.3403,1.3431,1.3532,1.3741,1.3829,1.398,1.4251,1.4299,1.4299,1.4299,1.4299,1.4299,1.4299,1.4299,1.4299,1.4299,1.4299,1.4299,1.4299,1.4299,1.4299,1.4299,1.4299,1.4299,1.4299,1.4299,1.4299,1.4299,1.4258,1.4258,1.4299,1.4258,1.4258,1.4299,1.4217,1.417,1.417,1.417,1.4116,0.4306,0.43,0.4311,0.4377,0.0,0.0,0.476,0.5072,0.5425,0.5784,0.6071,0.6401,0.6855,0.704,0.7215,0.7497,0.7649,0.7804,0.7957,0.7979,0.805,0.8183,0.8204,0.8258,0.8426,0.8443,0.8443,0.8443,0.8443,0.8443,0.8443,0.8345,0.8275,0.8204,0.8269,0.8334,0.8383,0.8486,0.8541,0.859,0.859,0.859,0.859,0.859,0.859,0.859,0.859,0.859,0.859,0.859,0.8694,0.8819,0.887,0.8989,0.9114,0.9264,0.9383,0.9497,0.9605,0.9699,0.9813,0.9883,0.9937,0.998,0.998,1.0193,1.0424,1.0585,1.1458,1.2526,1.3238,1.3403,1.3403,1.3403,1.3403,1.3485,1.3734,1.3795,1.3889,1.4238,1.4299,1.4299,1.4299,1.4299,1.4299,1.4299,1.4299,1.4299,1.4299,1.4299,1.4299,1.4299,1.4299,1.4299,1.4299,1.4299,1.4299,1.4299,1.4299,1.4299,1.4299,1.4299,1.4299,1.4299,1.4299,1.4299,1.4299,1.4299,1.4299,1.4299,1.4299,1.4251,0.4306,0.4311,0.4344,0.4464,0.4514,0.0,0.476,0.4998,0.5257,0.5459,0.58,0.6165,0.6497,0.6736,0.6959,0.7154,0.7311,0.7568,0.7973,0.8028,0.8077,0.8145,0.8161,0.8172,0.8199,0.8204,0.8204,0.8204,0.8204,0.8199,0.8183,0.8183,0.8177,0.8161,0.8177,0.8237,0.8378,0.8405,0.847,0.8568,0.8584,0.859,0.859,0.859,0.859,0.859,0.859,0.859,0.859,0.859,0.8683,0.8798,0.8865,0.8984,0.9092,0.9258,0.9372,0.947,0.9481,0.9633,0.978,0.9796,0.9883,0.998,0.998,1.0233,1.055,1.1063,1.1926,1.2816,1.3279,1.3403,1.3403,1.3403,1.3403,1.3485,1.3734,1.3795,1.3889,1.4238,1.4299,1.4299,1.4299,1.4299,1.4299,1.4299,1.4299,1.4299,1.4299,1.4299,1.4299,1.4299,1.4299,1.4299,1.4299,1.4299,1.4299,1.4299,1.4299,1.4299,1.4299,1.4299,1.4299,1.4299,1.4299,1.4299,1.4299,1.4299,1.4299,1.4299,1.4299,1.4299,0.4295,0.4382,0.4459,0.4498,0.458,0.0,0.4782,0.4998,0.5257,0.5459,0.5735,0.5991,0.6159,0.623,0.6336,0.6478,0.6741,0.71,0.7557,0.7622,0.7703,0.7915,0.7973,0.8019,0.8183,0.8204,0.8204,0.8204,0.8204,0.8193,0.8126,0.8121,0.8077,0.7973,0.8072,0.8132,0.8159,0.8318,0.8432,0.8454,0.8546,0.859,0.859,0.859,0.859,0.859,0.859,0.859,0.859,0.859,0.86,0.8644,0.8832,0.893,0.8979,0.9226,0.9318,0.9351,0.9454,0.9579,0.9715,0.9769,0.9883,0.998,0.998,1.0431,1.1074,1.2099,1.2529,1.2816,1.3279,1.3403,1.3403,1.3403,1.3403,1.3485,1.3734,1.3795,1.3889,1.4238,1.4299,1.4299,1.4299,1.4299,1.4299,1.4299,1.4299,1.4299,1.4299,1.4299,1.4299,1.4299,1.4299,1.4299,1.4299,1.4299,1.4299,1.4299,1.4299,1.4299,1.4299,1.4299,1.4299,1.4299,1.4299,1.4299,1.4299,1.4299,1.4299,1.4299,1.4299,1.4299,0.4492,0.4553,0.4613,0.4637,0.4697,0.0,0.0,0.511,0.5332,0.5436,0.5556,0.5692,0.5877,0.5838,0.5877,0.6056,0.6388,0.6677,0.6915,0.7262,0.7562,0.7682,0.7693,0.7741,0.7836,0.7847,0.7847,0.7847,0.7906,0.7943,0.7913,0.7963,0.7963,0.7903,0.7963,0.8023,0.8083,0.8236,0.8323,0.8388,0.8535,0.859,0.859,0.859,0.859,0.859,0.859,0.859,0.859,0.859,0.859,0.8611,0.8822,0.8919,0.8946,0.9215,0.9302,0.9318,0.9443,0.9605,0.9725,0.9764,0.9883,1.0058,1.0253,1.0939,1.1807,1.2491,1.2858,1.3106,1.3362,1.3403,1.3403,1.3403,1.3403,1.3485,1.3734,1.3795,1.3889,1.4238,1.4299,1.4299,1.4299,1.4299,1.4299,1.4299,1.4299,1.4299,1.4299,1.4299,1.4299,1.4299,1.4299,1.4299,1.4299,1.4299,1.4299,1.4299,1.4299,1.4299,1.4299,1.4299,1.4299,1.4299,1.4299,1.4299,1.4299,1.4299,1.4299,1.4299,1.4299,1.4299,0.4708,0.4706,0.4732,0.4793,0.4817,0.4874,0.0,0.0,0.0,0.5321,0.5321,0.5381,0.554,0.547,0.547,0.5703,0.6006,0.622,0.622,0.6802,0.7285,0.7404,0.7415,0.7403,0.7452,0.7464,0.7448,0.7448,0.754,0.7595,0.7595,0.7782,0.787,0.787,0.7892,0.7952,0.805,0.816,0.8253,0.835,0.8524,0.859,0.859,0.859,0.859,0.859,0.859,0.859,0.859,0.859,0.859,0.8611,0.8822,0.8919,0.8946,0.9215,0.9302,0.9318,0.9443,0.9605,0.9725,0.9764,0.996,1.0225,1.0777,1.1573,1.2372,1.2738,1.3106,1.3403,1.3403,1.3424,1.3444,1.3444,1.3464,1.3559,1.3781,1.3842,1.3966,1.4245,1.4299,1.4299,1.4299,1.4299,1.4299,1.4299,1.4299,1.4299,1.4299,1.4299,1.4299,1.4299,1.4299,1.4299,1.4299,1.4299,1.4299,1.4299,1.4299,1.4299,1.4299,1.4299,1.4299,1.4299,1.4299,1.4299,1.4299,1.4299,1.4299,1.4299,1.4299,1.4299,0.4708,0.4748,0.4798,0.4795,0.4895,0.4982,0.4993,0.0,0.5036,0.5036,0.0,0.5047,0.5074,0.0,0.0,0.509,0.5373,0.561,0.561,0.5973,0.6448,0.698,0.7046,0.7127,0.7305,0.7258,0.7226,0.7226,0.7237,0.7242,0.7242,0.7564,0.772,0.772,0.7848,0.7908,0.7924,0.8122,0.821,0.8226,0.8481,0.859,0.859,0.859,0.859,0.859,0.859,0.859,0.859,0.859,0.859,0.8611,0.8822,0.8919,0.8946,0.9215,0.9302,0.9318,0.9443,0.9605,0.9725,0.9764,1.0114,1.072,1.1788,1.2208,1.2453,1.3109,1.3362,1.3403,1.3403,1.3498,1.3558,1.3558,1.366,1.3795,1.4007,1.4091,1.4095,1.4265,1.4299,1.4299,1.4299,1.4299,1.4299,1.4299,1.4299,1.4299,1.4299,1.4299,1.4299,1.4299,1.4299,1.4299,1.4299,1.4299,1.4299,1.4299,1.4299,1.4299,1.4299,1.4299,1.4299,1.4299,1.4299,1.4299,1.4299,1.4299,1.4299,1.4299,1.4299,1.4299,0.4884,0.4904,0.4923,0.4923,0.496,0.4998,0.4998,0.4998,0.4998,0.4998,0.0,0.0,0.0,0.0,0.0,0.0,0.5257,0.5447,0.5447,0.5697,0.6024,0.6415,0.6489,0.6502,0.66,0.6587,0.656,0.656,0.6751,0.6877,0.6975,0.729,0.7522,0.7698,0.7747,0.7837,0.7903,0.8111,0.8204,0.8204,0.8475,0.859,0.859,0.859,0.859,0.859,0.859,0.859,0.859,0.859,0.8628,0.8743,0.8849,0.8919,0.8946,0.9215,0.9351,0.9427,0.9589,0.9671,0.9824,1.0136,1.0802,1.1572,1.213,1.2533,1.2882,1.3301,1.3403,1.3403,1.3403,1.3512,1.3585,1.3585,1.3693,1.3842,1.4084,1.4119,1.4159,1.4272,1.4299,1.4299,1.4299,1.4299,1.4299,1.4299,1.4299,1.4299,1.4299,1.4299,1.4299,1.4299,1.4299,1.4299,1.4299,1.4299,1.4299,1.4299,1.4299,1.4299,1.4299,1.4299,1.4299,1.4299,1.4299,1.4299,1.4299,1.4299,1.4299,1.4299,1.4299,1.4299,0.5274,0.5245,0.5215,0.5294,0.5244,0.5154,0.509,0.5071,0.5076,0.5018,0.4998,0.0,0.0,0.0,0.4998,0.4998,0.0,0.5294,0.5294,0.5426,0.5627,0.5953,0.6018,0.6034,0.6034,0.6007,0.5991,0.5991,0.629,0.648,0.6507,0.7002,0.7355,0.7502,0.7633,0.7758,0.7903,0.8111,0.8204,0.8204,0.8475,0.859,0.859,0.859,0.859,0.859,0.859,0.859,0.859,0.859,0.8694,0.8819,0.887,0.8935,0.8989,0.9231,0.9383,0.954,0.9777,1.0029,1.0289,1.0847,1.1502,1.2173,1.2475,1.2848,1.3248,1.3356,1.3403,1.3403,1.3403,1.3546,1.3646,1.3646,1.3788,1.4,1.4109,1.4136,1.4163,1.4278,1.4299,1.4299,1.4299,1.4299,1.4299,1.4299,1.4299,1.4299,1.4299,1.4299,1.4299,1.4299,1.4299,1.4299,1.4299,1.4299,1.4299,1.4299,1.4299,1.4299,1.4299,1.4299,1.4299,1.4299,1.4299,1.4299,1.4299,1.4299,1.4299,1.4299,1.4299,1.4299,0.5996,0.5883,0.5735,0.6004,0.583,0.5537,0.5343,0.5279,0.5246,0.5037,0.4998,0.4998,0.4998,0.0,0.0,0.0,0.5004,0.0,0.0,0.5015,0.5193,0.5664,0.5821,0.5909,0.5909,0.5789,0.5724,0.5724,0.5969,0.6007,0.5757,0.668,0.7138,0.704,0.7459,0.7758,0.7903,0.8111,0.8204,0.8204,0.8475,0.859,0.859,0.859,0.859,0.859,0.859,0.859,0.859,0.859,0.8694,0.8819,0.887,0.8989,0.9109,0.9258,0.9383,0.9577,1.0113,1.0694,1.1358,1.1886,1.2055,1.2232,1.2956,1.3166,1.3248,1.3356,1.3403,1.3403,1.3403,1.3614,1.3788,1.3788,1.4025,1.4285,1.4292,1.4292,1.4292,1.4299,1.4299,1.4299,1.4299,1.4299,1.4299,1.4299,1.4299,1.4299,1.4299,1.4299,1.4299,1.4299,1.4299,1.4299,1.4299,1.4299,1.4299,1.4299,1.4299,1.4299,1.4299,1.4299,1.4299,1.4299,1.4299,1.4299,1.4299,1.4299,1.4299,1.4299,1.4299,1.4299,0.0,0.0,0.5996,0.6079,0.0,0.5576,0.5518,0.5498,0.5487,0.5462,0.5455,0.5415,0.5292,0.0,0.0,0.0,0.0,0.0,0.0,0.4998,0.5058,0.522,0.5275,0.5296,0.5296,0.5258,0.5237,0.5237,0.548,0.5703,0.5816,0.6377,0.6844,0.7175,0.7424,0.7676,0.7903,0.8111,0.8204,0.8204,0.8475,0.859,0.859,0.859,0.859,0.859,0.859,0.859,0.8595,0.871,0.878,0.887,0.8989,0.9109,0.9253,0.9291,0.9615,1.0119,1.0744,1.1266,1.1753,1.201,1.2364,1.2762,1.3112,1.3241,1.3336,1.339,1.3403,1.3403,1.3403,1.362,1.3795,1.3795,1.4075,1.4299,1.4299,1.4299,1.4299,1.4299,1.4299,1.4299,1.4299,1.4299,1.4299,1.4299,1.4299,1.4299,1.4299,1.4299,1.4299,1.4299,1.4299,1.4299,1.4299,1.4299,1.4299,1.4299,1.4299,1.4299,1.4299,1.4299,1.4299,1.4299,1.4299,1.4299,1.4299,1.4299,1.4299,1.4299,1.4299,1.4299,0.7039,0.685,0.0,0.6691,0.6467,0.0,0.6056,0.0,0.5867,0.5851,0.5705,0.5559,0.5434,0.0,0.0,0.0,0.0,0.0,0.0,0.4998,0.4998,0.4998,0.4998,0.4998,0.4998,0.4998,0.4998,0.4998,0.5256,0.5452,0.5578,0.6022,0.6466,0.685,0.7105,0.7421,0.7741,0.7986,0.8118,0.8204,0.8475,0.859,0.859,0.859,0.859,0.859,0.859,0.859,0.8595,0.8754,0.884,0.893,0.919,0.9382,0.9518,0.9518,1.0046,1.0789,1.1324,1.1798,1.222,1.2364,1.2715,1.3105,1.3248,1.3322,1.3403,1.3403,1.3403,1.3403,1.3403,1.362,1.3795,1.3795,1.4075,1.4299,1.4299,1.4299,1.4299,1.4299,1.4299,1.4299,1.4299,1.4299,1.4299,1.4299,1.4299,1.4299,1.4299,1.4299,1.4299,1.4299,1.4299,1.4299,1.4299,1.4299,1.4299,1.4299,1.4299,1.4299,1.4299,1.4299,1.4299,1.4299,1.4299,1.4299,1.4299,1.4299,1.4299,1.4299,1.4299,1.4299]},{"header":{"parameterUnit":"m.s-1","parameterCategory":1,"la1":30.6,"la2":29.2853,"lo1":-89.7004,"lo2":-87.6739,"dy":0.0162,"dx":0.0183,"nx":112,"ny":82,"refTime":"2023-09-29T00:00:00:Z","depth":0,"parameterNumber":3,"parameterNumberName":"V-component_of_WINDS"},"data":[0.0,0.0,0.0,0.0,0.0,0.0,0.0,0.0,0.0,0.0,0.0,0.0,0.0,0.0,0.0,0.0,0.0,0.0,0.0,0.0,0.0,0.0,0.0,0.0,0.0,0.0,0.0,0.0,0.0,0.0,0.0,0.0,0.0,0.0,0.0,0.0,0.0,0.0,0.0,0.0,0.0,0.0,0.0,0.0,0.0,0.0,0.0,0.0,0.0,0.0,0.0,0.0,0.0,0.0,0.0,0.0,0.0,0.0,0.0,0.0,0.0,0.0,0.0,0.0,0.0,0.0,0.0,0.0,0.0,0.0,0.0,0.0,0.0,0.0,0.0,0.0,0.0,0.0,0.0,0.0,0.0,0.0,0.0,0.0,0.0,0.0,0.0,0.0,0.0,0.0,1.9671,2.3371,2.8109,3.0981,3.0878,2.8773,2.6419,2.3957,0.0,0.0,0.0,0.0,0.0,0.0,0.0,0.0,0.0,0.0,0.0,0.0,0.0,0.0,0.0,0.0,0.0,0.0,0.0,0.0,0.0,0.0,0.0,0.0,0.0,0.0,0.0,0.0,0.0,0.0,0.0,0.0,0.0,0.0,0.0,0.0,0.0,0.0,0.0,0.0,0.0,0.0,0.0,0.0,0.0,0.0,0.0,0.0,0.0,0.0,0.0,0.0,0.0,0.0,0.0,0.0,0.0,0.0,0.0,0.0,0.0,0.0,0.0,0.0,0.0,0.0,0.0,0.0,0.0,0.0,0.0,0.0,0.0,0.0,0.0,0.0,0.0,0.0,0.0,0.0,0.0,0.0,0.0,0.0,0.0,0.0,0.0,0.0,0.0,0.0,0.0,0.0,0.0,0.0,0.0,0.0,0.0,0.0,0.0,0.0,0.0,0.0,0.0,0.0,2.1465,2.7783,3.0938,3.2317,3.1696,2.9523,2.6963,2.3984,0.0,0.0,0.0,0.0,0.0,0.0,0.0,0.0,0.0,0.0,0.0,0.0,0.0,0.0,0.0,0.0,0.0,0.0,0.0,0.0,0.0,0.0,0.0,0.0,0.0,0.0,0.0,0.0,0.0,0.0,0.0,0.0,0.0,0.0,0.0,0.0,0.0,0.0,0.0,0.0,0.0,0.0,0.0,0.0,0.0,0.0,0.0,0.0,0.0,0.0,0.0,0.0,0.0,0.0,0.0,0.0,0.0,0.0,0.0,0.0,0.0,0.0,0.0,0.0,0.0,0.0,0.0,0.0,0.0,0.0,0.0,0.0,0.0,0.0,0.0,0.0,0.0,0.0,0.0,0.0,0.0,0.0,0.0,0.0,0.0,0.0,0.0,0.0,0.0,0.0,0.0,0.0,0.0,0.0,0.0,0.0,0.0,0.0,0.0,0.0,0.0,0.0,0.0,2.1012,2.4632,2.9032,3.1179,3.2007,3.1257,2.911,2.6661,2.3984,2.0292,0.0,0.0,0.0,0.0,0.0,0.0,0.0,0.0,0.0,0.0,0.0,0.0,0.0,0.0,0.0,0.0,0.0,0.0,0.0,0.0,0.0,0.0,0.0,0.0,0.0,0.0,0.0,0.0,0.0,0.0,0.0,0.0,0.0,0.0,0.0,0.0,0.0,0.0,0.0,0.0,0.0,0.0,0.0,0.0,0.0,0.0,0.0,0.0,0.0,0.0,0.0,0.0,0.0,0.0,0.0,0.0,0.0,0.0,0.0,0.0,0.0,0.0,0.0,0.0,0.0,0.0,0.0,0.0,0.0,0.0,0.0,0.0,0.0,0.0,0.0,0.0,0.0,0.0,0.0,0.0,0.0,0.0,0.0,0.0,0.0,0.0,0.0,0.0,0.0,0.0,0.0,0.0,0.0,0.0,0.0,0.0,0.0,0.0,0.0,0.0,0.0,0.0,2.3702,2.6722,2.8998,3.0455,3.0981,3.0222,2.8221,2.6006,2.3681,2.0165,0.0,0.0,0.0,0.0,0.0,0.0,0.0,0.0,0.0,0.0,0.0,0.0,0.0,0.0,0.0,0.0,0.0,0.0,0.0,0.0,0.0,0.0,0.0,0.0,0.0,0.0,0.0,0.0,0.0,0.0,0.0,0.0,0.0,0.0,0.0,0.0,0.0,0.0,0.0,0.0,0.0,0.0,0.0,0.0,0.0,0.0,0.0,0.0,0.0,0.0,0.0,0.0,0.0,0.0,0.0,0.0,0.0,0.0,0.0,0.0,0.0,0.0,0.0,0.0,0.0,0.0,0.0,0.0,0.0,0.0,0.0,0.0,0.0,0.0,0.0,0.0,0.0,0.0,0.0,0.0,0.0,0.0,0.0,0.0,0.0,0.0,0.0,0.0,0.0,0.0,0.0,0.0,0.0,0.0,0.0,0.0,0.0,0.0,0.0,0.0,0.0,0.0,2.3564,2.5937,2.8213,2.9179,2.9351,2.8627,2.7101,2.5205,2.2923,1.9889,0.0,0.0,0.0,0.0,0.0,0.0,0.0,0.0,0.0,0.0,0.0,0.0,0.0,0.0,0.0,0.0,0.0,0.0,0.0,0.0,0.0,0.0,0.0,0.0,0.0,0.0,0.0,0.0,0.0,0.0,0.0,0.0,0.0,0.0,0.0,0.0,0.0,0.0,0.0,0.0,0.0,0.0,0.0,0.0,0.0,0.0,0.0,0.0,0.0,0.0,0.0,0.0,0.0,0.0,0.0,0.0,0.0,0.0,0.0,0.0,0.0,0.0,0.0,0.0,0.0,0.0,0.0,0.0,0.0,0.0,0.0,0.0,0.0,0.0,0.0,0.0,0.0,0.0,0.0,0.0,0.0,0.0,0.0,0.0,0.0,0.0,0.0,0.0,0.0,0.0,0.0,0.0,0.0,0.0,0.0,0.0,0.0,0.0,0.0,0.0,0.0,0.0,2.3991,2.6377,2.8213,2.9075,2.9041,2.7807,2.6316,2.4446,2.2171,0.0,0.0,0.0,0.0,0.0,0.0,0.0,0.0,0.0,0.0,0.0,0.0,0.0,0.0,0.0,0.0,0.0,0.0,0.0,0.0,0.0,0.0,0.0,0.0,0.0,0.0,0.0,0.0,0.0,0.0,0.0,0.0,0.0,0.0,0.0,0.0,0.0,0.0,0.0,0.0,0.0,0.0,0.0,0.0,0.0,0.0,0.0,0.0,0.0,0.0,0.0,0.0,0.0,0.0,0.0,0.0,0.0,0.0,0.0,0.0,0.0,0.0,0.0,0.0,0.0,0.0,0.0,0.0,0.0,0.0,0.0,0.0,0.0,0.0,0.0,0.0,0.0,0.0,0.0,0.0,0.0,0.0,0.0,0.0,0.0,0.0,0.0,0.0,0.0,0.0,0.0,0.0,0.0,0.0,0.0,0.0,0.0,0.0,0.0,0.0,0.0,0.0,2.1722,2.4171,2.6343,2.7902,2.8489,2.8282,2.704,2.5523,2.3757,2.1722,0.0,0.0,0.0,0.0,0.0,0.0,0.0,0.0,0.0,0.0,0.0,0.0,0.0,0.0,0.0,0.0,0.0,0.0,0.0,0.0,0.0,0.0,0.0,0.0,0.0,0.0,0.0,0.0,0.0,0.0,0.0,0.0,0.0,0.0,0.0,0.0,0.0,0.0,0.0,0.0,0.0,0.0,0.0,0.0,0.0,0.0,0.0,0.0,0.0,0.0,0.0,0.0,0.0,0.0,0.0,0.0,0.0,0.0,0.0,0.0,0.0,0.0,0.0,0.0,0.0,0.0,0.0,0.0,0.0,0.0,0.0,0.0,0.0,0.0,0.0,0.0,0.0,0.0,0.0,0.0,0.0,0.0,0.0,0.0,0.0,0.0,0.0,0.0,0.0,0.0,0.0,0.0,0.0,0.0,0.0,0.0,0.0,0.0,0.0,0.0,0.0,0.0,2.2406,2.4067,2.5592,2.7152,2.729,2.6979,2.617,2.4681,2.3164,0.0,0.0,0.0,0.0,0.0,0.0,0.0,0.0,0.0,0.0,0.0,0.0,0.0,0.0,0.0,0.0,0.0,0.0,0.0,0.0,0.0,0.0,0.0,0.0,0.0,0.0,0.0,0.0,0.0,0.0,0.0,0.0,0.0,0.0,0.0,0.0,0.0,0.0,0.0,0.0,0.0,0.0,0.0,0.0,0.0,0.0,0.0,0.0,0.0,0.0,0.0,0.0,0.0,0.0,0.0,0.0,0.0,0.0,0.0,0.0,0.0,0.0,0.0,0.0,0.0,0.0,0.0,0.0,0.0,0.0,0.0,0.0,0.0,0.0,0.0,0.0,0.0,0.0,0.0,0.0,0.0,0.0,0.0,0.0,0.0,0.0,0.0,0.0,0.0,0.0,0.0,0.0,0.0,0.0,0.0,0.0,0.0,0.0,0.0,0.0,0.0,0.0,0.0,2.3192,2.4377,2.5592,2.7152,2.729,2.6788,2.5485,2.4448,2.3015,2.1027,0.0,0.0,0.0,0.0,0.0,0.0,0.0,0.0,0.0,0.0,0.0,0.0,0.0,0.0,0.0,0.0,0.0,0.0,0.0,0.0,0.0,0.0,0.0,0.0,0.0,0.0,0.0,0.0,0.0,0.0,0.0,0.0,0.0,0.0,0.0,0.0,0.0,0.0,0.0,0.0,0.0,0.0,0.0,0.0,0.0,0.0,0.0,0.0,0.0,0.0,0.0,0.0,0.0,0.0,0.0,0.0,0.0,0.0,0.0,0.0,0.0,0.0,0.0,0.0,0.0,0.0,0.0,0.0,0.0,0.0,0.0,0.0,0.0,0.0,0.0,0.0,0.0,0.0,0.0,0.0,0.0,0.0,0.0,0.0,0.0,0.0,0.0,0.0,0.0,0.0,0.0,0.0,0.0,0.0,0.0,0.0,0.0,0.0,0.0,0.0,0.0,0.0,2.3509,2.4515,2.5592,2.7152,2.729,2.6692,2.5237,2.4372,2.2944,2.0738,0.0,0.0,0.0,0.0,0.0,0.0,0.0,0.0,0.0,0.0,0.0,0.0,0.0,0.0,0.0,0.0,0.0,0.0,0.0,0.0,0.0,0.0,0.0,0.0,0.0,0.0,0.0,0.0,0.0,0.0,0.0,0.0,0.0,0.0,0.0,0.0,0.0,0.0,0.0,0.0,0.0,0.0,0.0,0.0,0.0,0.0,0.0,0.0,0.0,0.0,0.0,0.0,0.0,0.0,0.0,0.0,0.0,0.0,0.0,0.0,0.0,0.0,0.0,0.0,0.0,0.0,0.0,0.0,0.0,0.0,0.0,0.0,0.0,0.0,0.0,0.0,0.0,0.0,0.0,0.0,0.0,0.0,0.0,0.0,0.0,0.0,0.0,0.0,0.0,0.0,0.0,0.0,0.0,0.0,0.0,0.0,0.0,0.0,0.0,0.0,0.0,0.0,2.3653,2.464,2.5683,2.7175,2.7313,2.6715,2.5231,2.4476,2.3087,2.0889,0.0,0.0,0.0,0.0,0.0,0.0,0.0,0.0,0.0,0.0,0.0,0.0,0.0,0.0,0.0,0.0,0.0,0.0,0.0,0.0,0.0,0.0,0.0,0.0,0.0,0.0,0.0,0.0,0.0,0.0,0.0,0.0,0.0,0.0,0.0,0.0,0.0,0.0,0.0,0.0,0.0,0.0,0.0,0.0,0.0,0.0,0.0,0.0,0.0,0.0,0.0,0.0,0.0,0.0,0.0,0.0,0.0,0.0,0.0,0.0,1.9067,1.6399,0.0,0.0,0.0,0.0,0.0,0.0,0.0,0.0,0.0,0.0,0.0,0.0,0.0,0.0,0.0,0.0,0.0,0.0,0.0,0.0,0.0,0.0,0.0,0.0,0.0,0.0,0.0,0.0,0.0,0.0,0.0,0.0,0.0,0.0,0.0,0.0,0.0,0.0,0.0,0.0,2.4594,2.558,2.645,2.7346,2.745,2.6877,2.547,2.5169,2.4155,2.2015,2.113,0.0,0.0,0.0,0.0,0.0,0.0,0.0,0.0,0.0,0.0,0.0,0.0,0.0,0.0,0.0,0.0,0.0,0.0,0.0,0.0,0.0,0.0,0.0,0.0,0.0,0.0,0.0,0.0,0.0,0.0,0.0,0.0,0.0,0.0,0.0,0.0,0.0,0.0,0.0,0.0,0.0,0.0,0.0,0.0,0.0,0.0,0.0,0.0,0.0,0.0,0.0,0.0,0.0,0.0,0.0,0.0,0.0,0.0,0.0,2.3641,2.0827,0.0,0.0,0.0,0.0,0.0,0.0,0.0,0.0,0.0,0.0,0.0,0.0,0.0,0.0,0.0,0.0,0.0,0.0,0.0,0.0,0.0,0.0,0.0,0.0,0.0,0.0,0.0,0.0,0.0,0.0,0.0,0.0,0.0,0.0,0.0,0.0,0.0,0.0,0.0,0.0,2.4997,2.5946,2.6807,2.7557,2.7664,2.7253,2.6215,2.5756,2.4788,2.2942,2.2087,0.0,0.0,0.0,0.0,0.0,0.0,0.0,0.0,0.0,0.0,0.0,0.0,0.0,0.0,0.0,0.0,0.0,0.0,0.0,0.0,0.0,0.0,0.0,0.0,0.0,0.0,0.0,0.0,0.0,0.0,0.0,0.0,0.0,0.0,0.0,0.0,0.0,0.0,0.0,0.0,0.0,0.0,0.0,0.0,0.0,0.0,0.0,0.0,0.0,0.0,0.0,0.0,0.0,3.0258,3.1404,3.2362,3.2402,3.3455,3.4908,2.9705,2.7029,2.611,2.3017,0.0,0.0,0.0,0.0,0.0,0.0,0.0,0.0,0.0,0.0,0.0,0.0,0.0,0.0,0.0,0.0,0.0,0.0,0.0,0.0,0.0,0.0,2.6996,2.7666,2.8266,2.8095,2.5922,0.0,0.0,0.0,0.0,0.0,0.0,0.0,0.0,0.0,0.0,0.0,2.5385,2.6359,2.7148,2.7833,2.794,2.7697,2.703,2.6239,2.5206,2.3863,2.2896,2.2114,0.0,0.0,0.0,0.0,0.0,0.0,0.0,0.0,0.0,0.0,0.0,0.0,0.0,0.0,0.0,0.0,0.0,0.0,0.0,0.0,0.0,0.0,0.0,0.0,0.0,0.0,0.0,0.0,0.0,0.0,0.0,0.0,2.0695,1.8638,0.0,0.0,0.0,0.0,0.0,0.0,0.0,0.0,0.0,0.0,0.0,0.0,0.0,2.9781,3.39,3.4238,3.5802,3.8579,3.8784,3.9734,4.1312,4.1312,4.1605,4.2017,4.0562,0.0,3.0425,2.9413,0.0,0.0,0.0,0.0,0.0,0.0,0.0,0.0,0.0,0.0,0.0,0.0,0.0,0.0,0.0,0.0,0.0,0.0,0.0,0.0,0.0,0.0,3.3303,3.3408,3.3468,3.3215,3.2256,2.8917,2.6076,2.5979,2.5343,2.4854,0.0,0.0,0.0,0.0,0.0,0.0,2.6641,2.7515,2.8159,2.8304,2.8324,2.8034,2.7306,2.6513,2.5731,2.494,2.3469,2.2633,2.2586,2.1921,0.0,0.0,0.0,0.0,0.0,0.0,0.0,0.0,0.0,0.0,0.0,0.0,0.0,0.0,0.0,0.0,0.0,0.0,0.0,0.0,0.0,0.0,0.0,0.0,0.0,0.0,0.0,0.0,0.0,2.0468,2.2667,2.2624,2.1503,2.0199,0.0,0.0,0.0,0.0,0.0,0.0,0.0,0.0,0.0,3.2931,3.3975,3.6011,3.9203,4.0188,4.136,4.2765,4.3276,4.4124,4.5251,4.5251,4.5558,4.5996,4.5243,4.2887,3.918,3.4999,3.1362,2.8375,0.0,0.0,0.0,0.0,2.789,2.8363,3.1455,3.2274,3.2126,3.3443,0.0,0.0,0.0,0.0,0.0,0.0,0.0,3.1759,3.2809,3.4805,3.6531,3.6609,3.697,3.719,3.6833,3.4153,3.1075,2.8639,2.7234,2.6479,2.6488,2.5876,0.0,0.0,0.0,2.7068,2.7684,2.8563,2.9173,2.9251,2.929,2.8989,2.8203,2.741,2.6822,2.6504,2.5428,2.4803,2.4891,2.4129,2.3705,0.0,0.0,0.0,0.0,0.0,0.0,0.0,0.0,0.0,0.0,0.0,0.0,0.0,0.0,0.0,0.0,0.0,0.0,0.0,0.0,0.0,0.0,0.0,0.0,0.0,0.0,0.0,0.0,2.2346,2.5231,2.716,2.639,2.5088,0.0,0.0,0.0,0.0,0.0,0.0,3.6217,3.4866,3.5386,3.8436,3.9683,4.1279,4.3348,4.459,4.5518,4.6074,4.6743,4.7548,4.8516,4.8569,4.8923,4.9404,4.8723,4.7967,4.6777,4.0243,3.6386,3.4444,3.2595,3.1193,3.0405,3.2179,3.2966,3.3624,3.6741,3.7451,3.7231,3.8972,3.8622,3.7246,3.6101,0.0,0.0,0.0,0.0,3.6281,3.6716,3.8405,4.0,4.0129,4.0463,4.0717,4.0577,3.888,3.6191,3.1942,2.9744,2.8544,2.8393,2.7558,0.0,2.7036,2.7632,2.8295,2.9051,2.9764,3.0241,3.0262,3.0154,2.9807,2.9217,2.8237,2.7652,2.7652,2.6891,2.6474,2.6512,2.5936,2.5664,2.5705,0.0,0.0,0.0,0.0,0.0,0.0,0.0,0.0,0.0,0.0,0.0,0.0,0.0,0.0,0.0,0.0,0.0,0.0,0.0,0.0,0.0,0.0,0.0,0.0,0.0,0.0,0.0,0.0,0.0,3.1736,3.1187,0.0,0.0,0.0,0.0,3.1648,3.2422,3.6177,4.3569,4.1255,4.1082,4.4192,4.4366,4.5154,4.6743,4.6826,4.7974,5.0112,5.0147,5.1018,5.2598,5.2804,5.2994,5.3097,5.2506,5.1781,5.0632,4.538,4.1429,3.8628,3.7812,3.6187,3.4569,3.6964,3.8365,3.9539,4.2734,4.3853,4.3817,4.3923,4.1952,3.9519,3.9458,3.8344,0.0,0.0,3.9884,4.085,4.2292,4.391,4.5127,4.5138,4.4673,4.406,4.344,4.2097,3.9752,3.5491,3.2761,3.1048,3.0524,0.0,3.0428,3.0686,3.083,3.0972,3.1131,3.1267,3.1335,3.1305,3.0644,3.0161,3.0124,2.8699,2.7781,2.7781,2.7042,2.6602,2.6602,2.6565,2.6534,2.6534,2.646,0.0,0.0,0.0,0.0,0.0,0.0,0.0,0.0,0.0,0.0,0.0,0.0,0.0,0.0,0.0,0.0,0.0,0.0,0.0,0.0,0.0,0.0,0.0,0.0,0.0,0.0,0.0,0.0,3.3104,3.4331,0.0,3.5471,3.6471,3.741,3.8131,3.993,4.2887,4.7176,4.6892,4.7572,4.9651,4.9722,5.0202,5.1232,5.1232,5.1655,5.2465,5.2465,5.276,5.3365,5.3421,5.3476,5.3531,5.3303,5.3047,5.2595,5.0294,4.7197,4.3919,4.3684,4.2765,4.1785,4.316,4.3854,4.4384,4.6,4.6224,4.5834,4.5834,4.5102,4.4216,4.4216,4.3868,4.3554,4.4101,4.4878,4.5682,4.6252,4.6799,4.7285,4.7399,4.6858,4.6288,4.6287,4.5052,4.3435,4.1524,3.8676,3.6361,3.5632,3.4359,3.329,3.2869,3.1974,3.1568,3.2132,3.2256,3.2287,3.2287,3.2029,3.166,3.1156,3.0572,3.0019,2.9503,2.9208,2.8797,2.828,2.7796,2.748,2.7437,2.6959,2.6706,0.0,0.0,0.0,0.0,0.0,0.0,0.0,0.0,0.0,0.0,0.0,0.0,0.0,0.0,0.0,0.0,0.0,0.0,0.0,0.0,0.0,0.0,0.0,0.0,0.0,3.1974,3.5401,3.6872,3.9364,4.0909,4.0739,4.2016,4.3416,4.4823,4.6955,4.8997,5.0854,5.174,5.2613,5.364,5.3414,5.3507,5.3989,5.3741,5.3741,5.3989,5.3989,5.4131,5.4378,5.4469,5.4488,5.4529,5.4584,5.4482,5.4252,5.3731,5.1892,4.9221,4.8257,4.7535,4.7157,4.7441,4.7773,4.814,4.8675,4.8508,4.8081,4.7796,4.7725,4.7737,4.7783,4.7829,4.7874,4.7883,4.8346,4.8845,4.8845,4.8834,4.8868,4.9048,4.85,4.8029,4.8306,4.7385,4.6412,4.603,4.2964,4.0168,3.937,3.8085,3.6963,3.6454,3.4813,3.3825,3.4342,3.374,3.3229,3.3204,3.2945,3.2576,3.2034,3.1744,3.1381,3.0826,3.0789,3.0567,3.0044,2.949,2.9173,2.9165,2.8656,2.8402,2.837,0.0,0.0,0.0,0.0,0.0,0.0,0.0,0.0,0.0,0.0,0.0,0.0,0.0,0.0,0.0,0.0,0.0,0.0,0.0,0.0,0.0,0.0,0.0,3.3524,3.7184,4.1001,4.3492,4.6494,4.8487,4.8792,4.9642,5.0539,5.1421,5.2958,5.4128,5.4873,5.5638,5.6099,5.6099,5.5341,5.4916,5.4916,5.4123,5.4136,5.4894,5.488,5.5235,5.5915,5.612,5.6308,5.6424,5.6559,5.624,5.5639,5.5639,5.522,5.4306,5.1391,5.0305,5.0311,4.9674,4.9973,5.0773,5.0892,5.0963,5.0819,5.0028,4.9776,4.9799,4.9947,4.9981,5.0015,5.0159,5.0192,5.0192,5.0192,5.0192,5.0188,5.0249,4.9726,4.9303,4.9488,4.9017,4.8569,4.8642,4.5282,4.2201,4.1583,4.1467,4.144,4.1571,3.9473,0.0,3.7873,3.5791,3.4247,3.4183,3.3469,3.2988,3.2988,3.2262,3.183,3.1793,3.1793,3.1793,3.1756,3.1756,3.1756,3.1762,3.1756,3.1762,3.1768,0.0,0.0,0.0,0.0,0.0,0.0,0.0,0.0,0.0,0.0,0.0,0.0,0.0,0.0,0.0,0.0,0.0,0.0,0.0,0.0,0.0,3.7087,4.0588,3.9406,4.3244,4.7114,4.9596,5.1641,5.3154,5.3871,5.4292,5.4849,5.5672,5.6231,5.6856,5.759,5.7826,5.7968,5.7968,5.7882,5.7844,5.7844,5.7154,5.6909,5.7101,5.6515,5.6371,5.655,5.6697,5.6812,5.6829,5.6959,5.694,5.6749,5.6749,5.6653,5.6266,5.4237,5.3084,5.2594,5.2474,5.2208,5.1931,5.1966,5.1978,5.1941,5.1725,5.1652,5.1675,5.1812,5.1939,5.2039,5.216,5.2232,5.2296,5.2296,5.1893,5.1475,5.1552,5.1006,5.0498,5.0701,5.0139,4.9593,4.9684,4.8257,4.6806,4.6012,4.4942,4.3998,4.3398,4.1735,4.0324,3.9767,3.9099,3.8423,3.7772,3.7506,3.7357,3.7357,3.7178,3.6777,3.622,3.6183,3.5923,3.533,3.5292,3.5318,3.5386,3.5336,3.5368,0.0,0.0,0.0,0.0,0.0,0.0,0.0,0.0,0.0,0.0,0.0,0.0,0.0,0.0,0.0,0.0,0.0,0.0,0.0,0.0,0.0,0.0,4.3202,4.7334,4.8183,4.997,5.2099,5.4535,5.5957,5.7091,5.798,5.8538,5.8902,5.903,5.9474,5.9795,5.9888,5.9981,6.0024,6.0024,5.9819,5.9735,5.9735,5.9024,5.8667,5.8667,5.8198,5.7982,5.7982,5.7763,5.7708,5.7735,5.7533,5.7474,5.7522,5.7522,5.7522,5.7389,0.0,0.0,0.0,0.0,5.3636,5.3198,5.2823,5.2932,5.3198,5.2823,5.2677,5.2736,5.2846,5.297,5.3045,5.3162,5.3246,5.3261,5.3261,5.2966,5.2665,5.2729,5.2122,5.158,5.1741,5.1148,5.061,5.0618,5.0265,0.0,4.8783,4.763,4.6624,4.6141,4.4395,4.2991,4.2508,4.1542,4.0724,4.0197,3.987,3.964,3.964,3.9312,0.0,0.0,0.0,3.8211,3.7805,3.78,0.0,0.0,0.0,3.7954,3.8063,3.8154,0.0,0.0,3.6613,3.6862,0.0,0.0,0.0,0.0,0.0,0.0,0.0,0.0,0.0,0.0,0.0,0.0,0.0,0.0,0.0,0.0,4.9813,5.4536,5.7636,5.6813,5.661,5.8562,5.9624,6.046,6.1203,6.2135,6.242,6.1688,6.2321,6.2479,6.181,6.1828,0.0,0.0,0.0,6.1012,6.1012,6.0227,5.9841,5.9805,5.9732,5.9696,5.9673,5.9074,5.8847,5.8848,5.8236,5.8012,5.8042,5.8042,5.8054,5.7958,5.6755,5.6368,5.6325,5.5049,5.4585,5.4464,5.3571,0.0,0.0,5.3424,5.3157,5.3178,5.3318,5.3349,5.3369,5.3491,5.3521,5.3521,5.3521,5.3521,5.3541,5.3667,5.3121,5.2594,5.2689,5.2085,5.1528,5.1528,5.1454,5.1156,5.0367,4.9596,4.9002,4.8927,4.707,4.5666,4.5592,4.3652,4.2248,4.2173,0.0,0.0,4.0947,4.0167,3.964,3.964,3.9691,3.974,3.9873,3.9953,4.0025,4.0096,4.0115,4.0159,4.0297,4.0361,4.1204,4.2665,4.0131,3.9475,0.0,0.0,0.0,0.0,0.0,0.0,0.0,0.0,0.0,0.0,0.0,0.0,0.0,0.0,0.0,4.89,5.4287,5.8732,6.0713,6.1879,6.2399,6.1982,6.2614,6.3211,6.3538,6.3754,6.3841,6.379,6.337,6.3058,6.2914,6.2386,6.2105,6.2105,6.2212,6.2232,6.2232,6.1542,6.1202,6.1202,6.0543,0.0,6.0225,6.0211,5.9866,5.9265,5.9244,5.8906,5.8327,5.8327,5.8345,5.8289,5.7262,5.6934,5.6944,5.5966,5.5618,5.5497,5.4685,5.45,5.45,5.3689,5.343,5.344,5.3578,5.3608,0.0,5.3735,5.3737,5.3737,5.3737,5.3737,5.3737,5.3756,5.3644,5.3543,5.3562,5.294,5.2382,5.2382,5.1825,5.1342,5.1193,5.0488,4.9707,4.9002,4.8519,4.7961,4.733,4.681,4.6252,4.5621,4.4849,4.4366,4.4366,4.354,4.3058,4.3058,4.3163,4.3267,4.3418,4.3481,4.3584,4.3673,4.3788,4.3886,4.3964,4.4117,4.4337,4.462,4.2639,4.2601,0.0,0.0,0.0,0.0,0.0,0.0,0.0,0.0,0.0,0.0,0.0,3.8802,4.3334,0.0,5.1143,5.5682,5.9857,6.3156,6.4841,6.6254,6.6379,6.4433,6.452,6.4976,6.5518,6.5641,6.5428,6.4744,6.4375,6.3869,6.3053,6.2746,6.2603,6.2603,6.2793,6.2904,6.2904,6.2561,6.2413,6.2413,6.1983,6.1799,6.1799,6.1523,6.0953,6.0177,5.9882,5.9307,5.8566,5.8566,5.8561,5.8556,5.8042,5.7661,5.7307,5.6862,5.6687,5.6576,5.5798,5.5761,5.5909,5.464,5.4232,5.4205,5.3846,5.3745,5.3764,5.3775,5.3784,5.3784,5.3784,5.3784,5.3784,5.3784,5.3784,5.3784,5.3784,5.3497,5.32,5.32,5.2865,5.2457,5.2085,5.1676,5.0971,4.9707,4.9141,4.8742,4.837,4.8296,4.8147,4.7738,4.6995,4.6492,4.6541,4.5427,4.4766,4.4804,4.4542,4.4454,4.4605,4.4705,4.4821,4.4962,4.5028,4.5103,4.5197,4.5256,4.5538,4.5972,4.509,4.5097,0.0,0.0,0.0,0.0,0.0,0.0,0.0,3.5509,3.7782,4.0232,4.2419,4.547,5.0685,5.3737,5.7117,6.2099,6.4918,6.6938,6.8328,6.9223,6.8815,6.6369,6.6175,6.6466,6.703,6.723,6.6784,6.5467,6.5327,6.4656,6.3198,6.3076,6.3075,6.3075,6.3194,6.3291,6.3291,6.3291,6.3291,6.3291,6.3291,6.3291,6.3265,6.2764,6.209,6.1274,6.0322,5.9451,5.8687,5.8687,5.8687,5.8687,5.8687,5.8316,5.7722,5.7722,5.7722,5.761,5.6803,5.6952,5.7239,5.5753,5.5122,5.4862,5.423,5.3933,5.3784,5.3784,5.3784,5.3784,5.3784,5.3933,5.4044,5.4044,5.4156,5.4304,5.4304,5.4166,5.4044,5.4044,5.3896,5.3599,5.294,5.2689,5.2104,5.0599,4.967,4.915,4.9168,4.9028,4.8953,4.8942,4.8235,4.7719,4.7615,4.6531,4.5836,4.5917,4.542,4.5184,4.5325,4.546,4.5615,4.5726,4.5753,4.5806,4.5936,4.5908,4.6297,4.706,4.7213,4.717,2.8038,2.9561,3.1821,3.3635,3.4756,3.588,0.0,4.1267,4.5096,4.7745,5.1286,5.4847,5.8021,6.0773,6.3291,6.5457,6.7457,6.8817,6.8987,6.9218,6.8965,6.7954,6.8245,6.8334,6.7844,6.7797,6.7494,6.6751,6.6038,6.5226,6.4254,6.3684,6.3347,6.3347,6.3488,6.3557,6.3557,6.3557,6.3557,6.3557,6.3557,6.3557,6.3557,6.3606,6.3188,6.2332,6.0752,5.9535,5.8687,5.8687,5.8687,5.8687,5.8687,5.865,5.8576,5.8576,5.8576,5.8465,5.7647,5.7435,5.736,5.6469,5.5652,5.4973,5.4899,5.4379,5.3784,5.3784,5.3784,5.3784,5.3784,5.4342,5.4862,5.4862,5.5456,5.6023,5.6023,5.5429,5.4862,5.4862,5.4304,5.3784,5.3673,5.3126,5.2372,5.1388,5.0525,5.0031,5.0147,4.9523,4.9118,4.9173,4.8434,4.7689,4.7064,4.6958,4.6968,4.7023,4.7059,4.7163,4.7292,4.7415,4.7505,4.7608,4.7701,4.7794,4.7804,4.7809,4.7832,4.7962,4.8731,4.8688,3.2643,3.4383,3.6501,3.909,4.1023,4.2999,4.5668,4.8972,5.2028,5.4165,5.7257,6.0233,6.242,6.4265,6.6174,6.8389,6.9458,7.0204,7.0658,7.0443,6.9742,6.8482,6.8135,6.7825,6.7467,6.6987,6.6408,6.5728,6.5369,6.5036,6.4665,6.4378,6.445,6.4969,6.5016,6.5039,6.5039,6.4636,6.4409,6.4409,6.3992,6.3753,6.3802,6.3845,6.343,6.2572,6.094,5.9946,5.9471,5.9014,5.8787,5.8687,5.8687,5.8985,5.9356,5.8873,5.8687,5.865,5.8316,5.8205,5.8056,5.7249,5.6756,5.6385,5.5902,5.554,5.5233,5.5233,5.5233,5.5233,5.5233,5.5493,5.5763,5.5763,5.6023,5.632,5.632,5.6023,5.5763,5.5763,5.5143,5.4623,5.4623,5.4046,5.3465,5.3084,5.1892,5.1071,5.1157,5.0447,4.9794,4.9413,4.9175,4.8926,4.8598,4.8256,4.8066,4.8201,4.7837,4.7682,4.7832,4.7912,4.7979,4.8029,4.8073,4.8092,4.8092,4.8111,4.8355,4.8894,4.9745,5.0202,3.6006,3.8341,4.0963,4.418,4.694,4.9746,5.2876,5.5605,5.7939,5.9737,6.1785,6.3727,6.5275,6.6267,6.749,6.9601,7.0222,7.062,7.12,7.0696,6.9645,6.8011,6.6933,6.6155,6.5838,6.5863,6.5565,6.4842,6.5039,6.5039,6.4816,6.5039,6.5448,6.6091,6.6114,6.6138,6.6138,6.5408,6.5065,6.5065,6.4272,6.3894,6.3894,6.3937,6.3499,6.2687,6.1277,6.0479,6.0068,5.9275,5.8852,5.8781,5.875,5.9249,5.9844,5.8995,5.8836,5.8985,5.8762,5.8687,5.8613,5.8019,5.7685,5.7398,5.6803,5.6469,5.632,5.632,5.632,5.632,5.632,5.6469,5.6617,5.6617,5.6823,5.7029,5.7029,5.6873,5.6707,5.6707,5.6125,5.5604,5.5604,5.5264,5.5001,5.5018,5.3825,5.2773,5.2298,5.1528,5.0877,5.0385,5.0506,5.0489,5.0276,4.9797,4.9471,4.9325,4.8832,4.8607,4.8723,4.8779,4.8822,4.8817,4.9043,4.9159,4.9159,4.9389,4.9817,5.0471,5.1092,5.1818,3.718,4.0901,4.5301,4.8598,5.1874,5.4947,5.7529,6.001,6.2345,6.4207,6.4862,6.5452,6.6567,6.6938,6.7407,6.8383,6.9224,6.9744,6.9744,6.9088,6.7973,6.6339,6.4705,6.3405,6.2625,6.4705,6.5745,6.4853,6.5559,6.5671,6.4853,6.5596,6.6079,6.6079,6.6158,6.619,6.619,6.553,6.5185,6.5185,6.4316,6.3894,6.3905,6.4021,6.3671,6.2847,6.2034,6.115,6.0227,5.9368,5.8984,5.8975,5.893,5.94,5.9986,5.9026,5.917,5.9765,5.8985,5.8687,5.8687,5.865,5.813,5.7509,5.7472,5.6915,5.632,5.632,5.632,5.632,5.632,5.6878,5.7462,5.7462,5.8138,5.8815,5.8815,5.8271,5.7761,5.7761,5.7174,5.6648,5.6648,5.6842,5.7016,5.7097,5.652,5.5428,5.3602,5.2807,5.2451,5.2493,5.2558,5.2253,5.142,5.1529,5.1249,5.0401,5.0472,5.0535,5.0502,5.0596,5.063,5.063,5.139,5.1769,5.1769,5.262,5.3044,5.3082,5.3121,5.3587,4.1567,4.5723,4.9794,5.3086,5.6353,5.9302,6.1362,6.3364,6.4692,6.4442,6.3775,6.2996,6.2273,6.2309,6.2925,6.4413,6.6261,6.7689,6.8222,6.7141,6.5877,6.4692,6.307,6.2144,6.2376,6.3156,6.3739,6.3999,6.4779,6.5596,6.6413,6.683,6.7286,6.7807,6.7924,6.7993,6.7993,6.7296,6.6684,6.6197,6.4953,6.4346,6.4384,6.4423,6.4292,6.3991,6.3058,6.2144,6.1211,6.0319,5.9913,5.9854,5.9851,6.0601,6.1656,6.0757,6.0582,6.0545,5.917,5.8687,5.8687,5.8687,5.8502,5.839,5.8947,5.891,5.8799,5.9404,5.9552,5.9441,5.8836,5.8873,5.9117,5.92,5.9475,5.9723,5.9864,5.9757,5.9431,5.8981,5.8336,5.7901,5.7968,5.7655,5.7513,5.7694,5.6979,5.5736,5.3954,5.3677,5.3403,5.2861,5.2871,5.2809,5.2548,5.2587,5.2505,5.2268,5.2305,5.2326,5.2326,5.2346,5.2356,5.2356,5.262,5.2774,5.2774,5.3044,5.3197,5.3197,5.378,5.4203,4.5647,4.993,5.396,5.7559,6.0486,6.2774,6.3957,6.5163,6.5599,6.4218,6.1895,5.9727,5.837,5.8009,5.8502,6.0204,6.3062,6.5462,6.6594,6.5847,6.4854,6.392,6.2609,6.1959,6.2442,6.2739,6.3201,6.3962,6.4825,6.6038,6.7723,6.7915,6.8383,6.9166,6.9022,6.8964,6.9009,6.8307,6.7401,6.6387,6.5472,6.486,6.4596,6.4596,6.4596,6.4558,6.3663,6.2918,6.2287,6.1394,6.097,6.092,6.0843,6.1586,6.2593,6.1661,6.1465,6.1464,5.9749,5.8947,5.8687,5.8687,5.8873,5.9245,5.9728,6.0136,6.047,6.1038,6.1209,6.1103,6.0545,6.0455,6.0518,6.0642,6.0696,6.0805,6.1008,6.0885,6.0625,6.0164,5.955,5.9131,5.9147,5.8901,5.8619,5.8515,5.7985,5.7054,5.5613,5.5566,5.5435,5.4889,5.4578,5.4304,5.4035,5.3771,5.3474,5.3236,5.3197,5.3197,5.3197,5.3197,5.3197,5.3197,5.351,5.3664,5.3664,5.3933,5.4087,5.4126,5.4664,5.4934,4.9375,5.3608,5.7822,6.185,6.4127,6.5379,6.542,6.5435,6.4979,6.3421,5.9298,5.5675,5.4791,5.4019,5.4092,5.5809,5.9647,6.3002,6.4711,6.5095,6.4833,6.4027,6.3195,6.2721,6.2795,6.3503,6.4268,6.4999,6.5846,6.707,6.8684,6.8901,6.9306,7.0102,6.9383,6.9094,6.9236,6.8552,6.745,6.5936,6.586,6.5408,6.469,6.4615,6.4615,6.4577,6.3813,6.3436,6.336,6.253,6.2126,6.2062,6.1929,6.232,6.2827,6.1836,6.1938,6.2353,6.0646,5.9515,5.8836,5.8836,5.9356,5.9988,6.0035,6.063,6.1272,6.1346,6.1406,6.1416,6.1379,6.1463,6.1623,6.1744,6.1892,6.2051,6.2249,6.1776,6.1353,6.1332,6.0729,6.0216,6.0216,6.0421,6.0348,5.961,5.9515,5.9219,5.8316,5.8194,5.8212,5.8269,5.7555,5.6747,5.5901,5.5088,5.428,5.3433,5.3351,5.3313,5.3313,5.3313,5.3313,5.3313,5.4126,5.4549,5.4549,5.5324,5.5708,5.5708,5.5708,5.5708,5.3741,5.8201,6.2078,6.4462,6.5829,6.6421,6.5975,6.4417,6.2387,5.9637,5.428,4.9653,4.8271,4.6899,4.6945,4.9895,5.4957,5.9325,6.1582,6.349,6.451,6.4213,6.3896,6.4177,6.5324,6.5612,6.6572,6.8616,6.8415,6.8662,6.9708,6.9861,7.0076,7.0316,6.9649,6.9353,6.9505,6.8777,6.8204,6.7817,6.6597,6.5915,6.5688,6.512,6.4817,6.4808,6.4518,6.4028,6.3461,6.319,6.2994,6.2899,6.288,6.3243,6.3774,6.3497,6.3035,6.2534,6.213,6.1364,6.0545,6.0545,6.0704,6.1012,6.1704,6.2071,6.238,6.3014,6.3307,6.3252,6.2664,6.2618,6.2775,6.2852,6.3029,6.3215,6.3402,6.342,6.3024,6.1843,6.1042,6.0553,6.0553,6.0673,6.0663,6.0488,6.0467,5.9929,5.845,5.8252,5.8264,5.8313,5.8088,5.7896,5.7665,5.6863,5.6285,5.6055,5.5439,5.5049,5.5049,5.5049,5.5049,5.5049,5.528,5.5401,5.5401,5.5593,5.5708,5.5708,5.5708,5.5708,5.9251,6.253,6.4985,6.7132,6.7192,6.6161,6.3937,6.0997,5.7573,5.3637,4.7937,4.3279,4.2054,4.1735,4.2917,4.668,5.2521,5.7825,6.1446,6.371,6.5112,6.5389,6.5674,6.6272,6.7415,6.7901,6.8859,7.0664,7.0019,7.0045,7.1263,7.1115,7.105,7.1121,7.0405,6.9896,6.9657,6.9302,6.8906,6.8518,6.7287,6.648,6.6063,6.5267,6.4888,6.488,6.4835,6.4543,6.4127,6.4064,6.3991,6.387,6.3916,6.4105,6.4334,6.4297,6.3896,6.3378,6.3389,6.3038,6.2479,6.1676,6.1645,6.2039,6.2602,6.3007,6.3439,6.3981,6.4206,6.4204,6.385,6.3842,6.3997,6.4092,6.4276,6.4424,6.4627,6.4448,6.3904,6.2637,6.21,6.1733,6.1393,6.134,6.1248,6.0864,6.0787,6.0473,5.9511,5.9396,5.9396,5.9396,5.905,5.8813,5.8813,5.805,5.7555,5.7555,5.7126,5.6665,5.6285,5.6285,5.6093,5.5708,5.5708,5.5708,5.5708,5.5708,5.5708,5.5708,5.6093,5.6285,6.4437,6.6022,6.6816,6.9082,6.7844,6.4983,6.0703,5.6463,5.2048,4.6962,4.1448,3.7335,3.6651,3.7908,4.0363,4.4385,5.0695,5.6773,6.1605,6.4134,6.5907,6.6987,6.7875,6.8699,6.948,7.0256,7.1062,7.2,7.1299,7.1475,7.2891,7.2401,7.2057,7.205,7.1241,7.0546,6.988,6.9891,6.9522,6.8754,6.7958,6.7162,6.6404,6.5609,6.5229,6.5229,6.5116,6.5078,6.504,6.4935,6.4824,6.4761,6.4888,6.4826,6.4643,6.4595,6.4521,6.4453,6.4358,6.4377,6.4199,6.2565,6.2543,6.3136,6.3217,6.3735,6.4318,6.4463,6.4539,6.4613,6.4821,6.4943,6.5098,6.5205,6.5352,6.5496,6.5587,6.5056,6.4321,6.3609,6.3391,6.3089,6.2364,6.2249,6.1979,6.1095,6.0979,6.0941,6.0825,6.0787,6.0787,6.0787,6.0127,5.9665,5.9665,5.8934,5.8467,5.8467,5.8352,5.7973,5.7209,5.717,5.6824,5.6055,5.6055,5.6055,5.6055,5.6055,5.6055,5.6055,5.6824,5.717,6.5331,6.6665,6.7468,6.8029,6.6314,6.3229,5.84,5.359,4.853,4.2901,3.7727,3.4202,3.4109,3.5015,3.6625,3.9439,4.6108,5.2231,5.5852,6.0707,6.4963,6.7873,6.9446,7.0883,7.2407,7.2709,7.3123,7.3964,7.3866,7.3603,7.3258,7.3129,7.2778,7.2192,7.1423,7.099,7.0858,7.0233,6.9825,6.9664,6.8792,6.83,6.8148,6.7314,6.6973,6.6935,6.6215,6.5903,6.5836,6.5233,6.4955,6.4955,6.5048,6.5027,6.5002,6.4993,6.4882,6.475,6.49,6.4856,6.4649,6.4105,6.4066,6.4247,6.4424,6.4592,6.4741,6.4926,6.5035,6.5101,6.5125,6.526,6.542,6.545,6.5604,6.5746,6.5767,6.5135,6.4532,6.4391,6.3775,6.3275,6.3121,6.3083,6.282,6.1979,6.1864,6.1595,6.0902,6.0787,6.0787,6.0787,6.0666,6.055,6.055,5.9781,5.9281,5.9281,5.8665,5.8242,5.8088,5.8088,5.8011,5.7857,5.7857,5.7857,5.7857,5.7857,5.7857,5.7857,5.8011,5.8088,6.8042,6.8576,6.8339,6.8406,6.5651,6.1166,5.449,4.8798,4.3148,3.6943,3.2746,3.0249,3.0303,3.2463,3.5034,3.7568,4.396,5.0227,5.492,5.9798,6.4298,6.8044,7.0302,7.1989,7.3172,7.3689,7.4088,7.4568,7.4606,7.4417,7.405,7.3649,7.3285,7.2947,7.2184,7.1569,7.1114,7.0735,7.0318,6.9901,6.902,6.8603,6.8565,6.7769,6.739,6.7399,6.6989,6.6844,6.683,6.6087,6.5835,6.5855,6.5505,6.5352,6.536,6.5397,6.5337,6.5245,6.5329,6.5329,6.5268,6.5104,6.5005,6.4955,6.5182,6.5229,6.5245,6.5322,6.5367,6.5404,6.5487,6.5597,6.5667,6.5701,6.5762,6.5846,6.5846,6.5564,6.5282,6.5282,6.4936,6.4512,6.4045,6.3968,6.3698,6.2858,6.2704,6.2551,6.2166,6.2089,6.1781,6.0896,6.0787,6.0787,6.0787,6.0435,6.0165,6.0165,5.9819,5.9396,5.8929,5.8934,5.8742,5.8313,5.8313,5.8313,5.8313,5.8313,5.8313,5.8313,5.8742,5.8934,6.9596,6.9682,6.8712,6.8338,6.4749,5.913,5.0842,4.4643,3.8704,3.1887,2.8646,2.7065,2.7116,3.0419,3.3724,3.5737,4.1541,4.7795,5.3518,5.8066,6.258,6.7392,7.0334,7.2346,7.3284,7.4104,7.4627,7.4722,7.4733,7.4733,7.4733,7.4199,7.3861,7.3861,7.2924,7.2185,7.1674,7.1143,7.0659,7.0223,6.9332,6.8896,6.8867,6.8233,6.7939,6.7957,6.7867,6.7858,6.7863,6.694,6.6659,6.6699,6.5956,6.5683,6.5672,6.5724,6.5705,6.569,6.5665,6.5691,6.5763,6.5795,6.5618,6.5425,6.5604,6.5645,6.569,6.569,6.5683,6.5728,6.5826,6.5826,6.5833,6.5885,6.5904,6.5904,6.5904,6.5904,6.5904,6.5904,6.5904,6.5667,6.5013,6.4897,6.4589,6.3698,6.3583,6.3506,6.3314,6.3314,6.2737,6.1248,6.1095,6.1018,6.0825,6.0787,6.0787,6.0787,6.0787,6.0473,5.9819,5.9781,5.9473,5.8858,5.8858,5.8858,5.8858,5.8858,5.8858,5.8858,5.9473,5.9781,6.712,6.8119,6.7718,6.6216,6.2728,5.7519,4.913,4.3321,3.7662,3.0342,2.7447,2.6242,2.6297,2.9105,3.1488,3.172,3.6717,4.2369,4.7491,5.2456,5.8248,6.5477,6.92,7.1843,7.3414,7.4361,7.4864,7.4874,7.4874,7.4874,7.4874,7.4809,7.4771,7.4771,7.3227,7.2755,7.3526,7.1247,7.0495,7.1262,7.0334,6.988,6.9871,6.9749,6.9721,6.9728,6.9067,6.8833,6.886,6.7438,6.6936,6.7,6.6178,6.5925,6.5973,6.5978,6.5943,6.5869,6.5955,6.5943,6.5887,6.603,6.5905,6.5756,6.5838,6.5856,6.5907,6.5955,6.5976,6.5978,6.5984,6.5941,6.5891,6.5897,6.5904,6.5904,6.5904,6.5904,6.5904,6.5904,6.5904,6.5859,6.5788,6.5788,6.5474,6.4628,6.4474,6.4199,6.3391,6.3314,6.2968,6.2095,6.1979,6.1672,6.0864,6.0787,6.0787,6.0787,6.0787,6.0748,6.0671,6.0671,6.0666,6.0556,6.0556,6.0556,6.0556,6.0556,6.0556,6.0556,6.0666,6.0671,6.5165,6.6603,6.6269,6.4575,6.1101,5.5731,4.6923,4.1073,3.5646,2.9192,2.659,2.5453,2.5474,2.7782,2.9707,2.9707,3.4183,3.9418,4.4459,4.95,5.5443,6.2985,6.6821,6.9929,7.262,7.3634,7.4354,7.4846,7.4884,7.4884,7.4884,7.4884,7.4925,7.4947,7.4409,7.3802,7.321,7.2216,7.1421,7.0798,7.0369,7.0173,7.0173,7.0138,7.0176,7.0182,7.0012,7.0011,7.0056,6.9009,6.8655,6.8696,6.7882,6.7619,6.7702,6.7702,6.7338,6.6863,6.688,6.6527,6.6096,6.6139,6.6107,6.6052,6.608,6.6085,6.6085,6.6069,6.6019,6.6005,6.6014,6.5954,6.6019,6.6519,6.6635,6.6789,6.7282,6.7398,6.7398,6.7398,6.7398,6.7398,6.7398,6.6974,6.6519,6.6167,6.5705,6.5243,6.4897,6.4859,6.4551,6.3705,6.271,6.1749,6.0864,6.0787,6.0787,6.0787,6.0787,6.0787,6.0787,6.0787,6.0787,6.0787,6.0787,6.0787,6.0787,6.0787,6.0787,6.0787,6.0787,6.0787,6.1817,6.3568,6.3369,6.2135,5.8182,5.2492,4.4554,3.8729,3.3474,2.8125,2.5938,2.4984,2.4984,2.6835,2.8347,2.8347,3.2558,3.7225,4.1275,4.6575,5.2411,5.8702,6.3477,6.7504,7.0621,7.2772,7.424,7.4846,7.4925,7.4955,7.4985,7.5015,7.5017,7.5056,7.4695,7.4128,7.3297,7.2587,7.1802,7.0907,7.0528,7.0402,7.0402,7.0378,7.0378,7.0419,7.0608,7.0762,7.0821,7.0086,6.9812,6.9833,6.9027,6.8745,6.881,6.881,6.8424,6.7882,6.7882,6.7307,6.6572,6.6572,6.6417,6.6185,6.6185,6.6185,6.6253,6.6443,6.6648,6.6761,6.6722,6.6666,6.6782,6.7359,6.7475,6.7667,6.8276,6.8391,6.8391,6.8391,6.8391,6.8391,6.8391,6.7898,6.7398,6.7135,6.6635,6.6173,6.5936,6.5904,6.5551,6.4705,6.3551,6.248,6.1627,6.155,6.155,6.155,6.1325,6.1172,6.1172,6.0941,6.0787,6.0787,6.0787,6.0787,6.0787,6.0787,6.0787,6.0787,6.0787,6.0787,5.6568,5.848,5.8539,5.8391,5.3497,4.7322,4.2196,3.6502,3.1169,2.6987,2.5518,2.4984,2.4984,2.6391,2.749,2.749,3.169,3.5514,3.7225,4.3214,4.8704,5.2108,5.9081,6.4652,6.72,7.1976,7.4884,7.4884,7.4957,7.5056,7.519,7.5255,7.5264,7.52,7.3715,7.3407,7.4373,7.1933,7.1161,7.207,7.1089,7.0593,7.0593,7.0509,7.0517,7.06,7.0798,7.0972,7.1022,7.0239,6.996,6.9904,6.9125,6.881,6.881,6.881,6.8772,6.8772,6.8772,6.823,6.7501,6.7501,6.6882,6.6185,6.6185,6.6185,6.6379,6.723,6.7995,6.8523,6.843,6.8353,6.8391,6.8391,6.8391,6.8391,6.8391,6.8391,6.8391,6.8391,6.8391,6.8391,6.8391,6.8391,6.8084,6.725,6.7096,6.6789,6.6013,6.5904,6.5551,6.4705,6.4589,6.4205,6.3352,6.3275,6.3275,6.3275,6.2512,6.2095,6.2095,6.1248,6.0787,6.0787,6.0787,6.0787,6.0787,6.0787,6.0787,6.0787,6.0787,6.0787,4.6896,4.9157,4.9938,4.9298,4.6322,4.2366,3.7845,3.3644,2.9792,2.6778,2.5543,2.4984,2.4984,2.5894,2.7183,2.8923,3.1951,3.5249,3.8617,4.2905,4.7378,5.1881,6.0559,6.7428,7.0507,7.3303,7.4925,7.4957,7.5056,7.5199,7.5327,7.5485,7.5553,7.5527,7.4517,7.3929,7.3783,7.2512,7.1711,7.1416,7.1061,7.0867,7.0867,7.0839,7.0846,7.0873,7.1056,7.1136,7.1139,7.0932,7.085,7.0871,7.0595,7.0518,7.0518,7.0518,7.0131,6.9628,6.9628,6.9087,6.8269,6.7694,6.7307,6.7075,6.7075,6.7075,6.7253,6.8022,6.8428,6.8562,6.843,6.8391,6.8545,6.9167,6.9276,6.9436,6.9975,7.0129,7.0129,7.0129,7.0129,7.0129,7.0129,6.9667,6.9199,6.8936,6.8359,6.7898,6.7622,6.7628,6.7507,6.7237,6.7199,6.6122,6.3506,6.3314,6.3314,6.3314,6.3045,6.2935,6.2935,6.2133,6.1672,6.1672,6.1095,6.0787,6.0787,6.0787,6.0787,6.0787,6.0787,6.0787,3.885,4.1122,4.1958,4.2033,3.9721,3.6722,3.4107,3.0924,2.7972,2.6122,2.5856,2.5746,2.5136,2.6421,2.801,2.929,3.2937,3.6272,3.8238,4.2754,4.8174,5.4465,6.1856,6.8148,7.2431,7.4139,7.4995,7.5065,7.5237,7.5418,7.5531,7.5433,7.5395,7.5423,7.4623,7.3846,7.3119,7.2377,7.1719,7.1178,7.1112,7.1081,7.1081,7.1081,7.1081,7.1087,7.1195,7.1241,0.0,7.128,7.1297,7.1297,7.1297,7.1297,7.1297,7.1297,7.0949,7.0484,7.0484,6.9938,6.9164,6.8622,6.8236,6.8042,6.8352,6.8429,6.8524,6.8965,6.9304,6.9532,6.9425,6.9373,6.9475,7.0014,7.0167,7.0398,7.1206,7.1398,7.1398,7.1398,7.1398,7.1283,7.0975,7.0475,7.0052,6.9744,6.9237,6.8776,6.843,6.8391,6.8391,6.8391,6.8391,6.7545,6.5391,6.4929,6.4589,6.432,6.3968,6.3775,6.3775,6.2974,6.2403,6.2095,6.1556,6.1133,6.0787,6.0787,6.0787,6.0787,6.0787,6.0787,0.0,3.4074,3.4643,3.6201,3.3695,3.0848,3.0848,2.8393,0.0,2.5136,2.6315,2.6997,2.5363,2.7703,2.9703,2.9063,3.4453,3.8178,3.6656,4.2987,5.0796,5.9022,6.3031,6.7343,7.2952,7.4426,7.5075,7.5218,7.5462,7.569,7.5826,7.5166,7.4854,7.4916,7.4005,7.3188,7.2509,7.1689,7.1297,7.1297,7.1241,7.1213,7.1213,7.1213,7.1213,7.1219,7.1269,7.1297,7.1297,7.1297,7.1297,7.1297,7.1297,7.1297,7.1297,7.1297,7.1297,7.1297,7.1297,7.0755,7.0098,7.002,6.9473,6.9009,6.9788,6.9982,7.0004,6.9976,7.053,7.1087,7.1095,7.1029,7.1014,7.1052,7.1091,7.1321,7.2136,7.229,7.229,7.229,7.2252,7.1944,7.1129,7.0937,7.0667,6.9898,6.9783,6.9475,6.866,6.8584,6.8584,6.8584,6.8584,6.8545,6.8507,6.7705,6.6865,6.6058,6.5243,6.4743,6.4705,6.3852,6.3051,6.2287,6.221,6.1787,6.0973,6.0973,6.0973,6.0973,6.0973,6.0973,2.2846,0.0,2.8358,2.8738,2.8093,2.7369,0.0,2.6273,2.5212,2.5022,2.6315,2.7187,2.6122,2.8082,3.0276,3.1336,3.5557,3.8779,3.8996,4.6083,5.3631,6.0045,6.4888,6.902,7.2365,7.4191,7.5209,7.5345,7.5611,7.5848,7.6104,7.5356,7.4705,7.417,7.3307,7.276,7.2584,7.1711,7.1297,7.1297,7.128,7.1275,7.1275,7.1275,7.1275,7.1275,7.1286,7.1297,7.1297,7.1297,7.1297,7.1297,7.1297,7.1297,7.1297,7.1297,7.1297,7.1297,7.1297,7.1181,7.0871,7.0214,6.9865,6.9749,6.9943,6.9982,7.0126,7.0722,7.1,7.1241,7.1833,7.1953,7.2052,7.2738,7.2892,7.293,7.3161,7.3199,7.3199,7.3199,7.2668,7.2136,7.1944,7.1321,7.0821,7.0667,7.0629,7.0552,7.036,7.0321,7.0321,7.0321,7.0321,7.0052,6.9436,6.8584,6.7744,6.6865,6.6635,6.625,6.5628,6.4743,6.4205,6.4012,6.3358,6.2935,6.2698,6.2698,6.2698,6.2698,6.2698,6.2698,2.0302,2.2173,2.3995,2.4412,2.4795,2.5174,2.5553,2.5325,2.4984,2.4984,2.6611,2.7672,2.6425,2.8843,3.1336,3.225,3.6234,4.0761,4.5076,5.0625,5.6108,6.1183,6.5585,6.9203,7.1693,7.3286,7.4543,7.5468,7.5795,7.5856,7.5659,7.4916,7.4119,7.3342,7.2452,7.1988,7.1988,7.1523,7.1297,7.1297,7.1297,7.1297,7.1297,7.1297,7.1297,7.1297,7.1297,7.1297,7.1297,7.1297,7.1297,7.1297,7.1297,7.1297,7.1297,7.1297,7.1297,7.1297,7.1297,7.1297,7.1219,7.0755,7.0871,7.1181,7.1181,7.1485,7.1711,7.1336,7.1178,7.1209,7.1634,7.1672,7.1822,7.2706,7.2899,7.3129,7.3892,7.4046,7.4046,7.4046,7.336,7.2668,7.229,7.1475,7.0898,7.0898,7.0898,7.0898,7.0898,7.0898,7.0898,7.0898,7.0898,7.0706,7.0283,6.9821,6.9013,6.7782,6.7705,6.7321,6.6481,6.6013,6.5397,6.4628,6.3737,6.3314,6.3314,6.3314,6.3314,6.3314,6.3314,6.3314,2.0905,2.1298,2.1642,2.2631,2.3389,2.4109,2.4984,2.5174,2.5174,2.5174,2.7176,2.8457,2.7028,2.9943,3.2781,3.3274,3.7907,4.4279,5.233,5.5729,5.8863,6.2917,6.6456,6.9438,7.1629,7.2766,7.403,7.5609,7.596,7.5799,7.5071,7.4319,7.3496,7.2645,7.1756,7.1297,7.1297,7.1297,7.1297,7.1297,7.1297,7.1297,7.1297,7.1297,7.1297,7.1297,7.1297,7.1297,7.1297,7.1297,7.1297,7.1297,7.1297,7.1297,7.1297,7.1297,7.1297,7.1297,7.1297,7.1297,7.1336,7.1452,7.1988,7.2607,7.2761,7.3303,7.3574,7.2104,7.1588,7.1485,7.1485,7.1383,7.1475,7.2206,7.2399,7.2822,7.4361,7.47,7.4738,7.4853,7.4123,7.3276,7.2514,7.1668,7.1091,7.1091,7.1206,7.1283,7.1283,7.1283,7.1245,7.1091,7.1091,7.1052,7.0898,7.0898,7.0283,6.8853,6.866,6.8205,6.7327,6.7173,6.6442,6.5013,6.4122,6.3698,6.3698,6.3698,6.3775,6.3891,6.3737,6.3775,2.057,2.1756,2.2669,2.4226,2.4719,2.5022,2.5818,2.6008,2.6008,2.6008,2.8048,2.9707,2.9404,3.1606,3.4415,3.7268,4.3766,5.0664,5.7016,6.0181,6.3116,6.6651,7.0059,7.2533,7.367,7.4738,7.5488,7.5855,7.6113,7.5915,7.5136,7.4336,7.3496,7.2645,7.1756,7.1297,7.1297,7.1297,7.1297,7.1297,7.1297,7.1297,7.1297,7.1297,7.1297,7.1297,7.1297,7.1297,7.1297,7.1297,7.1297,7.1297,7.1297,7.1297,7.1297,7.1297,7.1297,7.1297,7.1297,7.1297,7.1407,7.2142,7.2491,7.2723,7.3496,7.3806,7.3844,7.3574,7.3403,7.3298,7.3298,7.3194,7.3122,7.3276,7.3315,7.3546,7.4507,7.47,7.4938,7.5668,7.4546,7.3469,7.3315,7.2591,7.2021,7.2021,7.2629,7.3084,7.3084,7.3084,7.2822,7.2091,7.2021,7.1713,7.0975,7.0898,7.0783,7.0514,6.9898,6.9129,6.8237,6.7475,6.6981,6.6712,6.5936,6.5513,6.5513,6.5513,6.5859,6.6513,6.582,6.5859,2.0759,2.1832,2.301,2.5136,2.5667,2.5856,2.6694,2.7255,2.7551,2.7551,2.9219,3.0772,3.1185,3.4074,3.8264,4.3885,4.9315,5.4596,5.9738,6.3121,6.5824,6.7913,7.0782,7.2701,7.3085,7.3596,7.4326,7.5281,7.5105,7.4592,7.38,7.3419,7.28,7.191,7.1529,7.1297,7.1297,7.1297,7.1297,7.1297,7.1297,7.1297,7.1297,7.1297,7.1297,7.1297,7.1297,7.1297,7.1297,7.1297,7.1297,7.1297,7.1297,7.1297,7.1297,7.1297,7.1297,7.1297,7.1297,7.1297,7.1374,7.1756,7.2529,7.338,7.3767,7.4541,7.5237,7.5237,7.4491,7.3575,7.3112,7.2893,7.2783,7.2783,7.2783,7.3168,7.443,7.47,7.4969,7.5822,7.5014,7.4161,7.4161,7.3476,7.2899,7.2899,7.3238,7.3507,7.3507,7.3507,7.3353,7.2937,7.2899,7.2745,7.2353,7.2315,7.1898,7.0975,7.0129,6.9513,6.9122,6.8282,6.7782,6.7782,6.7436,6.7244,6.7244,6.7244,6.7436,6.7782,6.7436,6.7436,2.0911,2.1832,2.3086,2.5591,2.6349,2.6842,2.8093,2.8995,2.9669,3.0086,3.1189,3.2364,3.3387,3.7505,4.2931,4.9575,5.4222,5.8376,6.2162,6.5544,6.7994,6.8925,7.0973,7.2366,7.2551,7.2604,7.3202,7.4559,7.4125,7.3489,7.2645,7.2607,7.2181,7.1336,7.1297,7.1297,7.1297,7.1297,7.1297,7.1297,7.1297,7.1297,7.1297,7.1297,7.1297,7.1297,7.1297,7.1297,7.1297,7.1297,7.1297,7.1297,7.1297,7.1297,7.1297,7.1297,7.1297,7.1297,7.1297,7.1297,7.133,7.1523,7.2645,7.396,7.411,7.5237,7.6397,7.6386,7.5367,7.4038,7.2964,7.2591,7.2399,7.1982,7.2059,7.2598,7.4084,7.4584,7.4969,7.5822,7.5284,7.47,7.47,7.4199,7.3776,7.3776,7.393,7.4084,7.4084,7.4084,7.4007,7.3815,7.3776,7.3699,7.3507,7.3507,7.293,7.1591,7.0744,7.0206,6.9975,6.9161,6.8699,6.8699,6.8507,6.8391,6.8391,6.8391,6.8507,6.8699,6.8507,6.8507,2.0765,2.1832,2.3086,2.5591,2.6808,2.8021,3.0397,3.1568,3.2591,3.415,3.4567,3.5135,3.6732,4.2405,4.8092,5.1872,5.8091,6.3158,6.514,6.777,6.9829,7.0772,7.1788,7.2713,7.3517,7.3664,7.3745,7.3861,7.3882,7.3491,7.2645,7.2607,7.2181,7.1336,7.1297,7.1297,7.1297,7.1297,7.1297,7.1297,7.1297,7.1297,7.1297,7.1297,7.1297,7.1297,7.1297,7.1297,7.1297,7.1297,7.1297,7.1297,7.1297,7.1297,7.1297,7.1297,7.1297,7.1297,7.1297,7.1297,7.1446,7.2258,7.3148,7.4038,7.4806,7.5662,7.6392,7.6326,7.618,7.5658,7.4044,7.3516,7.3007,7.1398,7.1591,7.2437,7.3392,7.4161,7.4969,7.5822,7.5284,7.47,7.47,7.4661,7.4623,7.4623,7.5284,7.5822,7.5822,7.5822,7.5515,7.47,7.4623,7.4315,7.3546,7.3507,7.343,7.3315,7.2514,7.1668,7.086,7.0052,6.9629,6.9629,6.8814,6.8391,6.8391,6.8391,6.8814,6.959,6.8776,6.8814,2.0881,2.1832,2.3086,2.5591,2.8013,3.0587,3.3619,3.5737,3.7859,4.0555,4.0707,4.0707,4.1844,4.6352,5.1231,5.5294,6.0839,6.5352,6.7249,6.9776,7.1585,7.1991,7.2809,7.346,7.3769,7.3367,7.3037,7.3037,7.2595,7.191,7.1026,7.0987,7.0595,6.9783,6.9744,6.9744,6.9744,6.9744,6.9744,6.9744,7.0247,7.0208,6.9744,7.0247,7.0484,7.0523,7.1065,7.1297,7.1297,7.1297,7.1297,7.1297,7.1297,7.1297,7.1297,7.1297,7.1297,7.1297,7.1297,7.1297,7.133,7.1678,7.2761,7.396,7.4264,7.5314,7.6386,7.6319,7.625,7.5915,7.468,7.4322,7.393,7.2776,7.2783,7.3245,7.4084,7.4469,7.4969,7.5822,7.5745,7.5515,7.5515,7.5515,7.5515,7.5515,7.5784,7.6015,7.6015,7.6015,7.5861,7.5553,7.5515,7.5399,7.5091,7.5053,7.4822,7.4276,7.2976,7.2059,7.1706,7.0898,7.0437,7.0437,7.0129,6.9937,6.9937,6.9937,7.0129,7.0437,7.0129,7.0129,2.0995,2.2021,2.3465,2.597,2.9109,3.2819,3.7485,3.9868,4.2217,4.6083,4.6651,4.6398,4.6164,4.9486,5.3569,5.7679,6.2318,6.614,6.8345,7.0429,7.1717,7.175,7.2065,7.2292,7.2292,7.1988,7.1678,7.1407,7.1059,7.0523,6.9667,6.9628,6.9357,6.881,6.881,6.881,6.881,6.881,6.8656,6.8385,6.8932,6.9087,6.881,6.9357,6.9628,6.9667,7.0523,7.091,7.091,7.1181,7.1297,7.1297,7.1297,7.1297,7.1297,7.1297,7.1297,7.1297,7.1297,7.1297,7.1297,7.1297,7.2297,7.3496,7.3496,7.4645,7.5931,7.5863,7.6025,7.6036,7.5372,7.4956,7.4507,7.3699,7.3699,7.4046,7.4584,7.4938,7.5361,7.6245,7.6207,7.6092,7.6361,7.6169,7.6015,7.6015,7.6015,7.6015,7.6015,7.6015,7.6015,7.6015,7.6015,7.6015,7.6015,7.6015,7.5745,7.5168,7.3783,7.2745,7.2213,7.1636,7.1168,7.0898,7.0898,7.0898,7.0898,7.0898,7.1052,7.1321,7.1321,7.1321,2.0995,2.2438,2.4374,2.6921,3.0023,3.4448,4.2033,4.3739,4.5179,5.0213,5.1881,5.1719,4.9315,5.1688,5.5212,5.8731,6.2332,6.5637,6.8298,6.9446,6.9982,6.9982,6.928,6.881,6.881,6.9512,6.9667,6.8849,6.9551,6.9628,6.881,6.8772,6.8772,6.8772,6.8772,6.8772,6.8772,6.8772,6.8346,6.7501,6.7501,6.7921,6.8772,6.8772,6.8772,6.881,6.9628,6.9982,7.0059,7.0949,7.1297,7.1297,7.1297,7.1297,7.1297,7.1297,7.1297,7.1297,7.1297,7.1297,7.1297,7.1297,7.1872,7.2607,7.2607,7.3727,7.4975,7.4906,7.5451,7.6097,7.6097,7.5418,7.4507,7.3699,7.4123,7.47,7.47,7.5399,7.6245,7.7138,7.6592,7.6284,7.7176,7.6592,7.6015,7.6015,7.6015,7.6015,7.6015,7.6015,7.6015,7.6015,7.6015,7.6015,7.6015,7.6015,7.6015,7.6015,7.52,7.3976,7.229,7.2213,7.1828,7.0937,7.0937,7.0937,7.0937,7.0937,7.136,7.2213,7.2213,7.2213,2.187,2.4595,2.7816,3.0322,3.3927,3.8665,4.564,4.7232,4.8787,5.4427,5.6292,5.6177,5.3736,5.5715,5.829,6.0065,6.3345,6.6207,6.7662,6.8612,6.9164,6.9164,6.8965,6.881,6.881,6.9009,6.9048,6.881,6.9009,6.8777,6.7926,6.7887,6.7617,6.6998,6.6959,6.6959,6.6959,6.6959,6.6843,6.6572,6.6572,6.6727,6.6998,6.7617,6.7887,6.7921,6.8777,6.9164,6.9203,7.0059,7.0755,7.1297,7.1297,7.1297,7.1297,7.1297,7.1297,7.1297,7.1297,7.1297,7.1297,7.1297,7.1872,7.2607,7.2607,7.3369,7.4346,7.4821,7.5137,7.5459,7.6024,7.5952,7.5707,7.5476,7.5558,7.5677,7.5677,7.5859,7.6245,7.7138,7.7099,7.7176,7.7984,7.7445,7.6899,7.6899,7.6399,7.6015,7.6015,7.6015,7.6015,7.6015,7.6015,7.6015,7.6015,7.6015,7.6015,7.6015,7.5745,7.513,7.4014,7.3437,7.2976,7.2738,7.2738,7.2738,7.2738,7.2738,7.2853,7.3129,7.3129,7.3129,2.415,2.7024,3.0397,3.3242,3.7138,4.2107,4.9226,5.2289,5.4518,5.7772,5.9709,6.0084,5.7742,5.8949,6.0786,6.2176,6.4227,6.6056,6.7335,6.796,6.8269,6.8269,6.796,6.7771,6.7771,6.8076,6.8153,6.781,6.8076,6.7882,6.7036,6.6998,6.6727,6.6224,6.6185,6.6185,6.6185,6.6185,6.6031,6.5721,6.6031,6.6031,6.576,6.6611,6.6998,6.7036,6.7926,6.8462,6.8849,6.9319,7.0015,7.0794,7.0794,7.0987,7.1297,7.1297,7.1297,7.1297,7.1297,7.1297,7.1297,7.1297,7.1645,7.2065,7.2065,7.2667,7.3528,7.4304,7.4737,7.5176,7.6012,7.6238,7.6231,7.6198,7.6145,7.6174,7.6553,7.6573,7.6861,7.8054,7.8023,7.8061,7.8861,7.8323,7.7792,7.7792,7.7053,7.6515,7.6515,7.6207,7.6015,7.6015,7.6015,7.6015,7.6015,7.6015,7.6015,7.6015,7.6015,7.5745,7.5245,7.443,7.3815,7.3507,7.3507,7.3507,7.3507,7.3507,7.3661,7.3969,7.3969,7.3969,2.7149,2.9572,3.2508,3.5893,4.0365,4.5769,5.2938,5.8042,6.1121,6.0493,6.2336,6.3429,6.1335,6.1678,6.2858,6.4613,6.4965,6.5559,6.7147,6.7384,6.7384,6.7384,6.6688,6.6185,6.6185,6.692,6.7036,6.6263,6.692,6.6998,6.6147,6.6108,6.6031,6.5953,6.5953,6.5953,6.5953,6.5953,6.561,6.4875,6.5682,6.5721,6.503,6.5837,6.6185,6.6224,6.6959,6.781,6.8694,6.8694,6.9203,6.9982,6.9982,7.0523,7.1297,7.1297,7.1297,7.1297,7.1297,7.1297,7.1297,7.1297,7.1297,7.1297,7.1297,7.1794,7.2592,7.3531,7.4294,7.5028,7.6063,7.6313,7.6295,7.6225,7.6229,7.6451,7.7253,7.742,7.7869,7.9469,7.9169,7.8907,7.9785,7.9208,7.86,7.8523,7.7869,7.7407,7.7407,7.6707,7.6245,7.6245,7.6245,7.6207,7.613,7.613,7.6092,7.6015,7.6015,7.6015,7.6015,7.5245,7.4469,7.3738,7.3738,7.3738,7.3738,7.3738,7.4084,7.4815,7.4815,7.4815,2.7816,3.1762,3.6031,3.9451,4.7057,5.447,5.7499,6.0468,6.2713,6.3115,6.4304,6.5085,6.4658,6.4871,6.529,6.5721,6.5863,6.6059,6.6417,6.6495,6.6495,6.6495,6.6301,6.6185,6.6185,6.6379,6.6417,6.6224,6.6379,6.6108,6.5301,6.5262,6.4952,6.4256,6.4256,6.4256,6.4256,6.4256,6.414,6.3985,6.4836,6.5185,6.503,6.5837,6.6185,6.6185,6.5726,6.6379,6.7771,6.7771,6.8661,6.9982,6.9982,7.0523,7.1297,7.1297,7.1297,7.1297,7.1297,7.1297,7.1297,7.1297,7.1297,7.1297,7.1297,7.1441,7.1894,7.3435,7.4009,7.4462,7.5987,7.638,7.6362,7.6295,7.6765,7.7252,7.7445,7.7887,7.8554,7.9585,7.9662,7.9785,8.0669,8.0092,7.9285,7.86,7.8369,7.8253,7.8253,7.8099,7.7946,7.7946,7.7946,7.7715,7.7053,7.7015,7.6746,7.6053,7.6015,7.6015,7.6015,7.5822,7.563,7.5476,7.5476,7.5476,7.5476,7.5476,7.5553,7.5707,7.5707,7.5707,3.1126,3.4288,3.8442,4.4799,5.1979,5.7718,5.866,6.1121,6.3475,6.4257,6.5089,6.5743,6.5839,6.5967,6.6069,6.6134,6.6165,6.6185,6.6185,6.6185,6.6069,6.5682,6.5649,6.5455,6.503,6.4991,6.5185,6.561,6.5223,6.4991,6.4991,6.4604,6.4179,6.3715,6.3715,6.3715,6.3715,6.3715,6.3482,6.3091,6.3947,6.4372,6.4411,6.5223,6.5649,6.5571,6.4759,6.5107,6.6301,6.6301,6.7307,6.8854,6.9241,6.9938,7.0717,7.1142,7.1297,7.1297,7.1297,7.1297,7.1297,7.1297,7.1297,7.1297,7.1297,7.1297,7.164,7.3419,7.3883,7.4309,7.5978,7.6403,7.6502,7.686,7.7209,7.7612,7.7964,7.8597,7.9361,8.0246,8.0439,8.0554,8.1016,8.0708,8.0285,7.9823,7.94,7.9131,7.9131,7.8754,7.8484,7.8484,7.8484,7.833,7.7907,7.7869,7.7676,7.7246,7.6823,7.663,7.663,7.6207,7.6015,7.6015,7.6015,7.6015,7.6015,7.6015,7.6015,7.6015,7.6015,7.6015,3.4077,3.686,4.1065,4.9869,5.4986,5.8068,5.8731,6.1057,6.3373,6.442,6.5261,6.5901,6.6001,6.5959,6.5935,6.5987,6.5876,6.576,6.576,6.576,6.5533,6.4836,6.4798,6.4488,6.3753,6.3715,6.3985,6.472,6.4101,6.3947,6.4527,6.3869,6.3405,6.325,6.325,6.325,6.325,6.325,6.2902,6.2196,6.3052,6.356,6.3715,6.4295,6.4643,6.472,6.3831,6.4063,6.4991,6.4991,6.5992,6.7578,6.8462,6.928,7.0098,7.0987,7.1297,7.1297,7.1297,7.1297,7.1297,7.1297,7.1297,7.1297,7.1297,7.1297,7.164,7.3419,7.3883,7.4309,7.5978,7.6392,7.66,7.7383,7.7659,7.7894,7.8679,7.9453,8.0246,8.0977,8.1093,8.1093,8.1093,8.1093,8.1093,8.1093,8.0477,8.0015,8.0015,7.94,7.8946,7.8946,7.8946,7.8907,7.8754,7.8715,7.8677,7.8523,7.7753,7.7292,7.7292,7.6476,7.6015,7.6015,7.6015,7.6015,7.6015,7.6015,7.6015,7.6015,7.6015,7.6015,3.2533,3.898,4.5858,5.1649,5.4723,5.7091,6.0041,6.1094,6.1868,6.3502,6.503,6.6069,6.6085,6.5559,6.5136,6.5146,6.4527,6.4024,6.4024,6.4024,6.3985,6.3869,6.3869,6.3831,6.3715,6.3715,6.3753,6.3869,6.3753,6.3405,6.2776,6.2622,6.224,6.1466,6.1466,6.1466,6.1466,6.1466,6.1389,6.1273,6.2158,6.2975,6.3676,6.3052,6.3168,6.3831,6.2936,6.3516,6.4991,6.4991,6.5992,6.7578,6.8462,6.928,7.0098,7.0987,7.1297,7.1297,7.1297,7.1297,7.1297,7.1297,7.1297,7.1297,7.1297,7.1297,7.164,7.3419,7.3883,7.4309,7.5978,7.6362,7.6526,7.7305,7.8003,7.8679,7.9558,8.0377,8.0977,8.1093,8.1093,8.1093,8.1093,8.1093,8.1093,8.1093,8.1016,8.0939,8.0939,8.0823,8.0746,8.0746,8.0746,8.0439,7.9708,7.9631,7.9285,7.8561,7.7753,7.7292,7.7292,7.6476,7.6015,7.6015,7.6015,7.6015,7.6015,7.6015,7.6015,7.6015,7.6015,7.6015,3.2947,4.0302,4.7067,5.0405,5.328,5.5831,5.7782,5.9721,6.1311,6.2085,6.3579,6.4758,6.4758,6.4473,6.4256,6.4256,6.3947,6.3715,6.3715,6.3715,6.3521,6.3013,6.2975,6.2781,6.2278,6.224,6.2433,6.2936,6.2511,6.2278,6.239,6.1926,6.15,6.1118,6.1118,6.1118,6.1118,6.1118,6.1118,6.1118,6.15,6.1853,6.224,6.1853,6.2162,6.2936,6.2046,6.2665,6.4256,6.4256,6.5262,6.6843,6.7733,6.8584,6.9435,7.0252,7.0871,7.1297,7.1297,7.1297,7.1297,7.1297,7.1297,7.1297,7.1297,7.1297,7.164,7.3419,7.3883,7.4297,7.5931,7.6326,7.6623,7.7817,7.8339,7.8958,8.0307,8.0846,8.1093,8.1093,8.1093,8.1093,8.1093,8.1093,8.1093,8.1093,8.1093,8.1093,8.1093,8.1093,8.1093,8.1093,8.1093,8.0939,8.0554,8.0516,8.0362,7.9977,7.8715,7.7984,7.7984,7.6707,7.6015,7.6015,7.6015,7.6015,7.6015,7.6015,7.6015,7.6015,7.6015,7.6015,3.2938,3.9503,4.5167,4.7171,4.9954,5.2685,5.4619,5.7172,5.9416,6.0306,6.1509,6.2399,6.2399,6.2941,6.3366,6.3366,6.3173,6.3057,6.3057,6.3057,6.2786,6.2158,6.208,6.181,6.1157,6.1118,6.1389,6.2003,6.1461,6.1384,6.2042,6.1461,6.1118,6.1118,6.1118,6.1118,6.1118,6.1118,6.1118,6.1118,6.1118,6.1118,6.1118,6.1118,6.1461,6.2042,6.1389,6.1969,6.3405,6.3598,6.4566,6.5992,6.7075,6.7887,6.8578,6.9396,7.0252,7.0987,7.0987,7.1103,7.1297,7.1297,7.1297,7.1297,7.1297,7.1452,7.1949,7.3458,7.4038,7.4523,7.5933,7.6288,7.663,7.7961,7.8265,7.8775,8.0677,8.1093,8.1093,8.1093,8.1093,8.1093,8.1093,8.1093,8.1093,8.1093,8.1093,8.1093,8.1093,8.1093,8.1093,8.1093,8.1093,8.1093,8.1093,8.1093,8.1093,8.1093,7.9669,7.8823,7.8823,7.7207,7.6438,7.663,7.6438,7.6207,7.6015,7.6015,7.6015,7.6015,7.6015,7.6015,3.1357,3.5335,3.9255,4.1767,4.3785,4.6415,5.1297,5.3153,5.4817,5.8067,5.8802,5.8879,5.8879,6.0847,6.2467,6.2467,6.1771,6.1234,6.1234,6.1234,6.1234,6.1157,6.1157,6.1157,6.1118,6.1118,6.1118,6.1157,6.1118,6.1118,6.1157,6.1118,6.1118,6.1118,6.1118,6.1118,6.1118,6.1118,6.1118,6.1118,6.1118,6.1118,6.1118,6.1118,6.1118,6.1157,6.1118,6.1616,6.2544,6.3366,6.4256,6.5223,6.6843,6.7539,6.7655,6.854,6.9357,7.0059,7.0059,7.0601,7.1297,7.1297,7.1297,7.1297,7.1297,7.1872,7.2723,7.3651,7.4458,7.522,7.6088,7.625,7.641,7.726,7.742,7.8061,8.0554,8.1093,8.1093,8.1093,8.1093,8.1093,8.1093,8.1093,8.1093,8.1093,8.1093,8.1093,8.1093,8.1093,8.1093,8.1093,8.1093,8.1093,8.1093,8.1093,8.1093,8.1093,8.0246,7.9746,7.9746,7.813,7.7599,7.8369,7.7638,7.6823,7.6015,7.6015,7.6015,7.6015,7.6015,7.6015,3.0829,3.4174,3.7715,3.9176,4.1271,4.3711,4.6651,4.8817,5.0867,5.3188,5.4116,5.4972,5.6631,5.8604,5.9957,5.9957,5.9687,5.9498,5.9498,5.9498,5.9687,6.0267,6.0344,6.0538,6.1041,6.1118,6.1118,6.1118,6.1118,6.1118,6.1118,6.1118,6.1118,6.1118,6.1118,6.1118,6.1118,6.1118,6.1118,6.1118,6.1118,6.1118,6.1118,6.1118,6.1118,6.1118,6.1118,6.1577,6.2428,6.2743,6.371,6.5069,6.5649,6.6533,6.7539,6.7849,6.8816,6.9982,6.9982,7.0562,7.1297,7.1297,7.1297,7.1297,7.1297,7.191,7.2761,7.3651,7.4435,7.5237,7.6019,7.6185,7.6342,7.715,7.7691,7.8484,7.9939,8.0708,8.1093,8.1093,8.1093,8.1093,8.1093,8.1093,8.1093,8.1093,8.1093,8.1093,8.1093,8.1093,8.1093,8.1093,8.1093,8.1093,8.1093,8.1093,8.1093,8.1093,8.0285,7.9815,7.9815,7.8669,7.8215,7.8484,7.8215,7.7907,7.7599,7.7599,7.7599,7.7599,7.7053,7.7099,3.047,3.2633,3.4983,3.585,3.7558,3.9685,4.2318,4.4407,4.6573,4.9084,5.079,5.2376,5.4349,5.636,5.7912,5.8492,5.8608,5.8685,5.8995,5.9034,5.9343,6.019,6.0306,6.0499,6.1041,6.1118,6.1118,6.1118,6.1118,6.1118,6.1118,6.1118,6.1118,6.1118,6.1118,6.1118,6.1118,6.1118,6.1118,6.1118,6.1118,6.1118,6.1118,6.1118,6.1118,6.1118,6.1118,6.1423,6.2003,6.2274,6.3245,6.4604,6.4875,6.5842,6.7075,6.7075,6.8158,6.9589,6.9589,7.0324,7.1297,7.1297,7.1297,7.1297,7.1297,7.2104,7.3148,7.3728,7.4649,7.5548,7.6057,7.6125,7.6195,7.6722,7.7484,7.833,7.9169,8.0054,8.0746,8.1054,8.1093,8.1093,8.1093,8.1093,8.1093,8.1093,8.1093,8.1093,8.1093,8.1093,8.1093,8.1093,8.1093,8.1093,8.1093,8.1093,8.1093,8.1093,8.0554,8.0246,8.0246,7.94,7.9054,7.9369,7.91,7.91,7.9369,7.8792,7.8484,7.8484,7.7946,7.7984,0.0,0.0,0.0,3.1562,3.2411,3.4151,3.8379,4.0042,4.1896,4.6113,4.9007,5.1057,5.1993,5.4194,5.6437,5.8183,5.8492,5.8802,5.9653,5.9764,6.0074,6.0925,6.1041,6.1041,6.1118,6.1118,6.1118,6.1118,6.1118,6.1118,6.1118,6.1079,6.1041,6.1041,6.1041,6.1079,6.1079,6.1079,6.1118,6.1118,6.1118,6.1118,6.1118,6.1118,6.1118,6.1118,6.1118,6.1118,6.1157,6.2003,6.2897,6.3753,6.4604,6.5455,6.6185,6.6185,6.7307,6.8772,6.8772,6.9899,7.1258,7.1297,7.1297,7.1297,7.1297,7.2529,7.3883,7.3883,7.5074,7.6282,7.6205,7.6083,7.6015,7.6015,7.663,7.7484,7.833,7.9169,8.0015,8.0939,8.1093,8.1093,8.1093,8.1093,8.1093,8.1093,8.1093,8.1093,8.1093,8.1093,8.1093,8.1093,8.1093,8.1093,8.1093,8.1093,8.1093,8.1093,8.1093,8.1093,8.1093,8.0277,8.0246,8.1093,8.0285,8.0246,8.1093,7.9408,7.8561,7.8561,7.8561,7.8561,3.0518,0.0,0.0,0.0,0.0,0.0,3.5242,3.7409,3.9956,4.3595,4.5916,4.8086,5.0786,5.183,5.3107,5.547,5.6321,5.6786,5.7056,5.7091,5.7637,5.9111,5.9304,5.9764,6.0963,6.1118,6.1118,6.1118,6.1118,6.1118,6.1118,6.0538,5.9919,5.9304,5.988,6.0228,6.0228,6.0809,6.1118,6.1118,6.1118,6.1118,6.1118,6.1118,6.1118,6.1118,6.1118,6.1118,6.1118,6.135,6.1969,6.2859,6.3715,6.4566,6.5417,6.5992,6.6882,6.796,6.8578,6.9473,7.0446,7.1103,7.1297,7.1297,7.1297,7.2529,7.3883,7.3883,7.5038,7.6198,7.6069,7.6044,7.6015,7.6015,7.6169,7.6746,7.8176,7.8677,7.9285,8.0823,8.1093,8.1093,8.1093,8.1093,8.1093,8.1093,8.1093,8.1093,8.1093,8.1093,8.1093,8.1093,8.1093,8.1093,8.1093,8.1093,8.1093,8.1093,8.1093,8.1093,8.1093,8.0862,8.0862,8.1093,8.0862,8.0862,8.1093,8.0631,8.0362,8.0362,8.0362,8.0054,3.0518,3.0598,3.0675,3.1021,0.0,0.0,3.4004,3.6091,3.8447,4.1158,4.3366,4.5726,4.8778,4.9896,5.1134,5.3343,5.4426,5.5311,5.6394,5.6549,5.7052,5.8453,5.8608,5.8995,5.9957,6.0074,6.0074,6.0074,6.0074,6.0074,6.0074,5.9614,5.9111,5.8608,5.9072,5.9537,5.9885,6.0383,6.077,6.1118,6.1118,6.1118,6.1118,6.1118,6.1118,6.1118,6.1118,6.1118,6.1118,6.1118,6.1616,6.2506,6.3366,6.4217,6.5107,6.5915,6.6766,6.7578,6.8076,6.9009,7.0098,7.0601,7.0987,7.1297,7.1297,7.2529,7.3877,7.3855,7.4989,7.6125,7.6044,7.6015,7.6015,7.6015,7.6015,7.6476,7.8138,7.8484,7.9023,8.0746,8.1093,8.1093,8.1093,8.1093,8.1093,8.1093,8.1093,8.1093,8.1093,8.1093,8.1093,8.1093,8.1093,8.1093,8.1093,8.1093,8.1093,8.1093,8.1093,8.1093,8.1093,8.1093,8.1093,8.1093,8.1093,8.1093,8.1093,8.1093,8.1093,8.1093,8.1093,8.0823,3.04,3.0675,3.0907,3.164,3.1869,0.0,3.4004,3.5706,3.7406,3.9152,4.1432,4.3866,4.6225,4.7927,4.9513,5.1103,5.2225,5.3846,5.651,5.6897,5.7245,5.8183,5.8299,5.8376,5.8569,5.8608,5.8608,5.8608,5.8608,5.8569,5.8453,5.8453,5.8415,5.8299,5.8415,5.884,5.9609,5.9803,6.0267,6.0963,6.1079,6.1118,6.1118,6.1118,6.1118,6.1118,6.1118,6.1118,6.1118,6.1118,6.1539,6.2351,6.3328,6.4179,6.4952,6.5876,6.6688,6.7384,6.7462,6.8545,6.9865,6.9982,7.0601,7.1297,7.1297,7.2524,7.3899,7.4021,7.5034,7.6076,7.6037,7.6015,7.6015,7.6015,7.6015,7.6476,7.8138,7.8484,7.9023,8.0746,8.1093,8.1093,8.1093,8.1093,8.1093,8.1093,8.1093,8.1093,8.1093,8.1093,8.1093,8.1093,8.1093,8.1093,8.1093,8.1093,8.1093,8.1093,8.1093,8.1093,8.1093,8.1093,8.1093,8.1093,8.1093,8.1093,8.1093,8.1093,8.1093,8.1093,8.1093,8.1093,3.0559,3.1059,3.1601,3.1753,3.2333,0.0,3.4159,3.5706,3.7406,3.9152,4.0968,4.2628,4.3827,4.433,4.4907,4.5912,4.7966,5.0519,5.3768,5.4233,5.4813,5.6321,5.651,5.7056,5.8453,5.8608,5.8608,5.8608,5.8608,5.8294,5.7593,5.7555,5.7245,5.651,5.7207,5.7632,5.7826,5.9184,5.9996,6.0151,6.0809,6.1118,6.1118,6.1118,6.1118,6.1118,6.1118,6.1118,6.1118,6.1118,6.1195,6.1505,6.3096,6.3792,6.414,6.5644,6.6301,6.6533,6.7268,6.8158,6.9125,6.9788,7.0601,7.1297,7.1297,7.2495,7.4099,7.5323,7.5887,7.6076,7.6037,7.6015,7.6015,7.6015,7.6015,7.6476,7.8138,7.8484,7.9023,8.0746,8.1093,8.1093,8.1093,8.1093,8.1093,8.1093,8.1093,8.1093,8.1093,8.1093,8.1093,8.1093,8.1093,8.1093,8.1093,8.1093,8.1093,8.1093,8.1093,8.1093,8.1093,8.1093,8.1093,8.1093,8.1093,8.1093,8.1093,8.1093,8.1093,8.1093,8.1093,8.1093,3.1833,3.214,3.2565,3.2996,3.3421,0.0,0.0,3.6361,3.779,3.8682,3.9533,4.05,4.1816,4.1703,4.1816,4.3092,4.5452,4.7699,4.9401,5.1877,5.3807,5.4658,5.4735,5.5084,5.5978,5.6055,5.6055,5.6055,5.648,5.6515,5.6085,5.6433,5.6433,5.6008,5.6433,5.6859,5.7284,5.8604,5.9459,5.9923,6.0731,6.1118,6.1118,6.1118,6.1118,6.1118,6.1118,6.1118,6.1118,6.1118,6.1118,6.1273,6.3018,6.3715,6.3908,6.5566,6.6185,6.6301,6.7191,6.8076,6.8926,6.9749,7.0601,7.1286,7.1258,7.2381,7.4025,7.5655,7.6069,7.6027,7.6022,7.6015,7.6015,7.6015,7.6015,7.6476,7.8138,7.8484,7.9023,8.0746,8.1093,8.1093,8.1093,8.1093,8.1093,8.1093,8.1093,8.1093,8.1093,8.1093,8.1093,8.1093,8.1093,8.1093,8.1093,8.1093,8.1093,8.1093,8.1093,8.1093,8.1093,8.1093,8.1093,8.1093,8.1093,8.1093,8.1093,8.1093,8.1093,8.1093,8.1093,8.1093,3.3104,3.3223,3.3535,3.4236,3.4549,3.4817,0.0,0.0,0.0,3.7712,3.7712,3.8138,3.9575,3.923,3.923,4.0578,4.2902,4.4607,4.4607,4.8589,5.1834,5.2685,5.2763,5.2883,5.3231,5.3111,5.2995,5.2995,5.3652,5.4039,5.4039,5.5157,5.5776,5.5776,5.593,5.6356,5.7052,5.8062,5.8956,5.9653,6.0654,6.1118,6.1118,6.1118,6.1118,6.1118,6.1118,6.1118,6.1118,6.1118,6.1118,6.1273,6.3018,6.3715,6.3908,6.5566,6.6185,6.6301,6.7191,6.8076,6.8926,6.9749,7.059,7.1341,7.1576,7.2559,7.3933,7.5614,7.6027,7.6015,7.6015,7.613,7.6245,7.6245,7.6361,7.6899,7.8407,7.8754,7.9208,8.0785,8.1093,8.1093,8.1093,8.1093,8.1093,8.1093,8.1093,8.1093,8.1093,8.1093,8.1093,8.1093,8.1093,8.1093,8.1093,8.1093,8.1093,8.1093,8.1093,8.1093,8.1093,8.1093,8.1093,8.1093,8.1093,8.1093,8.1093,8.1093,8.1093,8.1093,8.1093,8.1093,3.3104,3.3651,3.4275,3.4394,3.4971,3.559,3.5668,0.0,3.5977,3.5977,0.0,3.6055,3.6248,0.0,0.0,3.6364,3.8533,4.0236,4.0236,4.267,4.5877,4.9668,5.0132,5.0712,5.2186,5.1641,5.1211,5.1211,5.1289,5.1327,5.1327,5.3609,5.4929,5.4929,5.5621,5.6046,5.6162,5.7791,5.8647,5.8763,6.0344,6.1118,6.1118,6.1118,6.1118,6.1118,6.1118,6.1118,6.1118,6.1118,6.1118,6.1273,6.3018,6.3715,6.3908,6.5566,6.6185,6.6301,6.7191,6.8076,6.8926,6.9749,7.0568,7.1466,7.2881,7.3445,7.3919,7.5551,7.6022,7.6015,7.6015,7.6553,7.7138,7.7138,7.7715,7.8484,7.9438,7.9662,7.9939,8.09,8.1093,8.1093,8.1093,8.1093,8.1093,8.1093,8.1093,8.1093,8.1093,8.1093,8.1093,8.1093,8.1093,8.1093,8.1093,8.1093,8.1093,8.1093,8.1093,8.1093,8.1093,8.1093,8.1093,8.1093,8.1093,8.1093,8.1093,8.1093,8.1093,8.1093,8.1093,8.1093,3.4618,3.4891,3.5165,3.5165,3.5436,3.5706,3.5706,3.5706,3.5706,3.5706,0.0,0.0,0.0,0.0,0.0,0.0,3.7406,3.876,3.876,4.0539,4.286,4.5645,4.599,4.6264,4.696,4.6686,4.6493,4.6493,4.7846,4.8933,4.9432,5.1873,5.3734,5.4774,5.5122,5.5543,5.6008,5.7714,5.8608,5.8608,6.0306,6.1118,6.1118,6.1118,6.1118,6.1118,6.1118,6.1118,6.1118,6.1118,6.1389,6.1964,6.3212,6.3715,6.3908,6.5566,6.6533,6.7075,6.796,6.8816,6.9623,7.0446,7.1216,7.2045,7.3221,7.3906,7.448,7.5676,7.6015,7.6015,7.6015,7.663,7.7292,7.7292,7.7907,7.8754,7.9623,7.9815,8.0046,8.0939,8.1093,8.1093,8.1093,8.1093,8.1093,8.1093,8.1093,8.1093,8.1093,8.1093,8.1093,8.1093,8.1093,8.1093,8.1093,8.1093,8.1093,8.1093,8.1093,8.1093,8.1093,8.1093,8.1093,8.1093,8.1093,8.1093,8.1093,8.1093,8.1093,8.1093,8.1093,8.1093,3.7088,3.6737,3.6386,3.6374,3.6027,3.5684,3.5654,3.5657,3.5695,3.5704,3.5706,0.0,0.0,0.0,3.5706,3.5706,0.0,3.7519,3.7519,3.8605,4.0194,4.2357,4.2821,4.2937,4.2937,4.2744,4.2628,4.2628,4.4755,4.6109,4.6303,4.9823,5.2337,5.3382,5.431,5.52,5.6008,5.7714,5.8608,5.8608,6.0306,6.1118,6.1118,6.1118,6.1118,6.1118,6.1118,6.1118,6.1118,6.1118,6.1616,6.2506,6.3366,6.3831,6.4217,6.5682,6.6766,6.7611,6.8485,6.9436,7.0424,7.1249,7.1859,7.2501,7.3559,7.4288,7.4892,7.5745,7.6015,7.6015,7.6015,7.6823,7.7638,7.7638,7.8446,7.94,8.0015,8.0169,8.0323,8.0977,8.1093,8.1093,8.1093,8.1093,8.1093,8.1093,8.1093,8.1093,8.1093,8.1093,8.1093,8.1093,8.1093,8.1093,8.1093,8.1093,8.1093,8.1093,8.1093,8.1093,8.1093,8.1093,8.1093,8.1093,8.1093,8.1093,8.1093,8.1093,8.1093,8.1093,8.1093,8.1093,4.0575,3.9367,3.8086,3.8045,3.6807,3.5587,3.5617,3.5587,3.5631,3.5701,3.5706,3.5706,3.5706,0.0,0.0,0.0,3.5745,0.0,0.0,3.5823,3.7099,4.0465,4.1587,4.2048,4.2048,4.1354,4.089,4.089,4.2473,4.2744,4.1122,4.7343,5.0593,4.9896,5.3072,5.52,5.6008,5.7714,5.8608,5.8608,6.0306,6.1118,6.1118,6.1118,6.1118,6.1118,6.1118,6.1118,6.1118,6.1118,6.1616,6.2506,6.3366,6.4217,6.5069,6.5876,6.6766,6.7606,6.8436,6.9731,7.1209,7.1994,7.2283,7.261,7.4189,7.4668,7.4892,7.5745,7.6015,7.6015,7.6015,7.7207,7.8446,7.8446,7.9792,8.1016,8.1054,8.1054,8.1054,8.1093,8.1093,8.1093,8.1093,8.1093,8.1093,8.1093,8.1093,8.1093,8.1093,8.1093,8.1093,8.1093,8.1093,8.1093,8.1093,8.1093,8.1093,8.1093,8.1093,8.1093,8.1093,8.1093,8.1093,8.1093,8.1093,8.1093,8.1093,8.1093,8.1093,8.1093,8.1093,8.1093,0.0,0.0,3.8125,3.8112,0.0,3.5581,3.559,3.5593,3.5911,3.71,3.7338,3.7344,3.7361,0.0,0.0,0.0,0.0,0.0,0.0,3.5706,3.6132,3.7293,3.7679,3.7834,3.7834,3.7563,3.7409,3.7409,3.8992,4.042,4.1548,4.5374,4.8701,5.1258,5.3037,5.4619,5.6008,5.7714,5.8608,5.8608,6.0306,6.1118,6.1118,6.1118,6.1118,6.1118,6.1118,6.1118,6.1157,6.1732,6.2472,6.3366,6.4217,6.5069,6.5837,6.6108,6.7088,6.8475,6.9803,7.063,7.1185,7.2013,7.2666,7.3311,7.4361,7.5091,7.563,7.5938,7.6015,7.6015,7.6015,7.7246,7.8484,7.8484,7.9823,8.1093,8.1093,8.1093,8.1093,8.1093,8.1093,8.1093,8.1093,8.1093,8.1093,8.1093,8.1093,8.1093,8.1093,8.1093,8.1093,8.1093,8.1093,8.1093,8.1093,8.1093,8.1093,8.1093,8.1093,8.1093,8.1093,8.1093,8.1093,8.1093,8.1093,8.1093,8.1093,8.1093,8.1093,8.1093,8.1093,8.1093,4.322,4.2063,0.0,4.0387,3.9038,0.0,3.7443,0.0,3.771,3.8859,3.8604,3.8191,3.8209,0.0,0.0,0.0,0.0,0.0,0.0,3.5706,3.5706,3.5706,3.5706,3.5706,3.5706,3.5706,3.5706,3.5706,3.7248,3.8641,3.9688,4.3018,4.619,4.8937,5.0755,5.2801,5.5084,5.6824,5.7989,5.8608,6.0306,6.1118,6.1118,6.1118,6.1118,6.1118,6.1118,6.1118,6.1157,6.2042,6.2897,6.3792,6.4623,6.5464,6.6155,6.6155,6.7222,6.8847,7.0502,7.1217,7.1582,7.2429,7.328,7.4084,7.4892,7.5553,7.6015,7.6015,7.6015,7.6015,7.6015,7.7246,7.8484,7.8484,7.9823,8.1093,8.1093,8.1093,8.1093,8.1093,8.1093,8.1093,8.1093,8.1093,8.1093,8.1093,8.1093,8.1093,8.1093,8.1093,8.1093,8.1093,8.1093,8.1093,8.1093,8.1093,8.1093,8.1093,8.1093,8.1093,8.1093,8.1093,8.1093,8.1093,8.1093,8.1093,8.1093,8.1093,8.1093,8.1093,8.1093,8.1093]}]]